[[{"header":{"parameterUnit":"m.s-1","parameterCategory":1,"la1":30.6,"la2":29.2853,"lo1":-89.7004,"lo2":-87.6739,"dy":0.0162,"dx":0.0183,"nx":112,"ny":82,"refTime":"2023-08-06T06:00:00:Z","depth":0,"parameterNumber":2,"parameterNumberName":"U-component_of_WINDS"},"data":[0.0,0.0,0.0,0.0,0.0,0.0,0.0,0.0,0.0,0.0,0.0,0.0,0.0,0.0,0.0,0.0,0.0,0.0,0.0,0.0,0.0,0.0,0.0,0.0,0.0,0.0,0.0,0.0,0.0,0.0,0.0,0.0,0.0,0.0,0.0,0.0,0.0,0.0,0.0,0.0,0.0,0.0,0.0,0.0,0.0,0.0,0.0,0.0,0.0,0.0,0.0,0.0,0.0,0.0,0.0,0.0,0.0,0.0,0.0,0.0,0.0,0.0,0.0,0.0,0.0,0.0,0.0,0.0,0.0,0.0,0.0,0.0,0.0,0.0,0.0,0.0,0.0,0.0,0.0,0.0,0.0,0.0,0.0,0.0,0.0,0.0,0.0,0.0,0.0,0.0,0.0,-4.9001,-4.9001,-4.9001,-4.9001,-4.9001,-4.9306,-5.0033,0.0,0.0,0.0,0.0,0.0,0.0,0.0,0.0,0.0,0.0,0.0,0.0,0.0,0.0,0.0,0.0,0.0,0.0,0.0,0.0,0.0,0.0,0.0,0.0,0.0,0.0,0.0,0.0,0.0,0.0,0.0,0.0,0.0,0.0,0.0,0.0,0.0,0.0,0.0,0.0,0.0,0.0,0.0,0.0,0.0,0.0,0.0,0.0,0.0,0.0,0.0,0.0,0.0,0.0,0.0,0.0,0.0,0.0,0.0,0.0,0.0,0.0,0.0,0.0,0.0,0.0,0.0,0.0,0.0,0.0,0.0,0.0,0.0,0.0,0.0,0.0,0.0,0.0,0.0,0.0,0.0,0.0,0.0,0.0,0.0,0.0,0.0,0.0,0.0,0.0,0.0,0.0,0.0,0.0,0.0,0.0,0.0,0.0,0.0,0.0,0.0,0.0,0.0,0.0,-4.9001,-4.9001,-4.9001,-4.9001,-4.9001,-4.9001,-4.9306,-5.0033,0.0,0.0,0.0,0.0,0.0,0.0,0.0,0.0,0.0,0.0,0.0,0.0,0.0,0.0,0.0,0.0,0.0,0.0,0.0,0.0,0.0,0.0,0.0,0.0,0.0,0.0,0.0,0.0,0.0,0.0,0.0,0.0,0.0,0.0,0.0,0.0,0.0,0.0,0.0,0.0,0.0,0.0,0.0,0.0,0.0,0.0,0.0,0.0,0.0,0.0,0.0,0.0,0.0,0.0,0.0,0.0,0.0,0.0,0.0,0.0,0.0,0.0,0.0,0.0,0.0,0.0,0.0,0.0,0.0,0.0,0.0,0.0,0.0,0.0,0.0,0.0,0.0,0.0,0.0,0.0,0.0,0.0,0.0,0.0,0.0,0.0,0.0,0.0,0.0,0.0,0.0,0.0,0.0,0.0,0.0,0.0,0.0,0.0,0.0,0.0,0.0,0.0,0.0,-4.9001,-4.9001,-4.9001,-4.9001,-4.9001,-4.9001,-4.9001,-4.9492,-5.0625,-5.071,0.0,0.0,0.0,0.0,0.0,0.0,0.0,0.0,0.0,0.0,0.0,0.0,0.0,0.0,0.0,0.0,0.0,0.0,0.0,0.0,0.0,0.0,0.0,0.0,0.0,0.0,0.0,0.0,0.0,0.0,0.0,0.0,0.0,0.0,0.0,0.0,0.0,0.0,0.0,0.0,0.0,0.0,0.0,0.0,0.0,0.0,0.0,0.0,0.0,0.0,0.0,0.0,0.0,0.0,0.0,0.0,0.0,0.0,0.0,0.0,0.0,0.0,0.0,0.0,0.0,0.0,0.0,0.0,0.0,0.0,0.0,0.0,0.0,0.0,0.0,0.0,0.0,0.0,0.0,0.0,0.0,0.0,0.0,0.0,0.0,0.0,0.0,0.0,0.0,0.0,0.0,0.0,0.0,0.0,0.0,0.0,0.0,0.0,0.0,0.0,0.0,0.0,-4.9001,-4.9001,-4.9001,-4.9001,-4.9001,-4.9001,-4.9001,-4.9644,-5.1116,-5.1153,0.0,0.0,0.0,0.0,0.0,0.0,0.0,0.0,0.0,0.0,0.0,0.0,0.0,0.0,0.0,0.0,0.0,0.0,0.0,0.0,0.0,0.0,0.0,0.0,0.0,0.0,0.0,0.0,0.0,0.0,0.0,0.0,0.0,0.0,0.0,0.0,0.0,0.0,0.0,0.0,0.0,0.0,0.0,0.0,0.0,0.0,0.0,0.0,0.0,0.0,0.0,0.0,0.0,0.0,0.0,0.0,0.0,0.0,0.0,0.0,0.0,0.0,0.0,0.0,0.0,0.0,0.0,0.0,0.0,0.0,0.0,0.0,0.0,0.0,0.0,0.0,0.0,0.0,0.0,0.0,0.0,0.0,0.0,0.0,0.0,0.0,0.0,0.0,0.0,0.0,0.0,0.0,0.0,0.0,0.0,0.0,0.0,0.0,0.0,0.0,0.0,0.0,-4.9001,-4.9001,-4.9001,-4.9001,-4.9001,-4.9001,-4.9001,-4.9644,-5.1116,-5.1072,0.0,0.0,0.0,0.0,0.0,0.0,0.0,0.0,0.0,0.0,0.0,0.0,0.0,0.0,0.0,0.0,0.0,0.0,0.0,0.0,0.0,0.0,0.0,0.0,0.0,0.0,0.0,0.0,0.0,0.0,0.0,0.0,0.0,0.0,0.0,0.0,0.0,0.0,0.0,0.0,0.0,0.0,0.0,0.0,0.0,0.0,0.0,0.0,0.0,0.0,0.0,0.0,0.0,0.0,0.0,0.0,0.0,0.0,0.0,0.0,0.0,0.0,0.0,0.0,0.0,0.0,0.0,0.0,0.0,0.0,0.0,0.0,0.0,0.0,0.0,0.0,0.0,0.0,0.0,0.0,0.0,0.0,0.0,0.0,0.0,0.0,0.0,0.0,0.0,0.0,0.0,0.0,0.0,0.0,0.0,0.0,0.0,0.0,0.0,0.0,0.0,0.0,-4.9678,-4.9678,0.0,-5.0101,-5.0388,-5.0388,-5.0388,-5.0828,-5.1826,0.0,0.0,0.0,0.0,0.0,0.0,0.0,0.0,0.0,0.0,0.0,0.0,0.0,0.0,0.0,0.0,0.0,0.0,0.0,0.0,0.0,0.0,0.0,0.0,0.0,0.0,0.0,0.0,0.0,0.0,0.0,0.0,0.0,0.0,0.0,0.0,0.0,0.0,0.0,0.0,0.0,0.0,0.0,0.0,0.0,0.0,0.0,0.0,0.0,0.0,0.0,0.0,0.0,0.0,0.0,0.0,0.0,0.0,0.0,0.0,0.0,0.0,0.0,0.0,0.0,0.0,0.0,0.0,0.0,0.0,0.0,0.0,0.0,0.0,0.0,0.0,0.0,0.0,0.0,0.0,0.0,0.0,0.0,0.0,0.0,0.0,0.0,0.0,0.0,0.0,0.0,0.0,0.0,0.0,0.0,0.0,0.0,0.0,0.0,0.0,0.0,0.0,-5.0321,-5.0236,-5.0185,0.0,-5.0913,-5.1185,-5.1185,-5.1185,-5.1506,-5.2184,0.0,0.0,0.0,0.0,0.0,0.0,0.0,0.0,0.0,0.0,0.0,0.0,0.0,0.0,0.0,0.0,0.0,0.0,0.0,0.0,0.0,0.0,0.0,0.0,0.0,0.0,0.0,0.0,0.0,0.0,0.0,0.0,0.0,0.0,0.0,0.0,0.0,0.0,0.0,0.0,0.0,0.0,0.0,0.0,0.0,0.0,0.0,0.0,0.0,0.0,0.0,0.0,0.0,0.0,0.0,0.0,0.0,0.0,0.0,0.0,0.0,0.0,0.0,0.0,0.0,0.0,0.0,0.0,0.0,0.0,0.0,0.0,0.0,0.0,0.0,0.0,0.0,0.0,0.0,0.0,0.0,0.0,0.0,0.0,0.0,0.0,0.0,0.0,0.0,0.0,0.0,0.0,0.0,0.0,0.0,0.0,0.0,0.0,0.0,0.0,0.0,0.0,-5.0999,-5.0574,-5.0388,-5.1117,-5.1202,-5.1219,-5.1202,-5.1202,-5.1458,0.0,0.0,0.0,0.0,0.0,0.0,0.0,0.0,0.0,0.0,0.0,0.0,0.0,0.0,0.0,0.0,0.0,0.0,0.0,0.0,0.0,0.0,0.0,0.0,0.0,0.0,0.0,0.0,0.0,0.0,0.0,0.0,0.0,0.0,0.0,0.0,0.0,0.0,0.0,0.0,0.0,0.0,0.0,0.0,0.0,0.0,0.0,0.0,0.0,0.0,0.0,0.0,0.0,0.0,0.0,0.0,0.0,0.0,0.0,0.0,0.0,0.0,0.0,0.0,0.0,0.0,0.0,0.0,0.0,0.0,0.0,0.0,0.0,0.0,0.0,0.0,0.0,0.0,0.0,0.0,0.0,0.0,0.0,0.0,0.0,0.0,0.0,0.0,0.0,0.0,0.0,0.0,0.0,0.0,0.0,0.0,0.0,0.0,0.0,0.0,0.0,0.0,0.0,-5.186,-5.1792,-5.1725,-5.1961,-5.2486,-5.2757,-5.2623,-5.2134,-5.2051,-5.262,0.0,0.0,0.0,0.0,0.0,0.0,0.0,0.0,0.0,0.0,0.0,0.0,0.0,0.0,0.0,0.0,0.0,0.0,0.0,0.0,0.0,0.0,0.0,0.0,0.0,0.0,0.0,0.0,0.0,0.0,0.0,0.0,0.0,0.0,0.0,0.0,0.0,0.0,0.0,0.0,0.0,0.0,0.0,0.0,0.0,0.0,0.0,0.0,0.0,0.0,0.0,0.0,0.0,0.0,0.0,0.0,0.0,0.0,0.0,0.0,0.0,0.0,0.0,0.0,0.0,0.0,0.0,0.0,0.0,0.0,0.0,0.0,0.0,0.0,0.0,0.0,0.0,0.0,0.0,0.0,0.0,0.0,0.0,0.0,0.0,0.0,0.0,0.0,0.0,0.0,0.0,0.0,0.0,0.0,0.0,0.0,0.0,0.0,0.0,0.0,0.0,0.0,-5.2638,-5.2503,-5.2385,-5.2623,-5.3095,-5.3314,-5.311,-5.2387,-5.2084,-5.2331,0.0,0.0,0.0,0.0,0.0,0.0,0.0,0.0,0.0,0.0,0.0,0.0,0.0,0.0,0.0,0.0,0.0,0.0,0.0,0.0,0.0,0.0,0.0,0.0,0.0,0.0,0.0,0.0,0.0,0.0,0.0,0.0,0.0,0.0,0.0,0.0,0.0,0.0,0.0,0.0,0.0,0.0,0.0,0.0,0.0,0.0,0.0,0.0,0.0,0.0,0.0,0.0,0.0,0.0,0.0,0.0,0.0,0.0,0.0,0.0,0.0,0.0,0.0,0.0,0.0,0.0,0.0,0.0,0.0,0.0,0.0,0.0,0.0,0.0,0.0,0.0,0.0,0.0,0.0,0.0,0.0,0.0,0.0,0.0,0.0,0.0,0.0,0.0,0.0,0.0,0.0,0.0,0.0,0.0,0.0,0.0,0.0,0.0,0.0,0.0,0.0,0.0,-5.3281,-5.2825,-5.2572,-5.3111,-5.3179,-5.3042,-5.2768,-5.2082,-5.1579,-5.139,0.0,0.0,0.0,0.0,0.0,0.0,0.0,0.0,0.0,0.0,0.0,0.0,0.0,0.0,0.0,0.0,0.0,0.0,0.0,0.0,0.0,0.0,0.0,0.0,0.0,0.0,0.0,0.0,0.0,0.0,0.0,0.0,0.0,0.0,0.0,0.0,0.0,0.0,0.0,0.0,0.0,0.0,0.0,0.0,0.0,0.0,0.0,0.0,0.0,0.0,0.0,0.0,0.0,0.0,0.0,0.0,0.0,0.0,0.0,0.0,-5.8119,0.0,0.0,0.0,0.0,0.0,0.0,0.0,0.0,0.0,0.0,0.0,0.0,0.0,0.0,0.0,0.0,0.0,0.0,0.0,0.0,0.0,0.0,0.0,0.0,0.0,0.0,0.0,0.0,0.0,0.0,0.0,0.0,0.0,0.0,0.0,0.0,0.0,0.0,0.0,0.0,0.0,-5.3247,-5.3112,-5.301,-5.2956,-5.2972,-5.2634,-5.1877,-5.1143,-5.0625,-5.0504,0.0,0.0,0.0,0.0,0.0,0.0,0.0,0.0,0.0,0.0,0.0,0.0,0.0,0.0,0.0,0.0,0.0,0.0,0.0,0.0,0.0,0.0,0.0,0.0,0.0,0.0,0.0,0.0,0.0,0.0,0.0,0.0,0.0,0.0,0.0,0.0,0.0,0.0,0.0,0.0,0.0,0.0,0.0,0.0,0.0,0.0,0.0,0.0,0.0,0.0,0.0,0.0,0.0,0.0,0.0,0.0,0.0,0.0,0.0,0.0,0.0,-5.7997,0.0,0.0,0.0,0.0,0.0,0.0,0.0,0.0,0.0,0.0,0.0,0.0,0.0,0.0,0.0,0.0,0.0,0.0,0.0,0.0,0.0,0.0,0.0,0.0,0.0,0.0,0.0,0.0,0.0,0.0,0.0,0.0,0.0,0.0,0.0,0.0,0.0,0.0,0.0,0.0,-5.3076,-5.3041,-5.2838,-5.2314,-5.223,-5.1877,-5.0938,-5.0207,-4.9758,-4.969,-4.9326,0.0,0.0,0.0,0.0,0.0,0.0,0.0,0.0,0.0,0.0,0.0,0.0,0.0,0.0,0.0,0.0,0.0,0.0,0.0,0.0,0.0,0.0,0.0,0.0,0.0,0.0,0.0,0.0,0.0,0.0,0.0,0.0,0.0,0.0,0.0,0.0,0.0,0.0,0.0,0.0,0.0,0.0,0.0,0.0,0.0,0.0,0.0,0.0,0.0,0.0,0.0,0.0,0.0,0.0,-5.9084,-5.8988,-5.8648,-5.85,-5.8479,-5.8142,-5.7997,-5.7997,0.0,0.0,0.0,0.0,0.0,0.0,0.0,0.0,0.0,0.0,0.0,0.0,0.0,0.0,0.0,0.0,0.0,0.0,0.0,0.0,0.0,0.0,0.0,0.0,0.0,-5.3501,-5.3315,0.0,0.0,0.0,0.0,0.0,0.0,0.0,0.0,0.0,0.0,0.0,0.0,-5.2701,-5.265,-5.2296,-5.1374,-5.1273,-5.0921,-5.0071,-4.9458,-4.9061,-4.8928,-4.8912,-4.8647,0.0,0.0,0.0,0.0,0.0,0.0,0.0,0.0,0.0,0.0,0.0,0.0,0.0,0.0,0.0,0.0,0.0,0.0,0.0,0.0,0.0,0.0,0.0,0.0,0.0,0.0,0.0,0.0,0.0,0.0,0.0,0.0,-6.0666,-6.0781,0.0,0.0,0.0,0.0,0.0,0.0,0.0,0.0,0.0,0.0,0.0,0.0,0.0,0.0,-6.0103,-5.9884,-5.9431,-5.8775,-5.8891,-5.8688,-5.816,-5.8115,-5.807,-5.807,-5.802,0.0,-5.7997,-5.7997,0.0,0.0,0.0,0.0,0.0,0.0,0.0,0.0,0.0,0.0,0.0,0.0,0.0,0.0,0.0,0.0,0.0,0.0,0.0,0.0,0.0,0.0,-5.3501,-5.3501,-5.3501,-5.3467,0.0,-5.2723,-5.2147,-5.2147,0.0,0.0,0.0,0.0,0.0,0.0,0.0,0.0,-5.1776,-5.1692,-5.1357,-5.0453,-5.0387,-5.0055,-4.9326,-4.9177,-4.8845,-4.8199,-4.815,-4.81,-4.8001,-4.81,0.0,0.0,0.0,0.0,0.0,0.0,0.0,0.0,0.0,0.0,0.0,0.0,0.0,0.0,0.0,0.0,0.0,0.0,0.0,0.0,0.0,0.0,0.0,0.0,0.0,0.0,0.0,0.0,0.0,-6.0788,-6.08,-6.08,-6.08,-6.08,0.0,0.0,0.0,0.0,0.0,0.0,0.0,0.0,0.0,-6.08,-6.0293,-5.9996,-5.9927,-5.9325,-5.8848,-5.8537,-5.8434,-5.8257,-5.7997,-5.7997,-5.7997,-5.7997,-5.7997,-5.7997,-5.7997,-5.7997,-5.7997,-5.7997,0.0,0.0,0.0,0.0,0.0,-5.7577,-5.7289,0.0,0.0,0.0,0.0,0.0,0.0,0.0,0.0,0.0,0.0,0.0,0.0,0.0,0.0,-5.3501,-5.3501,-5.3501,-5.3501,-5.3146,-5.2825,0.0,-5.2218,-5.1882,-5.2437,0.0,0.0,0.0,0.0,0.0,-5.1486,-5.1768,-5.17,-5.0883,-5.0817,-5.0353,-4.921,-4.911,-4.8796,-4.805,-4.8001,-4.8001,-4.8001,-4.8001,-4.8001,0.0,0.0,0.0,0.0,0.0,0.0,0.0,0.0,0.0,0.0,0.0,0.0,0.0,0.0,0.0,0.0,0.0,0.0,0.0,0.0,0.0,0.0,0.0,0.0,0.0,0.0,0.0,0.0,-6.08,-6.08,-6.08,-6.08,-6.08,0.0,0.0,0.0,0.0,0.0,0.0,-6.08,-6.0722,-6.0666,-6.0666,-6.0011,-5.9622,-5.9571,-5.8806,-5.8375,-5.8305,-5.8129,-5.802,-5.7997,-5.7997,-5.7997,-5.7997,-5.7997,-5.7997,-5.7997,-5.7997,-5.7997,-5.7997,-5.7997,-5.7973,0.0,-5.7697,-5.7577,-5.7528,-5.7264,-5.7188,-5.7188,-5.7188,0.0,-5.595,-5.5147,0.0,0.0,0.0,0.0,-5.3501,-5.3501,0.0,-5.3501,-5.3501,-5.3467,-5.3416,-5.3416,-5.328,-5.3144,0.0,-5.2741,-5.2421,-5.2768,0.0,0.0,0.0,0.0,-5.2144,-5.1398,-5.1796,-5.1862,-5.1116,-5.0999,-5.0568,-4.9475,-4.9392,-4.916,-4.8597,-4.8398,-4.8282,-4.8282,-4.81,-4.8001,-4.8001,0.0,0.0,0.0,0.0,0.0,0.0,0.0,0.0,0.0,0.0,0.0,0.0,0.0,0.0,0.0,0.0,0.0,0.0,0.0,0.0,0.0,0.0,0.0,0.0,0.0,0.0,0.0,0.0,0.0,-6.08,-6.08,0.0,0.0,0.0,0.0,-6.08,-6.08,-6.08,-6.08,-6.0507,-6.0321,-6.0321,-5.962,-5.914,-5.895,-5.8642,-5.8338,-5.802,-5.8152,-5.8111,-5.7997,-5.7997,-5.7997,-5.7997,-5.7997,-5.7997,-5.7997,-5.7997,-5.7997,-5.7997,-5.7997,-5.7909,-5.7792,-5.7649,-5.7528,-5.7406,-5.7257,-5.7188,-5.7188,-5.7188,-5.6402,-5.5207,-5.398,-5.3568,0.0,0.0,-5.3501,-5.3501,-5.3501,-5.3501,-5.3501,-5.3501,-5.3332,-5.323,-5.323,-5.3041,-5.2972,0.0,-5.3025,-5.28,-5.2659,0.0,-5.2503,-5.2359,-5.2393,-5.2144,-5.1398,-5.1348,-5.1048,-5.0336,-5.027,-5.0237,-5.0171,-5.0154,-5.0137,-5.0104,-4.9442,-4.9044,-4.9044,-4.8382,-4.8001,-4.8001,-4.8001,0.0,0.0,0.0,0.0,0.0,0.0,0.0,0.0,0.0,0.0,0.0,0.0,0.0,0.0,0.0,0.0,0.0,0.0,0.0,0.0,0.0,0.0,0.0,0.0,0.0,0.0,0.0,0.0,-6.08,-6.08,0.0,0.0,-6.08,-6.08,-6.08,-6.08,-6.08,-6.08,-6.0475,-6.0293,-6.0293,-5.9535,-5.9102,-5.9026,-5.8556,-5.8246,-5.8129,-5.8106,-5.8042,-5.7997,-5.7997,-5.7997,-5.7997,-5.7997,-5.7997,-5.7997,-5.7997,-5.7997,-5.7997,-5.7997,-5.7973,-5.7886,-5.7673,-5.7577,-5.7504,-5.7282,-5.7188,-5.7069,-5.624,-5.5727,-5.5147,-5.3899,-5.3501,-5.3501,-5.3501,-5.3501,-5.3501,-5.3501,-5.3501,-5.3501,-5.3501,-5.3348,-5.3179,-5.3179,-5.2938,-5.2729,-5.2799,-5.238,-5.2109,-5.2433,-5.2082,-5.1767,-5.1713,-5.2111,-5.2144,-5.1398,-5.173,-5.1893,-5.1628,-5.1612,-5.1413,-5.0932,-5.0899,-5.0701,-5.0237,-4.9955,-4.9607,-4.9127,-4.8862,-4.8382,-4.7638,-4.7621,-4.732,0.0,0.0,0.0,0.0,0.0,0.0,0.0,0.0,0.0,0.0,0.0,0.0,0.0,0.0,0.0,0.0,0.0,0.0,0.0,0.0,0.0,0.0,0.0,0.0,0.0,0.0,-6.08,-6.08,-6.08,-6.08,-6.08,-6.08,-6.08,-6.08,-6.08,-6.0746,-6.0641,-6.0307,-6.0072,-5.9927,-5.9289,-5.9057,-5.9277,-5.8853,-5.8753,-5.8938,-5.8851,-5.8804,-5.8804,-5.8804,-5.8657,-5.84,-5.84,-5.8253,-5.7997,-5.7997,-5.7997,-5.7997,-5.7997,-5.7973,-5.7904,-5.7673,-5.7577,-5.7504,-5.7282,-5.7061,-5.6714,-5.5652,-5.5201,-5.4874,-5.3833,-5.3501,-5.3501,-5.3501,-5.3501,-5.3501,-5.3501,-5.3501,-5.3501,-5.3501,-5.3298,-5.311,-5.311,-5.2816,-5.2535,-5.2535,-5.2136,-5.1934,-5.2326,-5.2011,-5.168,-5.168,-5.2111,-5.2243,-5.1746,-5.2111,-5.2409,-5.2409,-5.2409,-5.221,-5.173,-5.168,-5.1446,-5.0982,-5.0717,-5.0353,-4.9856,-4.9607,-4.8942,-4.7781,-4.706,-4.6636,-4.6407,0.0,0.0,0.0,0.0,0.0,0.0,0.0,0.0,0.0,0.0,0.0,0.0,0.0,0.0,0.0,0.0,0.0,0.0,0.0,0.0,0.0,0.0,0.0,-6.08,-6.08,-6.08,-6.08,-6.08,-6.08,-6.08,-6.08,-6.08,-6.0788,-6.0769,-6.0641,-6.0293,-5.9984,-5.9626,-5.9253,-5.8941,-5.9035,-5.9612,-5.963,-5.9905,-6.0401,-6.0401,-6.0401,-6.0401,-6.0401,-5.9979,-5.9239,-5.9239,-5.8804,-5.807,-5.807,-5.8052,-5.8033,-5.7997,-5.7927,-5.7768,-5.7649,-5.751,-5.7381,-5.7257,-5.6811,-5.6229,-5.5589,-5.4948,-5.4313,-5.3701,-5.3501,-5.3501,-5.3501,-5.3501,-5.3501,-5.3501,-5.3501,-5.3501,-5.3501,-5.3212,-5.2903,-5.2903,-5.264,-5.2409,-5.2409,-5.2409,-5.2409,-5.2409,-5.2409,-5.2409,-5.2409,-5.2409,0.0,-5.2409,-5.2409,-5.2409,-5.2409,-5.2409,-5.2409,-5.2409,-5.2409,-5.2409,-5.2409,-5.1746,-5.1332,-5.128,-5.0618,-4.9651,-4.8484,-4.6474,-4.5421,-4.5369,0.0,0.0,0.0,0.0,0.0,0.0,0.0,0.0,0.0,0.0,0.0,0.0,0.0,0.0,0.0,0.0,0.0,0.0,0.0,0.0,0.0,0.0,-6.08,-6.08,-6.08,-6.08,-6.08,-6.08,-6.08,-6.08,-6.08,-6.071,-6.0449,-6.0436,-6.0293,-5.995,-6.0176,-6.0247,-6.0154,-6.0294,-6.0396,-6.0461,-6.0374,-6.0346,-6.0401,-6.0401,-6.0401,-6.0401,-6.0401,-6.0291,-6.007,-6.007,-5.9942,-5.974,-5.974,-5.941,-5.8822,-5.8235,-5.7927,-5.7768,-5.7649,-5.7437,-5.7257,-5.7213,-5.7087,-5.6767,-5.568,-5.5231,-5.4935,-5.3816,-5.3501,-5.3501,-5.3501,-5.3501,-5.3501,-5.3501,-5.3501,-5.3467,-5.3298,-5.3093,-5.2868,-5.2694,-5.2535,-5.2409,-5.2409,-5.2409,-5.2409,-5.2409,-5.2409,-5.2409,-5.2409,0.0,0.0,-5.2409,-5.2409,-5.2409,-5.2409,-5.2409,-5.2409,-5.2409,-5.2409,-5.2409,0.0,-5.2227,-5.1721,-5.0892,-5.0678,-4.9654,-4.7745,-4.6855,-4.57,0.0,0.0,0.0,0.0,0.0,0.0,0.0,0.0,0.0,0.0,0.0,0.0,0.0,0.0,0.0,0.0,0.0,0.0,0.0,0.0,0.0,0.0,-6.08,-6.08,-6.08,-6.08,-6.08,-6.08,-6.08,-6.08,-6.08,-6.0666,-6.0572,-6.0501,-6.0251,-6.0148,-6.0302,-6.0432,-6.0584,-6.0781,-6.0973,-6.1159,-6.1292,-6.1223,-6.1272,-6.141,-6.141,-6.141,-6.141,-6.141,-6.1227,0.0,-6.0896,-6.0713,-6.0401,-6.0401,-6.0126,0.0,0.0,0.0,0.0,0.0,-5.7363,-5.7188,-5.7188,-5.7036,-5.6688,-5.5953,-5.5379,-5.4826,-5.4091,-5.3701,-5.3501,-5.3501,-5.3501,-5.3501,-5.3501,-5.3433,-5.3348,-5.323,-5.2972,-5.2729,-5.264,-5.2499,-5.2409,-5.2409,0.0,0.0,-5.2409,-5.2409,-5.2409,-5.2409,-5.2409,-5.2409,0.0,-5.2409,-5.2409,-5.2409,-5.2409,-5.2409,-5.2409,-5.2409,0.0,0.0,0.0,-5.1763,-5.0921,-5.0428,0.0,0.0,0.0,-4.615,0.0,0.0,0.0,0.0,-4.2176,-4.1889,0.0,0.0,0.0,0.0,0.0,0.0,0.0,0.0,0.0,0.0,0.0,0.0,0.0,0.0,0.0,0.0,-6.08,-6.08,-6.08,-6.08,-6.08,-6.08,-6.08,-6.0788,-6.0746,-6.052,-6.0474,-6.0751,-6.0254,-6.0234,-6.0982,0.0,0.0,0.0,0.0,-6.1667,-6.2118,-6.2229,-6.2498,-6.297,-6.3044,-6.3074,-6.3074,-6.3007,-6.2567,-6.1869,-6.1777,-6.1337,-6.0676,-6.0676,-6.0621,-6.0456,-5.9619,-5.8723,-5.7891,-5.7607,-5.7379,0.0,0.0,0.0,0.0,-5.6257,-5.5437,-5.4485,-5.4345,-5.3913,-5.3501,-5.3501,-5.3501,-5.3501,-5.3467,-5.3332,-5.3179,-5.3144,-5.2868,-5.2605,-5.257,-5.2464,-5.2409,-5.2409,-5.2409,-5.2409,-5.2409,-5.2409,-5.2409,-5.2409,-5.2409,0.0,-5.2409,-5.2409,-5.2409,-5.2409,0.0,0.0,-5.2409,-5.2409,-5.2409,-5.2409,-5.1961,-5.1524,-5.1043,-5.0069,-4.9511,-4.9431,-4.7917,-4.6734,-4.5889,-4.4755,-4.3849,-4.3097,-4.2424,-4.2092,0.0,0.0,0.0,0.0,0.0,0.0,0.0,0.0,0.0,0.0,0.0,0.0,0.0,0.0,0.0,-6.08,-6.08,-6.08,-6.08,-6.08,-6.08,-6.08,-6.08,-6.0678,-6.0422,-6.0572,-6.0663,-6.0571,-6.0694,-6.088,-6.1166,-6.1731,0.0,-6.2171,-6.2803,-6.3076,-6.2973,-6.3619,-6.3898,-6.3851,0.0,0.0,-6.4806,-6.4145,-6.3759,-6.3576,-6.2879,-6.2493,-6.2321,-6.2321,-6.1961,-6.1257,-6.0255,-5.9328,-5.8567,-5.8293,-5.7775,-5.7188,-5.7188,-5.7112,-5.6863,-5.5904,-5.5414,-5.5026,-5.3996,-5.3584,0.0,-5.3501,-5.3501,-5.3467,-5.3298,-5.323,-5.311,-5.2799,-5.2676,-5.257,-5.248,-5.2409,-5.2409,-5.2409,-5.2409,-5.2409,-5.2409,-5.2409,-5.2409,-5.2409,-5.2409,-5.2409,-5.2409,-5.2409,-5.2409,-5.2409,-5.2409,-5.2409,-5.2409,-5.2409,-5.2409,-5.2409,-5.1672,-5.1059,-5.0624,-5.0087,-4.9575,-4.9043,-4.8653,-4.7645,-4.5879,-4.5637,-4.4937,-4.38,-4.2613,-4.2092,0.0,0.0,0.0,0.0,0.0,0.0,0.0,0.0,0.0,0.0,0.0,-5.9627,0.0,0.0,-6.08,-6.08,-6.0654,-6.0616,-6.0788,-6.0654,-6.0616,-6.0788,-6.08,-6.0734,-6.0559,-6.0759,-6.0932,-6.0984,-6.1053,-6.137,-6.2008,-6.2262,-6.2784,-6.3583,-6.401,-6.4262,-6.445,-6.4857,-6.4937,-6.4714,-6.5118,-6.5319,-6.5301,-6.4879,-6.4695,-6.4659,-6.3815,-6.3447,-6.3429,-6.2989,-6.2567,-6.2138,-6.1459,-6.0464,-5.9381,-5.9103,-5.8746,-5.8347,-5.7949,-5.7588,-5.7182,-5.6169,-5.5426,-5.4765,-5.4156,-5.3717,-5.3501,-5.3501,-5.3501,-5.3467,-5.3264,-5.311,-5.2972,-5.2659,-5.257,-5.248,-5.2409,-5.2409,-5.2409,-5.2409,-5.2409,-5.2409,-5.2409,-5.2409,-5.2409,-5.2409,-5.2409,-5.2409,-5.2409,-5.2409,-5.2409,-5.2409,-5.2409,-5.2409,-5.2409,-5.223,-5.1997,-5.1745,-5.1156,-5.0624,-5.023,-4.9995,-4.9758,-4.941,-4.941,-4.8576,-4.692,-4.658,-4.5755,-4.4449,-4.3496,-4.2861,0.0,0.0,0.0,0.0,0.0,0.0,0.0,0.0,-5.6791,-5.6975,-5.8215,-5.9319,-5.9507,-6.0246,-6.08,-6.0734,-6.0559,-6.0462,-6.0585,-6.0436,-6.0409,-6.0666,-6.0757,-6.0779,-6.075,-6.0974,-6.127,-6.1657,-6.1599,-6.1962,-6.2977,-6.2923,-6.3472,-6.4749,-6.4953,-6.5245,-6.5688,-6.5854,-6.5803,-6.554,-6.5705,-6.5778,-6.576,-6.5613,-6.554,-6.5503,-6.4677,-6.4237,-6.4035,-6.3337,-6.297,-6.2755,-6.2519,-6.1613,-6.042,-5.9992,-5.9742,-5.9524,-5.8854,-5.8232,-5.756,-5.6637,-5.5548,-5.4566,-5.4301,-5.3898,-5.3501,-5.3501,-5.3501,-5.3433,-5.3195,-5.3007,-5.2834,-5.2605,-5.248,-5.2409,-5.2409,-5.2409,-5.2409,-5.2409,-5.2409,-5.2409,-5.2409,-5.2409,-5.2409,-5.2409,-5.2409,-5.2409,-5.2409,-5.2409,-5.2409,-5.2409,-5.2409,-5.2373,-5.2302,-5.2013,-5.1577,-5.1005,-5.0663,-5.0331,-4.9931,-4.9876,-4.9876,-4.9876,-4.9797,-4.9115,-4.791,-4.728,-4.6341,-4.5058,-4.4456,-4.3819,-5.5403,-5.5403,-5.542,-5.5492,-5.5551,-5.5618,0.0,0.0,-5.609,-5.6922,-5.7813,-5.8699,-5.9528,-6.0335,-6.0793,-6.0501,-6.0659,-6.061,-5.9996,-6.015,-6.0307,-6.0349,-6.0629,-6.0723,-6.0541,-6.1096,-6.1695,-6.2267,-6.2541,-6.2953,-6.3505,-6.4163,-6.46,-6.4786,-6.5552,-6.588,-6.5688,-6.6408,-6.6632,-6.6366,-6.7081,-6.7412,-6.7393,-6.6678,-6.6366,-6.6329,-6.5521,-6.4769,-6.409,-6.398,-6.3503,-6.2755,-6.2519,-6.2279,-6.1998,-6.1044,-6.0212,-5.9597,-5.9506,-5.9015,-5.8267,-5.6911,-5.5972,-5.5159,-5.3954,-5.3551,-5.3501,-5.3501,-5.3501,-5.3433,-5.3024,-5.2903,-5.2799,-5.2516,-5.2409,-5.2409,-5.2409,-5.2409,-5.2409,-5.2409,-5.2409,-5.2409,-5.2409,-5.2409,-5.2409,-5.2409,-5.2409,-5.2409,-5.2409,-5.2409,-5.2409,-5.2409,-5.2409,-5.2266,-5.1888,-5.1815,-5.1466,-5.064,-5.0509,-5.0331,-4.9931,-4.9876,-4.9876,-4.9876,-4.9325,-4.8651,-4.7882,-4.7216,-4.6505,-4.5782,-4.5112,-4.4458,-5.5453,-5.5488,-5.5527,0.0,-5.5629,-5.5682,-5.5684,-5.5703,-5.581,-5.6197,-5.7362,-5.836,-5.8615,-5.9756,-6.0565,0.0,-6.0146,-6.0038,-5.9887,-5.9807,-5.9758,-5.9671,-6.0395,-6.0959,-6.1066,-6.1843,-6.2428,-6.267,-6.307,-6.3593,-6.427,-6.4619,-6.5255,-6.6216,-6.6611,-6.69,-6.7073,-6.7423,-6.7462,-6.7192,-6.7522,-6.7687,-6.7687,-6.7338,-6.6935,-6.6476,-6.6145,-6.554,-6.4806,-6.4806,-6.4241,-6.3368,-6.3187,-6.2763,-6.222,-6.1679,-6.1299,-6.0937,-6.0466,-5.9647,-5.8595,-5.756,-5.6475,-5.5434,-5.4449,-5.4143,-5.4042,-5.3619,-5.3433,-5.3264,-5.2972,-5.2799,-5.2659,-5.2445,-5.2409,-5.2409,-5.2409,-5.2409,-5.2409,-5.2409,-5.2409,-5.2409,-5.2409,-5.2409,-5.2409,-5.2409,-5.2409,-5.2409,-5.2409,-5.2409,-5.2409,-5.2409,-5.2194,-5.1961,-5.1815,-5.1355,-5.087,-5.0525,-5.0292,-5.0073,-4.9916,-4.9876,-4.9876,-4.9876,-4.9622,-4.8944,-4.7904,-4.7621,-4.6945,-4.588,-4.559,-4.5329,-5.5468,-5.5551,0.0,-5.5651,-5.5692,-5.5673,-5.5607,-5.5596,-5.5573,-5.5489,-5.6652,-5.7683,-5.7735,-5.8978,-5.996,-5.9931,-5.9774,-5.9639,-5.9624,-5.9486,-5.9438,-5.9553,-6.0453,-6.127,-6.1831,-6.2502,-6.2946,-6.3087,-6.3612,-6.4173,-6.4768,-6.5232,-6.6054,-6.728,-6.7521,-6.779,-6.8114,-6.8114,-6.7959,-6.7687,-6.7687,-6.7687,-6.7687,-6.7687,-6.7375,-6.6824,-6.6824,-6.6366,-6.5632,-6.5632,-6.5058,-6.4095,-6.3744,-6.3174,-6.2485,-6.2123,-6.1996,-6.1906,-6.1126,-6.0118,-5.9036,-5.8059,-5.6946,-5.5886,-5.5124,-5.4905,-5.4752,-5.4008,-5.3652,-5.3413,-5.3005,-5.2729,-5.257,-5.2445,-5.2409,-5.2409,-5.2409,-5.2409,-5.2409,-5.2409,-5.2409,-5.2409,-5.2409,-5.2409,-5.2409,-5.2409,-5.2409,-5.2409,-5.2409,-5.2409,-5.2338,-5.223,-5.1961,-5.1704,-5.1466,-5.087,-5.0448,-5.0331,-5.0073,-4.9876,-4.9876,-4.9876,-4.9876,-4.9876,-4.9717,-4.9041,-4.7904,-4.7691,-4.7032,-4.588,-4.588,-4.588,-5.548,0.0,-5.5596,-5.5596,-5.564,-5.5629,-5.5364,-5.5314,-5.523,-5.4976,-5.554,-5.6356,-5.7234,-5.8094,-5.8846,-5.942,-5.9785,-5.9739,-5.9022,-5.9197,-5.9664,-6.0379,-6.0905,-6.1643,0.0,-6.2894,-6.3106,-6.3535,-6.4308,-6.4768,-6.4786,-6.6351,-6.7261,-6.7317,-6.8078,-6.8365,-6.8114,-6.8114,-6.7959,-6.7687,-6.7687,-6.7687,-6.7687,-6.7687,-6.7687,-6.765,-6.765,-6.721,-6.6457,-6.6457,-6.5865,-6.4864,-6.3945,-6.3502,-6.3248,-6.2322,-6.1996,-6.1905,-6.125,-6.0524,-5.9713,-5.8262,-5.7329,-5.663,-5.5902,-5.5683,-5.553,-5.4769,-5.4411,-5.4069,-5.3139,-5.2729,-5.257,-5.2445,-5.2409,-5.2409,-5.2409,-5.2409,-5.2409,-5.2409,-5.2409,-5.2409,-5.2409,-5.2409,-5.2409,-5.2409,-5.2409,-5.2409,-5.2409,-5.2409,-5.2266,-5.1851,-5.1815,-5.1466,-5.0602,-5.0525,-5.0331,-4.9955,-4.9916,-4.9876,-4.9876,-4.9876,-4.9876,-4.9876,-4.9269,-4.8599,-4.7904,-4.7249,-4.658,-4.588,-4.588,-4.588,-5.5504,0.0,-5.5401,-5.5401,-5.5256,-5.5078,-5.4981,-5.4966,-5.4938,-5.4851,-5.5909,-5.6899,-5.7035,-5.8242,-5.9178,-5.9178,-5.9345,-5.9345,-5.896,-5.9041,-5.9381,-6.0023,-6.0752,0.0,0.0,0.0,0.0,-6.3583,-6.434,-6.5046,-6.5645,-6.6704,-6.7317,-6.7317,-6.7577,-6.7326,-6.6525,-6.65,-6.6651,-6.6898,-6.743,-6.7687,-6.7687,-6.7687,-6.7687,-6.7687,-6.7687,-6.754,-6.7283,-6.7283,-6.6654,-6.5578,-6.4721,-6.3921,-6.3121,-6.1697,-6.0945,-6.0644,-6.0896,-6.0233,-5.9195,-5.87,-5.8082,-5.7391,-5.6664,-5.6444,-5.6292,-5.5547,-5.5065,-5.4632,-5.3842,-5.3375,-5.3009,-5.2525,-5.2409,-5.2409,-5.2409,-5.2409,-5.2409,-5.2409,-5.2409,-5.2409,-5.2409,-5.2409,-5.2409,-5.2409,-5.2409,-5.2409,-5.2409,-5.2409,-5.2338,-5.223,-5.1672,-5.121,-5.093,-5.0409,-5.0034,-4.9916,-4.9876,-4.9876,-4.9876,-4.9876,-4.9876,-4.9876,-4.9661,-4.8984,-4.7904,-4.7649,-4.6989,-4.588,-4.588,-4.588,-5.5256,-5.5191,-5.5124,-5.5124,-5.4952,-5.4761,-5.4654,-5.4623,-5.4591,-5.4463,-5.5287,-5.6193,-5.661,-5.7584,-5.8503,-5.889,-5.9061,-5.908,-5.892,-5.9224,-5.9651,-6.0298,-6.1113,0.0,0.0,0.0,0.0,-6.4006,-6.4809,-6.5515,-6.6072,-6.6871,-6.7187,-6.689,-6.6871,-6.6492,-6.5706,-6.5688,-6.5821,-6.609,-6.688,-6.7265,-6.7265,-6.7559,-6.7687,-6.7687,-6.7687,-6.7687,-6.7687,-6.7633,-6.714,-6.6335,-6.5478,-6.4348,-6.3037,-6.1734,-6.0316,-5.9213,-5.9964,-5.9464,-5.8513,-5.8513,-5.8263,-5.7797,-5.734,-5.7188,-5.7036,-5.6308,-5.5804,-5.5314,-5.4561,-5.3889,-5.3301,-5.2854,-5.2556,-5.2409,-5.2409,-5.2409,-5.2409,-5.2409,-5.2409,-5.2409,-5.2409,-5.2409,-5.2409,-5.2409,-5.2409,-5.2409,-5.2409,-5.2409,-5.2338,-5.2194,-5.1508,-5.1043,-5.0892,-5.0292,-4.9876,-4.9876,-4.9876,-4.9876,-4.9876,-4.9876,-4.9876,-4.9876,-4.9876,-4.9244,-4.7904,-4.7904,-4.7191,-4.588,-4.588,-4.588,-5.4776,-5.4776,-5.4776,-5.4776,-5.4761,-5.467,-5.4366,-5.4281,-5.4177,-5.387,-5.3831,-5.437,0.0,0.0,-5.6936,-5.8598,-5.8942,-5.8964,-5.8899,-5.9651,-6.0453,0.0,0.0,0.0,0.0,0.0,0.0,-6.473,0.0,-6.6035,-6.6035,-6.6815,-6.6871,-6.6072,-6.6035,-6.588,-6.5577,-6.5614,-6.5483,-6.5264,-6.6054,-6.6457,-6.6531,-6.7283,-6.765,-6.7687,-6.7687,-6.7687,-6.7687,-6.757,-6.7387,-6.7091,-6.6112,-6.47,-6.3092,-6.2177,-6.0031,-5.7719,-5.8412,-5.8229,-5.7706,-5.7812,-5.7831,-5.7831,-5.7881,-5.7881,-5.7746,-5.7053,-5.6561,-5.6101,-5.5347,-5.4339,-5.3516,-5.3434,-5.2904,-5.2423,-5.239,-5.2409,-5.2409,-5.2409,-5.2409,-5.2409,-5.2409,-5.2409,-5.2409,-5.2409,-5.2409,-5.2409,-5.2409,-5.2409,-5.2266,-5.1851,-5.1397,-5.0968,-5.0547,-5.0152,-4.9876,-4.9876,-4.9876,-4.9876,-4.9876,-4.9876,-4.9876,-4.9876,-4.9876,-4.9219,-4.7904,-4.7861,-4.7191,-4.588,-4.588,-4.588,-5.4731,-5.4576,-5.443,-5.443,-5.4246,-5.4017,-5.3944,-5.3926,-5.3889,-5.3813,-5.4296,-5.502,0.0,0.0,0.0,-5.857,-5.8884,0.0,-5.876,-5.9592,0.0,-6.1116,0.0,-6.2729,-6.3527,-6.3602,0.0,0.0,-6.5013,-6.5144,-6.5144,-6.5942,-6.6017,-6.5162,-6.5144,-6.4707,-6.3859,-6.4273,-6.446,-6.442,-6.5228,-6.5925,-6.6512,-6.6714,-6.7118,-6.7687,-6.7687,-6.7687,-6.7687,-6.757,-6.7387,-6.7064,-6.5494,-6.421,-6.2901,-6.0434,-5.8365,-5.6746,-5.6446,-5.6281,-5.6317,-5.6904,-5.707,-5.7171,-5.7729,-5.7881,-5.7848,-5.7662,-5.7429,-5.704,-5.6154,-5.5599,-5.4961,-5.3719,-5.3284,-5.3019,-5.2489,-5.2409,-5.2409,-5.2409,-5.2409,-5.2409,-5.2409,-5.2409,-5.2409,-5.2409,-5.2409,-5.2409,-5.2409,-5.2409,-5.2338,-5.2266,-5.1561,-5.1081,-5.0968,-5.0292,-4.9876,-4.9876,-4.9876,-4.9876,-4.9876,-4.9876,-4.9876,-4.9876,-4.9405,-4.8738,-4.7904,-4.7407,-4.6741,-4.588,-4.588,-4.588,-5.4193,-5.4052,-5.3963,-5.4018,-5.3907,-5.3774,-5.3793,-5.3813,-5.3813,-5.3813,-5.4166,0.0,-5.6079,0.0,0.0,0.0,0.0,0.0,-5.8799,-5.9868,-6.0802,0.0,-6.2227,0.0,-6.3565,-6.3602,-6.3806,0.0,-6.4582,-6.4786,-6.4786,-6.5274,-6.5144,-6.4308,-6.4289,-6.3929,-6.3213,-6.3407,-6.3521,-6.3539,-6.4365,-6.5007,-6.5466,-6.6182,-6.6751,-6.7173,0.0,-6.7687,-6.7687,-6.7451,-6.7094,-6.6544,-6.5474,-6.3846,-6.1914,-5.9952,-5.7859,-5.5909,-5.5251,-5.4885,-5.4921,-5.5987,-5.6325,-5.6461,-5.7188,-5.7408,-5.7476,-5.7797,-5.7698,-5.7338,-5.6824,-5.6229,-5.5435,-5.4179,-5.3649,-5.3218,-5.2523,-5.2409,-5.2409,-5.2409,-5.2409,-5.2409,-5.2409,-5.2409,-5.2409,-5.2409,-5.2409,-5.2409,-5.2409,-5.2409,-5.2338,-5.2158,-5.1508,-5.1043,-5.0854,-5.0253,-4.9876,-4.9876,-4.9876,-4.9876,-4.9876,-4.9876,-4.9876,-4.9876,-4.9228,-4.8558,-4.7904,-4.7249,-4.658,-4.588,-4.588,-4.588,-5.3519,-5.3499,-5.3519,-5.3656,-5.3675,-5.3695,-5.3755,-5.3793,-5.3793,-5.3813,0.0,-5.4314,-5.5986,-5.6302,-5.686,-5.8598,0.0,-5.8879,-5.8879,-6.0276,-6.1276,-6.1206,-6.2636,-6.3602,-6.3602,-6.3602,-6.3602,-6.3602,-6.4248,-6.4638,-6.4638,-6.4638,-6.4303,-6.3616,-6.3557,-6.3442,-6.3213,-6.2929,-6.278,-6.2798,-6.3576,-6.398,-6.4145,-6.565,-6.6402,-6.6531,0.0,0.0,-6.7687,-6.724,-6.6655,-6.5943,-6.548,-6.3454,-6.0711,-5.9892,-5.7836,-5.5296,-5.4534,-5.3946,-5.3737,-5.5124,-5.5564,-5.57,-5.6444,-5.6731,-5.6934,-5.756,-5.754,-5.7327,-5.7327,-5.6575,-5.5554,-5.4709,-5.403,-5.3351,-5.2556,-5.2409,-5.2409,-5.2409,-5.2409,-5.2409,-5.2409,-5.2409,-5.2409,-5.2409,-5.2409,-5.2409,-5.2409,-5.2338,-5.2194,-5.1851,-5.1322,-5.0892,-5.0525,-5.0136,-4.9876,-4.9876,-4.9876,-4.9876,-4.9876,-4.9876,-4.9876,-4.9876,-4.9147,-4.8475,-4.7904,-4.7119,-4.6447,-4.588,-4.588,-4.588,-5.3519,-5.3499,-5.3519,-5.3519,-5.3539,-5.3578,-5.3695,-5.3715,0.0,0.0,-5.3813,-5.4314,-5.5986,-5.6302,-5.6822,-5.8477,-5.8838,-5.8859,-5.8758,0.0,-6.1276,0.0,0.0,0.0,0.0,0.0,0.0,0.0,0.0,0.0,-6.3825,-6.3825,-6.3728,-6.3602,-6.3377,-6.3237,-6.3213,-6.2929,-6.278,-6.278,-6.297,-6.3411,-6.4127,-6.5081,-6.587,-6.6531,0.0,0.0,-6.7632,-6.6747,-6.6226,-6.5861,-6.4357,-6.2568,-6.0585,-5.8769,-5.6909,-5.5154,-5.4044,-5.3584,-5.3653,-5.4499,-5.4786,-5.4921,-5.5683,-5.6325,-5.6833,-5.6951,-5.728,-5.7514,-5.7327,-5.7039,-5.6395,-5.4862,-5.439,-5.3964,-5.2672,-5.2409,-5.2409,-5.2409,-5.2409,-5.2409,-5.2409,-5.2409,-5.2409,-5.2409,-5.2409,-5.2409,-5.2409,-5.2122,-5.1888,-5.1815,-5.1075,-5.0602,-5.0525,-5.0136,-4.9876,-4.9876,-4.9876,-4.9876,-4.9876,-4.9876,-4.9876,-4.9876,-4.8697,-4.803,-4.7904,-4.6682,-4.6015,-4.588,-4.588,-4.588,-5.3336,-5.3355,-5.3355,-5.338,-5.34,-5.342,-5.3578,0.0,0.0,0.0,-5.3735,-5.4255,-5.5966,-5.6302,0.0,-5.8518,-5.8799,-5.8797,-5.8799,0.0,0.0,0.0,0.0,0.0,0.0,0.0,0.0,0.0,0.0,0.0,-6.3602,-6.3602,-6.3557,-6.3511,-6.3307,-6.3165,-6.3099,-6.2904,-6.278,-6.278,-6.278,-6.3025,-6.3466,-6.4732,-6.5521,-6.5944,0.0,0.0,-6.7026,-6.6444,-6.5633,-6.4621,-6.3293,-6.1724,-5.9934,-5.7842,-5.6345,-5.5172,-5.3931,-5.3501,-5.3568,-5.3907,-5.4025,-5.416,-5.4905,-5.5378,-5.5801,-5.6472,-5.6763,-5.6915,-5.7114,-5.6987,-5.643,-5.4858,-5.3947,-5.3218,-5.2539,-5.2409,-5.2409,-5.2409,-5.2409,-5.2409,-5.2409,-5.2409,-5.2409,-5.2409,-5.2409,-5.2409,-5.2409,-5.205,-5.1704,-5.145,-5.087,-5.0409,-5.0214,-4.9995,-4.9876,-4.9876,-4.9876,-4.9876,-4.9876,-4.9876,-4.9876,-4.9876,-4.8573,-4.7904,-4.7904,-4.655,-4.588,-4.588,-4.588,-4.588,-5.3227,-5.3185,-5.3206,-5.3274,-5.3277,-5.3297,-5.342,-5.3459,0.0,0.0,-5.3675,-5.4215,-5.5946,-5.6282,-5.686,0.0,-5.8758,-5.8737,-5.8838,0.0,0.0,0.0,0.0,0.0,0.0,0.0,0.0,0.0,0.0,0.0,0.0,-6.3579,-6.3511,-6.34,-6.3237,-6.3099,-6.3002,-6.2855,-6.278,-6.278,-6.278,-6.278,-6.2853,-6.4549,-6.5319,-6.5393,0.0,0.0,0.0,-6.5913,-6.4774,-6.3254,-6.2311,-6.0791,-5.8943,-5.7164,-5.5957,-5.5026,-5.3882,-5.3501,-5.3501,-5.3501,-5.3501,-5.3619,-5.4194,-5.4465,-5.4836,-5.6012,-5.6284,-5.6332,-5.6917,-5.6756,-5.6084,-5.4626,-5.3301,-5.2409,-5.2409,-5.2409,-5.2359,-5.221,-5.2177,-5.2127,-5.1943,-5.191,-5.1959,-5.2161,-5.2177,-5.2243,-5.2393,-5.1961,-5.1524,-5.1156,-5.0739,-5.0331,-4.9916,-4.9876,-4.9876,-4.9876,-4.9876,-4.9876,-4.9876,-4.9876,-4.9876,-4.9876,-4.8573,-4.7904,-4.7904,-4.655,-4.588,-4.588,-4.588,-4.588,-5.3206,-5.3185,-5.3206,-5.3206,-5.3206,-5.323,-5.3297,0.0,-5.3359,-5.3499,-5.3616,-5.4195,-5.5808,-5.6223,-5.684,-5.8438,0.0,-5.8698,0.0,0.0,0.0,0.0,0.0,0.0,0.0,0.0,0.0,0.0,0.0,0.0,0.0,-6.347,-6.3424,-6.34,-6.3147,-6.3026,-6.3002,-6.2855,-6.278,-6.278,-6.278,-6.278,-6.2853,-6.4549,-6.5319,-6.5356,0.0,0.0,0.0,-6.4705,-6.3422,-6.2415,-6.1483,-5.9709,-5.7588,-5.6805,-5.5637,-5.4408,-5.3734,-5.3501,-5.3501,-5.3501,-5.3501,-5.3518,-5.3585,-5.4059,-5.4752,-5.5546,-5.597,-5.6385,-5.7105,-5.6504,-5.5317,-5.3864,-5.2937,-5.2409,-5.2409,-5.2409,-5.221,-5.1547,-5.1415,-5.1181,-5.0518,-5.0419,-5.0634,-5.1315,-5.1415,-5.1647,-5.2291,-5.1672,-5.1156,-5.1102,-5.0739,-5.0331,-4.9916,-4.9876,-4.9876,-4.9876,-4.9876,-4.9876,-4.9876,-4.9876,-4.9876,-4.9876,-4.8573,-4.7904,-4.7904,-4.655,-4.588,-4.588,-4.588,-4.588,-5.3185,-5.3185,-5.3185,-5.3185,-5.3185,-5.3206,-5.323,0.0,-5.3272,-5.3359,-5.3479,-5.4117,-5.5788,-5.6204,-5.684,0.0,0.0,0.0,-5.8716,0.0,0.0,0.0,0.0,0.0,0.0,0.0,0.0,0.0,0.0,0.0,0.0,-6.347,-6.3377,-6.3284,-6.3099,-6.2953,-6.288,-6.2848,-6.278,-6.278,-6.278,-6.278,-6.286,-6.4035,-6.4585,-6.4622,0.0,0.0,0.0,-6.3661,-6.2563,-6.1514,-5.9717,-5.8394,-5.7316,-5.5784,-5.4884,-5.4296,-5.3701,-5.3501,-5.3501,-5.3501,-5.3501,-5.3501,-5.3501,-5.3704,-5.416,-5.5238,-5.5528,-5.5796,-5.6838,-5.6046,-5.4593,-5.3135,-5.2241,-5.163,-5.1164,-5.1082,-5.0982,-5.0701,-5.0634,-5.0551,-5.027,-5.022,-5.0303,-5.0585,-5.0634,-5.0734,-5.1032,-5.0575,-5.0111,-4.9855,-5.0029,-5.0073,-4.9916,-4.9876,-4.9876,-4.9876,-4.9876,-4.9876,-4.9876,-4.9876,-4.9876,-4.9876,-4.8984,-4.8309,-4.7904,-4.6945,-4.6269,-4.588,-4.5474,-4.5285,-5.3185,-5.3185,-5.3185,-5.3185,-5.3185,-5.3185,0.0,0.0,-5.3227,-5.3254,-5.3359,-5.3979,-5.5729,-5.6164,-5.6781,0.0,0.0,-5.8716,0.0,0.0,0.0,0.0,0.0,0.0,0.0,0.0,0.0,0.0,0.0,0.0,0.0,-6.34,-6.3307,-6.3213,-6.3026,-6.2904,-6.278,-6.278,-6.278,-6.278,-6.278,-6.278,-6.2817,-6.3704,-6.409,0.0,0.0,0.0,0.0,-6.2665,-6.1569,-6.0296,-5.8394,-5.7338,-5.6677,-5.5,-5.4281,-5.4059,-5.3651,-5.3501,-5.3501,-5.3501,-5.3501,-5.3501,-5.3501,-5.3501,-5.3788,-5.5048,-5.537,-5.5452,-5.5834,-5.492,-5.3516,-5.2075,-5.133,-5.0817,-5.032,-5.022,-5.0154,-4.9939,-4.9889,-4.9823,-4.9607,-4.9558,-4.9624,-4.9856,-4.9889,-4.9955,-5.0187,-4.986,-4.9458,-4.903,-4.9287,-4.9432,-4.9331,-4.9331,-4.9331,-4.9331,-4.9331,-4.9331,-4.9331,-4.9331,-4.9331,-4.9331,-4.8636,-4.7958,-4.7312,-4.6623,-4.5946,-4.5314,-4.4835,-4.4618,-5.3185,-5.3185,-5.3185,-5.3185,-5.3185,-5.3185,0.0,-5.3185,-5.3185,-5.3185,-5.3254,-5.3838,-5.5586,-5.6004,-5.6683,-5.8417,0.0,0.0,0.0,0.0,0.0,0.0,0.0,0.0,0.0,0.0,0.0,0.0,0.0,0.0,0.0,0.0,-6.3213,-6.3213,-6.2929,-6.278,-6.278,-6.278,-6.278,-6.278,-6.278,-6.278,-6.2817,-6.3704,0.0,0.0,0.0,0.0,0.0,-6.1642,-6.0281,-5.8749,-5.7855,-5.6652,-5.5343,-5.4641,-5.4027,-5.3501,-5.3501,-5.3501,-5.3501,-5.3501,-5.3501,-5.3501,-5.3501,-5.3501,-5.3788,-5.5048,-5.5649,-5.5497,-5.3851,-5.292,-5.2042,-5.0585,-5.0237,-5.022,-5.022,-5.022,-4.9988,-4.926,-4.9127,-4.8895,-4.815,-4.8017,-4.8266,-4.9011,-4.9127,-4.9392,-5.0121,-4.986,-4.9458,-4.903,-4.8645,-4.8254,-4.7963,-4.7925,-4.7925,-4.7925,-4.7925,-4.7925,-4.7925,-4.7925,-4.7925,-4.7925,-4.7177,-4.6517,-4.593,-4.5233,-4.4592,-4.4008,-4.4008,-4.4008,-5.3185,-5.3185,-5.3185,-5.3185,-5.3185,-5.3185,-5.3185,-5.3185,-5.3185,-5.3185,-5.3695,-5.4481,-5.5628,-5.6422,-5.7291,-5.8386,0.0,0.0,0.0,0.0,0.0,0.0,0.0,0.0,0.0,0.0,0.0,0.0,0.0,0.0,0.0,0.0,-6.3165,-6.3075,-6.288,-6.278,-6.278,-6.278,-6.3099,-6.3686,-6.3099,-6.3117,-6.3649,-6.2787,0.0,0.0,0.0,0.0,0.0,-5.9998,-5.9016,-5.8049,-5.6641,-5.5518,-5.4641,-5.4011,-5.3668,-5.3501,-5.3501,-5.3501,-5.3501,-5.3501,-5.3501,-5.3501,-5.3501,-5.3856,-5.4278,-5.4403,-5.477,-5.4669,-5.2528,-5.1829,-5.1299,-4.9806,-4.9458,-4.9326,-4.8812,-4.8696,-4.863,-4.8398,-4.8349,-4.8266,-4.805,-4.8001,-4.8084,-4.8315,-4.8349,-4.8431,-4.868,-4.8362,-4.7972,-4.7591,-4.7187,-4.7207,-4.7852,-4.7893,-4.7893,-4.7893,-4.7893,-4.7893,-4.7893,-4.7893,-4.7893,-4.7893,-4.72,-4.6542,-4.5915,-4.5259,-4.4383,-4.3311,-4.3311,-4.3094,-5.3185,-5.3185,-5.3185,-5.3185,-5.3185,0.0,-5.3185,-5.3185,-5.3143,-5.2934,-5.3729,-5.4666,-5.5365,-5.6455,-5.7521,-5.836,0.0,0.0,0.0,0.0,0.0,0.0,0.0,0.0,0.0,0.0,0.0,0.0,0.0,0.0,0.0,0.0,-6.297,-6.2487,-6.2708,-6.278,-6.278,-6.2511,-6.2622,-6.3135,-6.231,-6.2181,-6.2658,0.0,0.0,0.0,0.0,0.0,0.0,-5.9122,-5.8261,-5.7308,-5.5939,-5.4978,-5.4345,-5.3734,-5.3501,-5.3501,-5.3501,-5.3501,-5.3501,-5.3501,-5.3298,-5.3112,-5.3416,-5.3788,-5.3938,-5.3342,-5.3348,-5.3154,-5.1367,-5.0667,-5.0154,-4.8978,-4.8696,-4.8564,-4.81,-4.8001,-4.8001,-4.8001,-4.8001,-4.8001,-4.8001,-4.8001,-4.8001,-4.8001,-4.8001,-4.8001,-4.8001,-4.777,-4.7421,-4.6945,-4.6668,-4.6685,-4.7061,-4.7119,-4.7119,-4.7119,-4.7119,-4.7119,-4.7119,-4.7119,-4.6975,-4.6733,-4.6344,-4.5694,-4.4795,-4.4213,-4.3483,-4.2658,-4.2658,-4.2455,0.0,-5.3164,-5.3185,-5.3185,0.0,0.0,-5.3185,-5.3201,0.0,-5.259,-5.3526,-5.455,-5.4945,-5.6177,-5.7423,-5.8274,0.0,0.0,0.0,0.0,0.0,0.0,0.0,0.0,0.0,0.0,0.0,0.0,0.0,0.0,0.0,0.0,0.0,-6.1563,-6.2236,-6.2615,-6.2615,-6.1887,-6.1539,-6.1575,-6.0786,-6.0438,-6.0493,0.0,0.0,0.0,0.0,0.0,0.0,-5.8829,-5.7891,-5.6546,-5.5716,-5.4948,-5.4281,-5.3701,-5.3501,-5.3501,-5.3501,-5.3501,-5.3501,-5.3433,-5.2875,-5.235,-5.3061,-5.3197,-5.2908,-5.2,-5.1578,-5.1206,-5.0271,-4.9558,-4.8862,-4.8166,-4.8001,-4.8001,-4.8001,-4.8001,-4.8001,-4.8001,-4.8001,-4.8001,-4.8001,-4.8001,-4.8001,-4.8001,-4.8001,-4.8001,-4.8001,-4.8001,-4.7721,-4.6996,-4.6876,-4.6615,-4.588,-4.5807,-4.5807,-4.5807,-4.5807,-4.5807,-4.5807,-4.5807,-4.552,-4.4887,-4.4774,-4.4128,-4.2915,-4.2351,-4.2092,-4.2092,-4.2092,-4.2092,-5.2694,0.0,-5.3185,-5.3185,-5.3185,-5.3185,0.0,-5.3324,-5.3388,-5.3271,-5.4132,-5.4956,-5.5076,-5.5911,-5.6819,0.0,0.0,0.0,0.0,0.0,0.0,0.0,0.0,0.0,0.0,0.0,0.0,0.0,0.0,0.0,0.0,0.0,0.0,-6.0694,-6.0878,-6.097,-6.097,-6.0786,-6.0988,-6.1575,-6.0786,-6.0731,-6.1282,0.0,0.0,0.0,0.0,0.0,0.0,-5.7971,-5.7126,-5.591,-5.5525,-5.4707,-5.3701,-5.3551,-5.3501,-5.3501,-5.3501,-5.3501,-5.3399,-5.279,-5.208,-5.1403,-5.1014,-5.156,-5.2085,-5.1212,-5.0794,-5.0342,-4.8879,-4.8398,-4.8216,-4.805,-4.8001,-4.8001,-4.8001,-4.8001,-4.8001,-4.8001,-4.8001,-4.8001,-4.8001,-4.8001,-4.8001,-4.8001,-4.8001,-4.8001,-4.8001,-4.8001,-4.7721,-4.6996,-4.6876,-4.6615,-4.588,-4.5807,-4.5807,-4.5807,-4.5807,-4.5807,-4.5807,-4.5807,-4.5735,-4.5573,-4.4617,-4.3497,-4.2325,-4.2175,-4.2092,-4.2092,-4.2092,-4.2092,-5.2155,-5.2431,-5.2761,-5.254,-5.2725,-5.2974,-5.2974,-5.3315,-5.3559,-5.333,-5.4215,-5.4973,-5.4745,-5.5633,0.0,0.0,0.0,0.0,0.0,0.0,0.0,0.0,0.0,0.0,0.0,0.0,0.0,0.0,0.0,0.0,0.0,0.0,0.0,0.0,-5.9869,-6.0034,-6.0401,-6.0034,-6.007,-6.0493,-5.9685,-5.952,-5.9905,0.0,0.0,0.0,0.0,0.0,-5.7474,-5.7202,-5.6331,-5.5191,-5.5022,-5.4348,-5.3501,-5.3501,-5.3501,-5.345,-5.3078,-5.2739,-5.2384,-5.1944,-5.1302,-5.0625,-5.0219,-5.0359,-5.05,-5.0001,-4.9672,-4.9325,-4.8346,-4.8066,-4.8001,-4.8001,-4.8001,-4.8001,-4.8001,-4.8001,-4.8001,-4.8001,-4.8001,-4.8001,-4.8001,-4.8001,-4.8001,-4.8001,-4.8001,-4.8001,-4.8001,-4.8001,-4.7721,-4.6996,-4.6876,-4.6615,-4.588,-4.5807,-4.5807,-4.5807,-4.5807,-4.5807,-4.5807,-4.5807,-4.5646,-4.5358,-4.412,-4.3155,-4.25,-4.2242,-4.2092,-4.2092,-4.2092,-4.2092,-5.1729,-5.2019,-5.2318,-5.189,-5.2325,-5.287,-5.287,-5.3397,-5.3734,-5.3271,0.0,0.0,0.0,-5.526,0.0,0.0,0.0,0.0,0.0,0.0,0.0,0.0,0.0,0.0,0.0,0.0,0.0,0.0,0.0,0.0,0.0,0.0,0.0,0.0,-5.8977,-5.9355,-6.0034,-5.9373,-5.9001,-5.9001,-5.8327,-5.7997,-5.7997,-5.7997,0.0,0.0,0.0,0.0,-5.6887,-5.6643,-5.5766,-5.4589,-5.4437,-5.3958,-5.3315,-5.3315,-5.3247,-5.3061,-5.2384,-5.1657,-5.1048,-5.1048,-5.0541,-4.9915,-4.9915,-4.9492,-4.897,-4.8832,-4.8658,-4.8452,-4.826,-4.8115,-4.8001,-4.8001,-4.8001,-4.8001,-4.8001,-4.8001,-4.8001,-4.8001,-4.8001,-4.8001,-4.8001,-4.8001,-4.8001,-4.8001,-4.8001,-4.8001,-4.8001,-4.7968,-4.7654,-4.6979,-4.6842,-4.6545,-4.5844,-4.5807,-4.5807,-4.5807,-4.5807,-4.5807,-4.5807,-4.5807,-4.5484,-4.4812,-4.3717,-4.3101,-4.2981,-4.2392,-4.2092,-4.2092,-4.2092,-4.2092,-5.1788,-5.2078,-5.2506,-5.2518,-5.3101,-5.3646,-5.3646,-5.3891,-5.4125,0.0,0.0,0.0,0.0,-5.4641,-5.497,0.0,0.0,0.0,0.0,0.0,0.0,0.0,0.0,0.0,0.0,0.0,0.0,0.0,0.0,0.0,0.0,0.0,0.0,0.0,0.0,-5.8235,-5.8364,-5.8253,-5.818,-5.818,-5.8052,-5.7997,-5.7997,-5.7997,-5.7997,0.0,0.0,0.0,-5.6887,-5.6731,-5.5862,-5.4589,-5.4437,-5.3616,-5.2486,-5.2486,-5.2097,-5.1555,-5.1388,-5.0896,-5.027,-5.027,-4.9763,-4.9171,-4.9171,-4.9086,-4.897,-4.8832,-4.8658,-4.8452,-4.826,-4.8115,-4.8001,-4.8001,-4.8001,-4.8001,-4.8001,-4.8001,-4.8001,-4.8001,-4.8001,-4.8001,-4.8001,-4.8001,-4.8001,-4.8001,-4.8001,-4.8001,-4.8001,-4.7704,-4.7354,-4.6945,-4.6598,-4.6246,-4.5844,-4.5807,-4.5807,-4.5807,-4.5807,-4.5807,-4.5807,-4.5807,-4.5484,-4.4812,-4.4105,-4.3497,-4.2981,-4.2392,-4.2092,-4.2092,-4.2092,-4.2092,-5.1689,-5.2183,-5.268,-5.2735,-5.3026,-5.3241,-5.3241,-5.3675,-5.4112,0.0,0.0,0.0,0.0,0.0,0.0,0.0,0.0,0.0,0.0,0.0,0.0,0.0,0.0,0.0,0.0,0.0,0.0,0.0,0.0,0.0,0.0,0.0,0.0,0.0,0.0,0.0,-5.7997,-5.7997,-5.7997,-5.7997,-5.7997,-5.7997,-5.7997,-5.7997,-5.7997,0.0,0.0,-5.7419,-5.6721,-5.574,-5.4787,-5.3829,-5.3012,-5.2287,-5.1725,-5.1725,-5.1251,-5.0608,-5.0608,-5.0118,-4.9509,-4.9509,-4.9272,-4.9001,-4.9001,-4.9001,-4.897,-4.8832,-4.8658,-4.8452,-4.826,-4.8115,-4.8001,-4.8001,-4.8001,-4.8001,-4.8001,-4.8001,-4.8001,-4.8001,-4.8001,-4.8001,-4.8001,-4.8001,-4.8001,-4.8001,-4.8001,-4.8001,-4.8001,-4.7853,-4.7504,-4.6945,-4.6738,-4.6388,-4.5844,-4.5807,-4.5807,-4.5807,-4.5807,-4.5807,-4.5807,-4.5807,-4.5484,-4.4812,-4.422,-4.3615,-4.2981,-4.2392,-4.2092,-4.2092,-4.2092,-4.2092,-5.176,-5.2433,-5.2963,-5.2995,-5.3092,-5.3124,-5.3092,-5.3586,-5.4078,-5.4143,0.0,0.0,0.0,0.0,0.0,0.0,0.0,0.0,0.0,0.0,0.0,0.0,0.0,0.0,0.0,0.0,0.0,0.0,0.0,0.0,0.0,0.0,0.0,0.0,0.0,0.0,-5.7997,-5.7997,-5.7997,-5.7997,-5.7997,-5.7997,-5.7997,-5.7997,-5.7905,-5.7721,-5.7494,-5.6939,-5.6015,-5.4591,-5.362,-5.2898,-5.1677,-5.1099,-5.093,-5.076,-5.0338,-4.983,-4.983,-4.9475,-4.9001,-4.9001,-4.9001,-4.9001,-4.9001,-4.9001,-4.897,-4.8769,-4.8627,-4.8452,-4.826,-4.8115,-4.8001,-4.8001,-4.8001,-4.8001,-4.8001,-4.8001,-4.8001,-4.8001,-4.8001,-4.8001,-4.8001,-4.8001,-4.8001,-4.8001,-4.8001,-4.8001,-4.8001,-4.7935,-4.7638,-4.7082,-4.6876,-4.6509,-4.5844,-4.5807,-4.5807,-4.5807,-4.5807,-4.5807,-4.5807,-4.5807,-4.5484,-4.4812,-4.422,-4.3615,-4.2981,-4.2392,-4.2092,-4.2092,-4.2092,-4.2092,-5.2291,-5.299,-5.3483,-5.3599,-5.3862,-5.4057,-5.3927,-5.4059,-5.4158,-5.4045,0.0,0.0,0.0,0.0,0.0,0.0,0.0,0.0,0.0,0.0,0.0,0.0,0.0,0.0,0.0,0.0,0.0,0.0,0.0,0.0,0.0,0.0,0.0,0.0,0.0,0.0,-5.7997,-5.7997,-5.7997,-5.7997,-5.7997,-5.7997,-5.7997,-5.7997,-5.7593,-5.6895,-5.6873,-5.5962,-5.4424,-5.3744,-5.2971,-5.2127,-5.1473,-5.0777,-5.0101,-4.9407,-4.912,-4.9086,-4.9086,-4.9035,-4.9001,-4.9001,-4.9001,-4.9001,-4.9001,-4.9001,-4.894,-4.861,-4.8515,-4.8452,-4.826,-4.8115,-4.8001,-4.8001,-4.8001,-4.8001,-4.8001,-4.8001,-4.8001,-4.8001,-4.8001,-4.8001,-4.8001,-4.8001,-4.8001,-4.8001,-4.8001,-4.8001,-4.8001,-4.7671,-4.7404,-4.7371,-4.674,-4.6211,-4.5844,-4.5807,-4.5807,-4.5807,-4.5807,-4.5807,-4.5807,-4.5807,-4.5484,-4.4812,-4.422,-4.3615,-4.2981,-4.2392,-4.2092,-4.2092,-4.2092,-4.2092,-5.2789,-5.3314,-5.3501,-5.3551,-5.3717,-5.3849,-5.3718,-5.3718,-5.3767,-5.3816,-5.3948,0.0,0.0,0.0,0.0,0.0,0.0,0.0,0.0,0.0,0.0,0.0,0.0,0.0,0.0,0.0,0.0,0.0,0.0,0.0,0.0,0.0,0.0,0.0,0.0,0.0,0.0,-5.6235,-5.6181,-5.651,-5.7005,-5.7262,-5.7244,-5.673,-5.6326,-5.6051,-5.5984,-5.5514,-5.475,-5.3219,-5.2333,-5.1836,-5.04,-4.9661,-4.9373,-4.9103,-4.9001,-4.9001,-4.9001,-4.9001,-4.9001,-4.9001,-4.9001,-4.9001,-4.9001,-4.8956,-4.8832,-4.8578,-4.842,-4.826,-4.8115,-4.8033,-4.8001,-4.8001,-4.8001,-4.8001,-4.8001,-4.8001,-4.8001,-4.8001,-4.8001,-4.8001,-4.8001,-4.8001,-4.8001,-4.8001,-4.8001,-4.8001,-4.8001,-4.7853,-4.7605,-4.715,-4.6439,-4.5936,-4.5807,-4.5807,-4.5807,-4.5807,-4.5807,-4.5807,-4.5807,-4.5807,-4.53,-4.4259,-4.4004,-4.3433,-4.2433,-4.2201,-4.2092,-4.2092,-4.2092,-4.2092,-5.3078,-5.3501,-5.3501,-5.3501,-5.3584,-5.3601,-5.3534,-5.3534,-5.3584,-5.3634,-5.3783,-5.398,-5.4289,0.0,0.0,0.0,0.0,0.0,0.0,0.0,0.0,0.0,0.0,0.0,0.0,0.0,0.0,0.0,0.0,0.0,0.0,0.0,0.0,0.0,0.0,0.0,0.0,-5.4967,-5.4976,-5.5354,-5.5819,-5.618,-5.64,-5.5849,-5.5467,-5.5207,-5.4943,-5.4596,-5.4054,-5.228,-5.1312,-5.0853,-4.9521,-4.9001,-4.9001,-4.9001,-4.9001,-4.9001,-4.9001,-4.9001,-4.9001,-4.9001,-4.9001,-4.9001,-4.9001,-4.8956,-4.8801,-4.8578,-4.8388,-4.826,-4.8066,-4.8001,-4.8001,-4.8001,-4.8001,-4.8001,-4.8001,-4.8001,-4.8001,-4.8001,-4.8001,-4.8001,-4.8001,-4.8001,-4.8001,-4.8001,-4.8001,-4.8001,-4.8001,-4.7886,-4.7538,-4.6807,-4.6262,-4.5936,-4.5807,-4.5807,-4.5807,-4.5807,-4.5609,-4.5557,-4.5771,-4.5609,-4.4971,-4.3927,-4.3732,-4.3115,-4.2092,-4.2092,-4.2092,-4.2092,-4.2092,-4.2092,-5.3078,-5.3501,-5.3501,-5.3501,0.0,0.0,-5.3501,-5.3601,-5.3651,-5.3534,-5.3601,-5.375,-5.3948,0.0,0.0,0.0,0.0,0.0,0.0,0.0,0.0,0.0,0.0,0.0,0.0,0.0,0.0,0.0,0.0,0.0,0.0,0.0,0.0,0.0,0.0,0.0,0.0,-5.4488,-5.4774,-5.4755,-5.4509,-5.4803,-5.5574,-5.5596,-5.5133,-5.4359,-5.3818,-5.2978,-5.191,-5.0769,-4.9768,-4.9001,-4.9001,-4.9001,-4.9001,-4.9001,-4.9001,-4.9001,-4.9001,-4.9001,-4.9001,-4.9001,-4.9001,-4.9001,-4.9001,-4.9001,-4.894,-4.8578,-4.8515,-4.842,-4.8099,-4.8001,-4.8001,-4.8001,-4.8001,-4.8001,-4.8001,-4.8001,-4.8001,-4.8001,-4.8001,-4.8001,-4.8001,-4.8001,-4.8001,-4.8001,-4.8001,-4.8001,-4.8001,-4.7638,-4.7134,-4.6391,-4.6285,-4.6175,-4.5844,-4.5807,-4.5807,-4.5807,-4.5194,-4.5104,-4.5771,-4.5142,-4.451,-4.3888,-4.3299,-4.2688,-4.2092,-4.2092,-4.2092,-4.2092,-4.2092,-4.2092,-5.3078,-5.3501,0.0,-5.3501,0.0,0.0,0.0,-5.3534,0.0,0.0,-5.3618,-5.3651,-5.3965,0.0,0.0,0.0,0.0,0.0,0.0,0.0,0.0,0.0,0.0,0.0,0.0,0.0,0.0,0.0,0.0,0.0,0.0,0.0,0.0,0.0,0.0,0.0,0.0,0.0,-5.2744,-5.3137,-5.3412,-5.3977,-5.473,-5.4179,-5.3794,-5.3531,-5.2976,-5.2466,-5.1897,-5.057,-4.9615,-4.9001,-4.9001,-4.9001,-4.9001,-4.9001,-4.9001,-4.9001,-4.9001,-4.9001,-4.9001,-4.9001,-4.9001,-4.9001,-4.9001,-4.8909,-4.8801,-4.8578,-4.8388,-4.8227,-4.8066,-4.8001,-4.8001,-4.8001,-4.8001,-4.8001,-4.8001,-4.8001,-4.8001,-4.8001,-4.8001,-4.8001,-4.8001,-4.8001,-4.8001,-4.8001,-4.8001,-4.8001,-4.8001,-4.7437,-4.6979,-4.6738,-4.6262,-4.59,-4.5807,-4.5807,-4.5807,-4.5807,-4.5609,-4.5395,-4.5104,-4.4488,-4.3873,-4.326,-4.3101,-4.2688,-4.2092,-4.2092,-4.2092,-4.2092,-4.2092,-4.2092,-5.3078,-5.3501,0.0,-5.3501,-5.3501,-5.3501,-5.3501,0.0,0.0,0.0,0.0,0.0,0.0,0.0,0.0,0.0,0.0,0.0,0.0,0.0,0.0,0.0,0.0,0.0,0.0,0.0,0.0,0.0,0.0,0.0,0.0,0.0,0.0,0.0,0.0,0.0,0.0,0.0,0.0,-5.2084,-5.2631,-5.3233,-5.3922,-5.3427,-5.3185,-5.3143,-5.2278,-5.164,-5.1157,-5.0017,-4.9333,-4.9001,-4.9001,-4.9001,-4.9001,-4.9001,-4.9001,-4.9001,-4.9001,-4.9001,-4.9001,-4.9001,-4.9001,-4.9001,-4.9001,-4.894,-4.8832,-4.8578,-4.842,-4.826,-4.8066,-4.8001,-4.8001,-4.8001,-4.8001,-4.8001,-4.8001,-4.8001,-4.8001,-4.8001,-4.8001,-4.8001,-4.8001,-4.8001,-4.8001,-4.8001,-4.8001,-4.7886,-4.7621,-4.7167,-4.6789,-4.6474,-4.608,-4.5807,-4.5807,-4.5807,-4.5807,-4.5807,-4.5557,-4.5231,-4.4812,-4.445,-4.3989,-4.3379,-4.3101,-4.2688,-4.2092,-4.2092,-4.2092,-4.2092,-4.2092,-4.2092,-5.3078,-5.3501,0.0,-5.3501,-5.3501,0.0,-5.3501,-5.3501,-5.3501,-5.3501,0.0,0.0,0.0,0.0,0.0,0.0,0.0,0.0,0.0,0.0,0.0,0.0,0.0,0.0,0.0,0.0,0.0,0.0,0.0,0.0,0.0,0.0,0.0,0.0,0.0,0.0,0.0,0.0,0.0,0.0,-5.206,-5.2608,-5.3143,-5.3185,-5.3143,-5.2955,-5.1679,-5.0697,-4.9976,-4.9273,-4.9001,-4.9001,-4.9001,-4.9001,-4.9001,-4.9001,-4.9001,-4.9001,-4.9001,-4.9001,-4.9001,-4.9001,-4.9001,-4.9001,-4.9001,-4.9001,-4.8909,-4.8578,-4.8483,-4.8388,-4.8099,-4.8001,-4.8001,-4.8001,-4.8001,-4.8001,-4.8001,-4.8001,-4.8001,-4.8001,-4.8001,-4.8001,-4.8001,-4.8001,-4.8001,-4.8001,-4.8001,-4.7754,-4.703,-4.6911,-4.6615,-4.59,-4.5807,-4.5807,-4.5807,-4.5807,-4.5807,-4.5807,-4.5231,-4.4849,-4.4812,-4.4699,-4.4358,-4.3849,-4.322,-4.2662,-4.2092,-4.2092,-4.2092,-4.2092,-4.2092,-4.2092,-5.3078,-5.3501,0.0,0.0,-5.3501,-5.3501,-5.3501,-5.3501,-5.3501,0.0,0.0,0.0,0.0,0.0,0.0,0.0,0.0,0.0,0.0,0.0,0.0,0.0,0.0,0.0,0.0,0.0,0.0,0.0,0.0,0.0,0.0,0.0,0.0,0.0,0.0,0.0,-5.0011,-5.0537,-5.0857,0.0,-5.1518,-5.206,-5.2586,-5.3017,-5.2658,-5.1679,-5.1284,-5.0452,-4.9364,-4.9107,-4.9001,-4.9001,-4.9001,-4.9001,-4.9001,-4.9001,-4.9001,-4.9001,-4.9001,-4.9001,-4.9001,-4.9001,-4.9001,-4.9001,-4.9001,-4.8925,-4.8801,-4.8547,-4.8388,-4.8227,-4.8066,-4.8001,-4.8001,-4.8001,-4.8001,-4.8001,-4.8001,-4.8001,-4.8001,-4.8001,-4.8001,-4.8001,-4.8001,-4.8001,-4.8001,-4.8001,-4.8001,-4.782,-4.7354,-4.7048,-4.6703,-4.623,-4.5972,-4.5807,-4.5807,-4.5807,-4.5807,-4.5807,-4.5646,-4.5358,-4.4812,-4.3897,-4.3339,-4.318,-4.2581,-4.2242,-4.2092,-4.2092,-4.2092,-4.2092,-4.2092,-4.2092,-5.3078,0.0,0.0,-5.3501,0.0,-5.3501,-5.3501,-5.3501,0.0,0.0,0.0,0.0,0.0,0.0,0.0,0.0,0.0,0.0,0.0,0.0,0.0,0.0,0.0,0.0,0.0,0.0,0.0,0.0,0.0,0.0,0.0,0.0,0.0,0.0,0.0,0.0,-5.0011,-5.0291,-5.0564,-5.0803,-5.1079,-5.1626,-5.2408,-5.2694,-5.2389,-5.1597,-5.0973,-5.0276,-4.9496,-4.9138,-4.9001,-4.9001,-4.9001,-4.9001,-4.9001,-4.9001,-4.9001,-4.9001,-4.9001,-4.9001,-4.9001,-4.9001,-4.9001,-4.9001,-4.9001,-4.8956,-4.8832,-4.8578,-4.842,-4.8292,-4.8066,-4.8001,-4.8001,-4.8001,-4.8001,-4.8001,-4.8001,-4.8001,-4.8001,-4.8001,-4.8001,-4.8001,-4.8001,-4.8001,-4.8001,-4.8001,-4.7853,-4.7571,-4.7218,-4.6825,-4.6458,-4.6084,-4.59,-4.5807,-4.5807,-4.5807,-4.5646,-4.5342,-4.5321,-4.503,-4.4412,-4.3497,-4.2981,-4.2981,-4.2688,-4.2392,-4.2092,-4.2092,-4.2092,-4.2092,-4.2092,-4.2092,-5.3078,0.0,-5.3501,-5.3501,-5.3501,0.0,-5.3501,0.0,0.0,0.0,0.0,0.0,0.0,0.0,0.0,0.0,0.0,0.0,0.0,0.0,0.0,0.0,0.0,0.0,0.0,0.0,0.0,0.0,0.0,0.0,0.0,0.0,0.0,0.0,0.0,-4.9964,-5.0011,-5.0011,-5.0235,-5.0657,-5.0857,-5.1347,-5.2132,-5.2221,-5.2108,-5.1782,-5.0742,-5.0085,-4.9703,-4.9199,-4.9001,-4.9001,-4.9001,-4.9001,-4.9001,-4.9001,-4.9001,-4.9001,-4.9001,-4.9001,-4.9001,-4.9001,-4.9001,-4.9001,-4.9001,-4.897,-4.8909,-4.8627,-4.8483,-4.8388,-4.8115,-4.8001,-4.8001,-4.8001,-4.8001,-4.8001,-4.8001,-4.8001,-4.8001,-4.8001,-4.8001,-4.8001,-4.8001,-4.8001,-4.8001,-4.8001,-4.7704,-4.7354,-4.6945,-4.6617,-4.6246,-4.5844,-4.5807,-4.5807,-4.5807,-4.5807,-4.5557,-4.5014,-4.4849,-4.451,-4.3927,-4.3299,-4.2955,-4.2835,-4.2835,-4.2622,-4.2092,-4.2092,-4.2092,-4.2092,-4.2092,-4.2092,0.0,0.0,-5.3501,0.0,-5.3501,-5.3501,0.0,0.0,0.0,0.0,0.0,0.0,0.0,0.0,0.0,0.0,0.0,0.0,0.0,0.0,0.0,0.0,0.0,0.0,0.0,0.0,0.0,0.0,0.0,0.0,0.0,0.0,-4.956,-4.9708,-4.9725,0.0,-5.0011,-5.0011,-5.004,-5.0138,-5.1052,-5.1339,-5.1026,-5.1475,-5.1515,-5.1181,-5.0579,-4.9873,-4.9107,-4.9032,-4.9001,-4.9001,-4.9001,-4.9001,-4.9001,-4.9001,-4.9001,-4.9001,-4.9001,-4.9001,-4.9001,-4.9001,-4.9001,-4.9001,-4.9001,-4.8925,-4.8801,-4.8769,-4.85,-4.8227,-4.8195,-4.8082,-4.8001,-4.8001,-4.8001,-4.8001,-4.8001,-4.8001,-4.8001,-4.8001,-4.8001,-4.8001,-4.8001,-4.8001,-4.8001,-4.8001,-4.7968,-4.7688,-4.6996,-4.6842,-4.6545,-4.588,-4.5807,-4.5807,-4.5807,-4.5807,-4.5771,-4.5682,-4.5104,-4.451,-4.3927,-4.3299,-4.2769,-4.2242,-4.2201,-4.2175,-4.2092,-4.2092,-4.2092,-4.2092,-4.2092,-4.2092,-5.3078,-5.3501,-5.3501,0.0,0.0,0.0,0.0,0.0,0.0,0.0,0.0,0.0,0.0,0.0,0.0,0.0,0.0,0.0,0.0,0.0,0.0,0.0,0.0,0.0,0.0,0.0,0.0,0.0,0.0,0.0,0.0,-4.929,-4.935,-4.9411,-4.953,0.0,-4.9713,-4.9713,-4.9772,-4.9842,-5.0749,-5.1044,-5.0803,-5.1026,-5.0964,-5.0616,-5.0085,-4.9526,-4.9001,-4.9001,-4.9001,-4.9001,-4.9001,-4.9001,-4.9001,-4.9001,-4.9001,-4.9001,-4.9001,-4.9001,-4.9001,-4.9001,-4.9001,-4.9001,-4.9001,-4.894,-4.8894,-4.8801,-4.8595,-4.8356,-4.8227,-4.8115,-4.8001,-4.8001,-4.8001,-4.8001,-4.8001,-4.8001,-4.8001,-4.8001,-4.8001,-4.8001,-4.8001,-4.8001,-4.8001,-4.8001,-4.7654,-4.7268,-4.6945,-4.6545,-4.6152,-4.5844,-4.5807,-4.5807,-4.5807,-4.5447,-4.5083,-4.4746,-4.4143,-4.3521,-4.2945,-4.2622,-4.2351,-4.2092,-4.2092,-4.2092,-4.2092,-4.2092,-4.2092,-4.2092,-4.2092,-4.2092,0.0,0.0,0.0,0.0,0.0,0.0,0.0,0.0,0.0,0.0,0.0,0.0,0.0,0.0,0.0,0.0,0.0,0.0,0.0,0.0,0.0,0.0,0.0,0.0,0.0,0.0,0.0,0.0,0.0,0.0,-4.9001,-4.9077,-4.9168,-4.9199,-4.9367,-4.9458,-4.9518,-4.9518,-4.9577,-4.9708,-5.0418,-5.0667,-5.0602,-5.0739,-5.054,-5.0056,-4.9661,-4.9307,-4.9001,-4.9001,-4.9001,-4.9001,-4.9001,-4.9001,-4.9001,-4.9001,-4.9001,-4.9001,-4.9001,-4.9001,-4.9001,-4.9001,-4.9001,-4.9001,-4.9001,-4.9001,-4.897,-4.8894,-4.869,-4.8452,-4.8324,-4.8147,-4.8001,-4.8001,-4.8001,-4.8001,-4.8001,-4.8001,-4.8001,-4.8001,-4.8001,-4.8001,-4.8001,-4.8001,-4.8001,-4.8001,-4.7437,-4.6979,-4.6911,-4.6333,-4.59,-4.5807,-4.5807,-4.5735,-4.5557,-4.5104,-4.4548,-4.3927,-4.3339,-4.2809,-4.2366,-4.2175,-4.2092,-4.2092,-4.2092,-4.2092,-4.2092,-4.2092,-4.2092,-4.2092,-4.2092,-4.2092,0.0,-5.2926,0.0,0.0,0.0,0.0,0.0,0.0,0.0,0.0,0.0,0.0,0.0,0.0,0.0,0.0,0.0,0.0,0.0,0.0,0.0,0.0,0.0,0.0,0.0,0.0,0.0,0.0,0.0,0.0,-4.9001,-4.9001,-4.9063,-4.9199,-4.9199,-4.932,-4.9518,-4.9518,-4.9577,-4.9708,-5.0254,-5.0345,-5.0051,-5.0564,-5.0335,-4.953,-4.95,-4.9307,-4.9001,-4.9001,-4.9001,-4.9001,-4.9001,-4.9001,-4.9001,-4.9001,-4.9001,-4.9001,-4.9001,-4.9001,-4.9001,-4.9001,-4.9001,-4.9001,-4.9001,-4.9001,-4.9001,-4.9001,-4.8736,-4.8515,-4.8483,-4.8244,-4.8001,-4.8001,-4.8001,-4.8001,-4.8001,-4.8001,-4.8001,-4.8001,-4.8001,-4.8001,-4.8001,-4.8001,-4.8001,-4.8001,-4.7638,-4.7252,-4.6945,-4.6512,-4.614,-4.5844,-4.5807,-4.5557,-4.4902,-4.4812,-4.4548,-4.3927,-4.3339,-4.2996,-4.2941,-4.2392,-4.2092,-4.2092,-4.2092,-4.2092,-4.2092,-4.2092,-4.2092,-4.2092,-4.2092,-4.2092,0.0,0.0,0.0,0.0,0.0,0.0,0.0,0.0,0.0,0.0,0.0,0.0,0.0,0.0,0.0,0.0,0.0,0.0,0.0,0.0,0.0,0.0,0.0,0.0,0.0,0.0,0.0,0.0,0.0,0.0,-4.9001,-4.9001,-4.9032,-4.9063,-4.9063,-4.9124,-4.9185,-4.926,-4.9381,-4.956,-4.9849,-4.9982,-4.9993,-5.0057,-4.9884,-4.9488,-4.935,-4.9168,-4.9001,-4.9001,-4.9001,-4.9001,-4.9001,-4.9001,-4.9001,-4.9001,-4.9001,-4.9001,-4.9001,-4.9001,-4.9001,-4.9001,-4.9001,-4.9001,-4.9001,-4.9001,-4.897,-4.8894,-4.869,-4.8483,-4.8324,-4.8147,-4.8001,-4.8001,-4.8001,-4.8001,-4.8001,-4.8001,-4.8001,-4.8001,-4.8001,-4.8001,-4.8001,-4.8001,-4.8001,-4.8001,-4.7671,-4.727,-4.6945,-4.6547,-4.6001,-4.5253,-4.5157,-4.4918,-4.4297,-4.3873,-4.356,-4.3339,-4.2769,-4.2433,-4.2433,-4.2201,-4.2092,-4.2092,-4.2092,-4.2092,-4.2092,-4.2092,-4.2092,-4.2092,-4.2092,-4.2092,-5.0845,0.0,0.0,0.0,0.0,0.0,0.0,0.0,0.0,0.0,0.0,0.0,0.0,0.0,0.0,0.0,0.0,0.0,0.0,0.0,0.0,0.0,0.0,0.0,0.0,0.0,0.0,0.0,0.0,0.0,-4.8909,-4.8909,-4.894,-4.9001,-4.9001,-4.9001,-4.9001,-4.9094,-4.9229,-4.9381,-4.956,-4.9696,-4.9848,-4.9755,-4.959,-4.9381,-4.926,-4.9107,-4.9001,-4.9001,-4.9001,-4.9001,-4.9001,-4.9001,-4.9001,-4.9001,-4.9001,-4.9001,-4.9001,-4.9001,-4.9001,-4.9001,-4.9001,-4.9001,-4.9001,-4.897,-4.8925,-4.8849,-4.8595,-4.8356,-4.8227,-4.8115,-4.8001,-4.8001,-4.8001,-4.8001,-4.8001,-4.8001,-4.8001,-4.8001,-4.8001,-4.8001,-4.8001,-4.8001,-4.8001,-4.8001,-4.7571,-4.715,-4.6911,-4.6458,-4.5889,-4.5216,-4.5142,-4.488,-4.4259,-4.3639,-4.322,-4.3021,-4.2433,-4.2092,-4.2092,-4.1874,-4.1758,-4.1758,-4.1541,-4.1424,-4.1424,-4.1642,-4.1758,-4.1758,-4.1526,-4.1424,0.0,0.0,0.0,0.0,0.0,0.0,0.0,0.0,0.0,0.0,0.0,0.0,0.0,0.0,0.0,0.0,0.0,0.0,0.0,0.0,0.0,0.0,0.0,0.0,0.0,0.0,0.0,0.0,0.0,-4.8769,-4.8769,-4.8818,-4.8863,-4.9001,-4.9001,-4.9001,-4.9001,-4.9001,-4.9063,-4.9199,-4.9398,-4.9488,-4.9518,-4.9619,-4.95,-4.9199,-4.9199,-4.9107,-4.9001,-4.9001,-4.9001,-4.9001,-4.9001,-4.9001,-4.9001,-4.9001,-4.9001,-4.9001,-4.9001,-4.9001,-4.9001,-4.9001,-4.9001,-4.9001,-4.9001,-4.8894,-4.8818,-4.8769,-4.85,-4.8195,-4.8195,-4.8115,-4.8001,-4.8001,-4.8001,-4.8001,-4.8001,-4.8001,-4.8001,-4.8001,-4.8001,-4.8001,-4.8001,-4.8001,-4.8001,-4.8001,-4.737,-4.6911,-4.6876,-4.6243,-4.5807,-4.5771,-4.5771,-4.5484,-4.4812,-4.4182,-4.3615,-4.2991,-4.2404,-4.2063,-4.2034,-4.141,-4.1062,-4.1062,-4.0423,-4.0104,-4.0104,-4.0742,-4.1062,-4.1047,-4.0394,-4.0089,-4.9306,0.0,0.0,0.0,0.0,0.0,0.0,0.0,0.0,0.0,0.0,0.0,0.0,0.0,0.0,0.0,0.0,0.0,0.0,0.0,0.0,0.0,0.0,0.0,0.0,0.0,0.0,0.0,0.0,-4.8595,-4.8595,-4.8707,-4.8863,-4.9001,-4.9001,-4.9001,-4.9001,-4.9001,-4.9063,-4.9199,-4.926,-4.935,-4.9488,-4.9381,-4.929,-4.9199,-4.9094,-4.9032,-4.9001,-4.9001,-4.9001,-4.9001,-4.9001,-4.9001,-4.9001,-4.9001,-4.9001,-4.9001,-4.9001,-4.9001,-4.9001,-4.9001,-4.9001,-4.9001,-4.9001,-4.8894,-4.8769,-4.8627,-4.8388,-4.8163,-4.8082,-4.8033,-4.8001,-4.8001,-4.8001,-4.8001,-4.8001,-4.8001,-4.8001,-4.8001,-4.8001,-4.8001,-4.8001,-4.8001,-4.8001,-4.8001,-4.7571,-4.7168,-4.6911,-4.6458,-4.5873,-4.5142,-4.4692,-4.4159,-4.356,-4.2915,-4.2309,-4.1664,-4.1488,-4.1149,-4.067,-4.0481,-4.0379,-4.0379,-4.0191,-4.0104,-4.0104,-4.0292,-4.0379,-4.0365,-4.0191,-3.97,-4.9001,-4.9306,-4.9644,0.0,0.0,0.0,0.0,-5.0744,0.0,0.0,0.0,0.0,0.0,0.0,0.0,0.0,0.0,0.0,0.0,0.0,0.0,0.0,0.0,0.0,0.0,0.0,0.0,0.0,-4.8324,-4.842,-4.8483,-4.8707,-4.8863,-4.9001,-4.9001,-4.9001,-4.9001,-4.9001,-4.9032,-4.9124,-4.9168,-4.9229,-4.9307,-4.9229,-4.9168,-4.9107,-4.9032,-4.9001,-4.9001,-4.9001,-4.9001,-4.9001,-4.9001,-4.9001,-4.9001,-4.9001,-4.9001,-4.9001,-4.9001,-4.9001,-4.9001,-4.9001,-4.9001,-4.9001,-4.8909,-4.8784,-4.8627,-4.842,-4.826,-4.8115,-4.8033,-4.8001,-4.8001,-4.8001,-4.8001,-4.8001,-4.8001,-4.8001,-4.8001,-4.8001,-4.8001,-4.8001,-4.8001,-4.8001,-4.8001,-4.8001,-4.7538,-4.7116,-4.6927,-4.5975,-4.507,-4.4483,-4.3623,-4.2962,-4.2617,-4.2036,-4.1506,-4.1111,-4.0844,-4.051,-4.0118,-3.9857,-3.9726,-3.9726,-3.945,-3.9305,-3.9305,-3.9581,-3.9581,-3.9305,-3.9305,-3.9001,-4.9001,-4.9001,-4.9001,-4.9001,0.0,0.0,-4.9799,-4.9934,0.0,0.0,0.0,0.0,0.0,0.0,0.0,0.0,0.0,0.0,0.0,0.0,0.0,0.0,0.0,0.0,0.0,0.0,0.0,-4.8033,-4.8115,-4.826,-4.8452,-4.8644,-4.8801,-4.897,-4.897,-4.897,-4.9001,-4.9001,-4.9001,-4.9001,-4.9107,-4.9124,-4.9001,-4.9107,-4.9107,-4.9001,-4.9001,-4.9001,-4.9001,-4.9001,-4.9001,-4.9001,-4.9001,-4.9001,-4.9001,-4.9001,-4.9001,-4.9001,-4.9001,-4.9001,-4.9001,-4.9001,-4.9001,-4.8956,-4.8849,-4.8627,-4.842,-4.8227,-4.8082,-4.8001,-4.8001,-4.8001,-4.8001,-4.8001,-4.7934,-4.7885,-4.7885,-4.7819,-4.7752,-4.7752,-4.7885,-4.7968,-4.7885,-4.7885,-4.7852,-4.7704,-4.7107,-4.6649,-4.6615,-4.5005,-4.3852,-4.3779,-4.2717,-4.1967,-4.1908,-4.1324,-4.0944,-4.087,-4.0315,-3.9958,-3.9886,-3.9363,-3.9088,-3.9088,-3.8507,-3.8202,-3.8202,-3.8797,-3.8783,-3.8202,-3.8202,-3.8165,0.0,0.0,0.0,0.0,0.0,0.0,-4.9017,-4.894,0.0,0.0,0.0,0.0,0.0,0.0,0.0,0.0,0.0,0.0,0.0,0.0,0.0,0.0,0.0,0.0,0.0,0.0,-4.8066,-4.8001,-4.8033,-4.8115,-4.826,-4.8292,-4.8468,-4.8832,-4.8832,-4.8894,-4.9001,-4.9001,-4.9001,-4.9001,-4.9032,-4.9032,-4.9001,-4.9032,-4.9032,-4.9001,-4.9001,-4.9001,-4.9001,-4.9001,-4.9001,-4.9001,-4.9001,-4.9001,-4.9001,-4.9001,-4.9001,-4.9001,-4.9001,-4.9001,-4.9001,-4.9001,-4.8925,-4.8832,-4.8818,-4.8549,-4.8227,-4.8082,-4.8033,-4.8001,-4.8001,-4.8001,-4.8001,-4.8001,-4.7554,-4.7106,-4.7106,-4.6643,-4.6228,-4.6228,-4.7189,-4.7819,-4.7222,-4.7106,-4.6811,-4.5961,-4.5489,-4.5092,-4.4857,-4.4198,-4.3561,-4.3153,-4.2404,-4.1745,-4.1302,-4.0674,-4.0081,-3.96,-3.9455,-3.9131,-3.8594,-3.8463,-3.8405,-3.8405,-3.8275,-3.8202,-3.8202,-3.8333,-3.8333,-3.8202,-3.8202,-3.8014,0.0,0.0,0.0,-4.8894,0.0,0.0,0.0,-4.8578,0.0,0.0,0.0,0.0,0.0,0.0,0.0,0.0,0.0,0.0,0.0,0.0,0.0,0.0,0.0,0.0,0.0,0.0,-4.8001,-4.8001,-4.8001,-4.8049,-4.8195,-4.8195,-4.8324,-4.8627,-4.8738,-4.8832,-4.8894,-4.8987,-4.9001,-4.9001,-4.9001,-4.9001,-4.9001,-4.9001,-4.9001,-4.9001,-4.9001,-4.9001,-4.9001,-4.9001,-4.9001,-4.9001,-4.9001,-4.9001,-4.9001,-4.9001,-4.9001,-4.9001,-4.9001,-4.9001,-4.9001,-4.8925,-4.8863,-4.8738,-4.8564,-4.8308,-4.8082,-4.8033,-4.7736,-4.7454,-4.7454,-4.7173,-4.6891,-4.6891,-4.6609,-4.6344,-4.6344,-4.6063,-4.5798,-4.5798,-4.6394,-4.6792,-4.6411,-4.6344,-4.6117,-4.5405,-4.4772,-4.4223,-4.3883,-4.2716,-4.1786,-4.1532,-4.0628,-3.9965,-3.9694,-3.9352,-3.903,-3.8725,-3.8696,-3.8551,-3.8217,-3.8202,-3.8202,-3.8202,-3.8202,-3.8202,-3.8202,-3.8202,-3.8202,-3.8202,-3.7976,-3.7801,0.0,0.0,0.0,0.0,0.0,-4.8452,0.0,0.0,0.0,0.0,0.0,0.0,0.0,0.0,0.0,0.0,0.0,0.0,0.0,0.0,0.0,0.0,0.0,0.0,0.0,0.0,-4.8001,-4.8001,-4.8001,-4.8066,-4.8179,-4.8163,-4.826,-4.8452,-4.8627,-4.8769,-4.8818,-4.8909,-4.9001,-4.9001,-4.9001,-4.9001,-4.9001,-4.9001,-4.9001,-4.9001,-4.9001,-4.9001,-4.9001,-4.9001,-4.8917,-4.8798,-4.8951,-4.9001,-4.9001,-4.9001,-4.9001,-4.9001,-4.9001,-4.9001,-4.8954,-4.8664,-4.8435,-4.8224,-4.7843,-4.7651,-4.7587,-4.7587,-4.7156,-4.6692,-4.6692,-4.6245,-4.5798,-4.5798,-4.5682,-4.5582,-4.5582,-4.5467,-4.5384,-4.5384,-4.5274,-4.5276,-4.5549,-4.5489,-4.5203,-4.4706,-4.3875,-4.315,-4.2751,-4.1172,-4.0017,-3.9921,-3.898,-3.8315,-3.8202,-3.8202,-3.8202,-3.8202,-3.8202,-3.8202,-3.8202,-3.8202,-3.8202,-3.8202,-3.8202,-3.8202,-3.8202,-3.8202,-3.8165,-3.8089,-3.7763,-3.751,0.0,0.0,0.0,0.0,-4.8388,0.0,0.0,0.0,0.0,0.0,0.0,0.0,0.0,0.0,0.0,0.0,0.0,0.0,0.0,0.0,0.0,0.0,0.0,0.0,0.0,0.0,0.0,-4.8001,-4.8001,-4.8001,-4.8033,-4.8033,-4.8082,-4.8227,-4.842,-4.8627,-4.8818,-4.8909,-4.9001,-4.9001,-4.9001,-4.9001,-4.9001,-4.9001,-4.9001,-4.9001,-4.9001,-4.9001,-4.9001,-4.9001,-4.8612,-4.8075,-4.8748,-4.9001,-4.9001,-4.9001,-4.9001,-4.9001,-4.9001,-4.9001,-4.8869,-4.8088,-4.7186,-4.6343,-4.614,-4.6061,-4.6046,-4.6046,-4.598,-4.5914,-4.5914,-4.5847,-4.5798,-4.5798,-4.5284,-4.4804,-4.4804,-4.4307,-4.3847,-4.3847,-4.3373,-4.3353,-4.4596,-4.4324,-4.3525,-4.2365,-4.1531,-4.0888,-4.0364,-4.0092,-3.9742,-3.9266,-3.9061,-3.876,-3.824,-3.8202,-3.8202,-3.8202,-3.8202,-3.8202,-3.8202,-3.8202,-3.8202,-3.8202,-3.8202,-3.8202,-3.8202,-3.8202,-3.8014,-3.7649,-3.7625,-3.724,0.0,0.0,0.0,0.0,0.0,0.0,-4.8082,0.0,-4.8001,0.0,0.0,0.0,0.0,0.0,0.0,0.0,0.0,0.0,0.0,0.0,0.0,0.0,0.0,0.0,0.0,0.0,0.0,0.0,0.0,-4.6725,-4.6725,-4.7123,-4.7387,-4.7435,-4.8139,-4.8547,-4.8627,-4.8877,-4.9001,-4.9001,-4.9001,-4.9001,-4.8984,-4.8578,-4.8376,-4.8359,-4.7902,-4.7716,-4.7716,-4.7716,-4.7547,-4.7293,-4.7597,-4.7716,-4.7716,-4.7716,-4.7716,-4.7716,-4.7716,-4.7656,-4.7467,-4.6921,-4.6374,-4.5891,-4.5829,-4.5798,-4.5798,-4.5798,-4.5483,-4.5152,-4.5152,-4.4837,-4.4539,-4.4539,-4.4307,-4.4075,-4.4075,-4.3509,-4.3005,-4.3005,-4.2443,-4.2109,-4.2607,-4.2429,-4.2006,-4.1276,-4.0538,-3.9909,-3.9493,-3.9133,-3.8841,-3.8612,-3.8575,-3.8464,-3.8202,-3.8202,-3.8202,-3.8202,-3.8202,-3.8202,-3.8202,-3.8202,-3.8202,-3.8202,-3.8202,-3.8202,-3.8202,-3.8202,-3.7976,-3.7625,-3.7625,-3.7433,-4.8644,0.0,0.0,0.0,0.0,0.0,0.0,0.0,0.0,0.0,0.0,0.0,0.0,0.0,0.0,-4.5251,0.0,0.0,0.0,0.0,0.0,0.0,0.0,0.0,0.0,0.0,0.0,0.0,-4.5798,0.0,-4.5798,-4.6295,-4.6593,-4.6593,-4.7439,-4.7912,-4.7912,-4.8239,-4.8392,-4.8392,-4.8392,-4.8392,-4.8376,-4.7851,-4.7614,-4.7581,-4.7022,-4.6786,-4.6786,-4.6786,-4.6667,-4.6498,-4.6498,-4.6363,-4.6244,-4.6633,-4.6786,-4.6786,-4.6786,-4.6515,-4.6122,-4.5885,-4.5538,-4.5202,-4.5202,-4.5202,-4.5202,-4.5202,-4.4804,-4.439,-4.439,-4.4009,-4.3598,-4.3598,-4.3598,-4.3598,-4.3598,-4.3204,-4.2803,-4.2648,-4.2013,-4.1393,-4.1062,-4.0961,-4.0826,-4.0451,-3.9753,-3.919,-3.8907,-3.8464,-3.8202,-3.8202,-3.8202,-3.8202,-3.8202,-3.8202,-3.8202,-3.8202,-3.8202,-3.8202,-3.8202,-3.8202,-3.8202,-3.8202,-3.8202,-3.8202,-3.8202,-3.8202,-3.8052,-3.7763,-3.7649,-3.7471,0.0,0.0,0.0,-4.8001,0.0,0.0,0.0,0.0,-4.6725,0.0,0.0,0.0,0.0,-4.5814,-4.5334,-4.3896,-4.487,0.0,0.0,0.0,0.0,0.0,0.0,0.0,0.0,0.0,0.0,0.0,-4.5798,0.0,-4.5798,-4.5814,-4.5831,-4.5831,-4.6188,-4.6357,-4.6357,-4.6705,-4.6853,-4.6853,-4.6853,-4.6853,-4.6853,-4.6836,-4.6836,-4.6819,-4.6802,-4.6786,-4.6786,-4.6786,-4.638,-4.5737,-4.5737,-4.5297,-4.4852,-4.6261,-4.6786,-4.6786,-4.6786,-4.6136,-4.5219,-4.5087,-4.4424,-4.3664,-4.3664,-4.3664,-4.3664,-4.3664,-4.3648,-4.3631,-4.3631,-4.3615,-4.3598,-4.3598,-4.3598,-4.3598,-4.3598,-4.3582,-4.3372,-4.271,-4.2013,-4.1294,-4.065,-4.0374,-4.0095,-3.9697,-3.9023,-3.8478,-3.824,-3.8202,-3.8202,-3.8202,-3.8202,-3.8202,-3.8202,-3.8202,-3.8202,-3.8202,-3.8202,-3.8202,-3.8202,-3.8202,-3.8202,-3.8202,-3.8202,-3.8202,-3.8202,-3.8202,-3.8202,-3.8165,-3.7763,-3.7201,0.0,0.0,-4.7885,-4.7388,0.0,0.0,0.0,0.0,0.0,0.0,0.0,0.0,0.0,-4.4671,-4.4191,-4.3681,-4.4012,-4.4161,0.0,0.0,0.0,0.0,0.0,0.0,0.0,0.0,0.0,-4.4357,-4.4357,-4.4357,0.0,-4.4804,-4.5052,-4.5052,-4.5765,-4.6216,-4.629,-4.6484,-4.668,-4.6786,-4.6786,-4.6786,-4.6769,-4.6295,-4.6075,-4.6041,-4.5579,-4.5359,-4.5359,-4.5359,-4.5207,-4.4959,-4.4959,-4.4835,-4.4666,-4.5173,-4.5359,-4.5331,-4.5084,-4.4712,-4.4306,-4.4112,-4.3857,-4.3598,-4.3598,-4.3598,-4.3598,-4.3598,-4.3598,-4.3598,-4.3598,-4.3598,-4.3598,-4.3598,-4.3598,-4.3462,-4.3035,-4.2538,-4.2013,-4.1343,-4.06,-3.9955,-3.9457,-3.9313,-3.9241,-3.9081,-3.8634,-3.8277,-3.8202,-3.8202,-3.8202,-3.8202,-3.8202,-3.8202,-3.8202,-3.8202,-3.8202,-3.8202,-3.8202,-3.8202,-3.8202,-3.8202,-3.8202,-3.8202,-3.8202,-3.8202,-3.8202,-3.7796,-3.7607,-3.7593,-3.7011,-3.6693,-4.7847,-4.7651,0.0,0.0,-4.651,0.0,-4.5566,0.0,0.0,0.0,0.0,0.0,0.0,0.0,-4.3598,-4.3598,-4.3598,-4.3598,0.0,-4.3598,0.0,0.0,0.0,0.0,0.0,0.0,-4.3598,-4.3598,-4.3598,-4.3598,0.0,0.0,-4.4307,-4.4307,-4.497,-4.5387,-4.552,-4.5635,-4.5828,-4.6007,-4.6007,-4.6007,-4.5991,-4.5517,-4.5314,-4.528,-4.4818,-4.4615,-4.4615,-4.4615,-4.4615,-4.4615,-4.4615,-4.4615,-4.4615,-4.4615,-4.4542,-4.4457,-4.4184,-4.3998,-4.3868,-4.3658,-4.3598,-4.3598,-4.3598,-4.3598,-4.3549,-4.3267,-4.34,-4.3532,-4.3267,-4.3234,-4.3235,-4.3235,-4.3035,-4.2741,-4.2317,-4.1852,-4.1294,-4.065,-4.0056,-3.9538,-3.9017,-3.8797,-3.8686,-3.8612,-3.8352,-3.8202,-3.8202,-3.8202,-3.8202,-3.8202,-3.8202,-3.8202,-3.8202,-3.8202,-3.8202,-3.8202,-3.8202,-3.8202,-3.8202,-3.8202,-3.8101,-3.7883,-3.7883,-3.7767,-3.752,-3.7143,-3.6954,-3.6939,-3.6504,-3.6223]},{"header":{"parameterUnit":"m.s-1","parameterCategory":1,"la1":30.6,"la2":29.2853,"lo1":-89.7004,"lo2":-87.6739,"dy":0.0162,"dx":0.0183,"nx":112,"ny":82,"refTime":"2023-08-06T06:00:00:Z","depth":0,"parameterNumber":3,"parameterNumberName":"V-component_of_WINDS"},"data":[0.0,0.0,0.0,0.0,0.0,0.0,0.0,0.0,0.0,0.0,0.0,0.0,0.0,0.0,0.0,0.0,0.0,0.0,0.0,0.0,0.0,0.0,0.0,0.0,0.0,0.0,0.0,0.0,0.0,0.0,0.0,0.0,0.0,0.0,0.0,0.0,0.0,0.0,0.0,0.0,0.0,0.0,0.0,0.0,0.0,0.0,0.0,0.0,0.0,0.0,0.0,0.0,0.0,0.0,0.0,0.0,0.0,0.0,0.0,0.0,0.0,0.0,0.0,0.0,0.0,0.0,0.0,0.0,0.0,0.0,0.0,0.0,0.0,0.0,0.0,0.0,0.0,0.0,0.0,0.0,0.0,0.0,0.0,0.0,0.0,0.0,0.0,0.0,0.0,0.0,0.0,-2.8291,-2.8291,-2.8291,-2.8291,-2.8291,-2.8467,-2.8887,0.0,0.0,0.0,0.0,0.0,0.0,0.0,0.0,0.0,0.0,0.0,0.0,0.0,0.0,0.0,0.0,0.0,0.0,0.0,0.0,0.0,0.0,0.0,0.0,0.0,0.0,0.0,0.0,0.0,0.0,0.0,0.0,0.0,0.0,0.0,0.0,0.0,0.0,0.0,0.0,0.0,0.0,0.0,0.0,0.0,0.0,0.0,0.0,0.0,0.0,0.0,0.0,0.0,0.0,0.0,0.0,0.0,0.0,0.0,0.0,0.0,0.0,0.0,0.0,0.0,0.0,0.0,0.0,0.0,0.0,0.0,0.0,0.0,0.0,0.0,0.0,0.0,0.0,0.0,0.0,0.0,0.0,0.0,0.0,0.0,0.0,0.0,0.0,0.0,0.0,0.0,0.0,0.0,0.0,0.0,0.0,0.0,0.0,0.0,0.0,0.0,0.0,0.0,0.0,-2.8291,-2.8291,-2.8291,-2.8291,-2.8291,-2.8291,-2.8467,-2.8887,0.0,0.0,0.0,0.0,0.0,0.0,0.0,0.0,0.0,0.0,0.0,0.0,0.0,0.0,0.0,0.0,0.0,0.0,0.0,0.0,0.0,0.0,0.0,0.0,0.0,0.0,0.0,0.0,0.0,0.0,0.0,0.0,0.0,0.0,0.0,0.0,0.0,0.0,0.0,0.0,0.0,0.0,0.0,0.0,0.0,0.0,0.0,0.0,0.0,0.0,0.0,0.0,0.0,0.0,0.0,0.0,0.0,0.0,0.0,0.0,0.0,0.0,0.0,0.0,0.0,0.0,0.0,0.0,0.0,0.0,0.0,0.0,0.0,0.0,0.0,0.0,0.0,0.0,0.0,0.0,0.0,0.0,0.0,0.0,0.0,0.0,0.0,0.0,0.0,0.0,0.0,0.0,0.0,0.0,0.0,0.0,0.0,0.0,0.0,0.0,0.0,0.0,0.0,-2.8291,-2.8291,-2.8291,-2.8291,-2.8291,-2.8291,-2.8291,-2.8574,-2.9228,-2.9277,0.0,0.0,0.0,0.0,0.0,0.0,0.0,0.0,0.0,0.0,0.0,0.0,0.0,0.0,0.0,0.0,0.0,0.0,0.0,0.0,0.0,0.0,0.0,0.0,0.0,0.0,0.0,0.0,0.0,0.0,0.0,0.0,0.0,0.0,0.0,0.0,0.0,0.0,0.0,0.0,0.0,0.0,0.0,0.0,0.0,0.0,0.0,0.0,0.0,0.0,0.0,0.0,0.0,0.0,0.0,0.0,0.0,0.0,0.0,0.0,0.0,0.0,0.0,0.0,0.0,0.0,0.0,0.0,0.0,0.0,0.0,0.0,0.0,0.0,0.0,0.0,0.0,0.0,0.0,0.0,0.0,0.0,0.0,0.0,0.0,0.0,0.0,0.0,0.0,0.0,0.0,0.0,0.0,0.0,0.0,0.0,0.0,0.0,0.0,0.0,0.0,0.0,-2.8291,-2.8291,-2.8291,-2.8291,-2.8291,-2.8291,-2.8291,-2.8662,-2.9512,-2.9682,0.0,0.0,0.0,0.0,0.0,0.0,0.0,0.0,0.0,0.0,0.0,0.0,0.0,0.0,0.0,0.0,0.0,0.0,0.0,0.0,0.0,0.0,0.0,0.0,0.0,0.0,0.0,0.0,0.0,0.0,0.0,0.0,0.0,0.0,0.0,0.0,0.0,0.0,0.0,0.0,0.0,0.0,0.0,0.0,0.0,0.0,0.0,0.0,0.0,0.0,0.0,0.0,0.0,0.0,0.0,0.0,0.0,0.0,0.0,0.0,0.0,0.0,0.0,0.0,0.0,0.0,0.0,0.0,0.0,0.0,0.0,0.0,0.0,0.0,0.0,0.0,0.0,0.0,0.0,0.0,0.0,0.0,0.0,0.0,0.0,0.0,0.0,0.0,0.0,0.0,0.0,0.0,0.0,0.0,0.0,0.0,0.0,0.0,0.0,0.0,0.0,0.0,-2.8291,-2.8291,-2.8291,-2.8291,-2.8291,-2.8291,-2.8291,-2.8662,-2.9512,-2.9859,0.0,0.0,0.0,0.0,0.0,0.0,0.0,0.0,0.0,0.0,0.0,0.0,0.0,0.0,0.0,0.0,0.0,0.0,0.0,0.0,0.0,0.0,0.0,0.0,0.0,0.0,0.0,0.0,0.0,0.0,0.0,0.0,0.0,0.0,0.0,0.0,0.0,0.0,0.0,0.0,0.0,0.0,0.0,0.0,0.0,0.0,0.0,0.0,0.0,0.0,0.0,0.0,0.0,0.0,0.0,0.0,0.0,0.0,0.0,0.0,0.0,0.0,0.0,0.0,0.0,0.0,0.0,0.0,0.0,0.0,0.0,0.0,0.0,0.0,0.0,0.0,0.0,0.0,0.0,0.0,0.0,0.0,0.0,0.0,0.0,0.0,0.0,0.0,0.0,0.0,0.0,0.0,0.0,0.0,0.0,0.0,0.0,0.0,0.0,0.0,0.0,0.0,-2.8682,-2.8682,0.0,-2.8926,-2.9092,-2.9092,-2.9092,-2.9346,-2.9922,0.0,0.0,0.0,0.0,0.0,0.0,0.0,0.0,0.0,0.0,0.0,0.0,0.0,0.0,0.0,0.0,0.0,0.0,0.0,0.0,0.0,0.0,0.0,0.0,0.0,0.0,0.0,0.0,0.0,0.0,0.0,0.0,0.0,0.0,0.0,0.0,0.0,0.0,0.0,0.0,0.0,0.0,0.0,0.0,0.0,0.0,0.0,0.0,0.0,0.0,0.0,0.0,0.0,0.0,0.0,0.0,0.0,0.0,0.0,0.0,0.0,0.0,0.0,0.0,0.0,0.0,0.0,0.0,0.0,0.0,0.0,0.0,0.0,0.0,0.0,0.0,0.0,0.0,0.0,0.0,0.0,0.0,0.0,0.0,0.0,0.0,0.0,0.0,0.0,0.0,0.0,0.0,0.0,0.0,0.0,0.0,0.0,0.0,0.0,0.0,0.0,0.0,-2.9053,-2.9004,-2.8975,0.0,-2.9394,-2.9626,-2.9626,-2.9626,-2.9812,-3.0356,0.0,0.0,0.0,0.0,0.0,0.0,0.0,0.0,0.0,0.0,0.0,0.0,0.0,0.0,0.0,0.0,0.0,0.0,0.0,0.0,0.0,0.0,0.0,0.0,0.0,0.0,0.0,0.0,0.0,0.0,0.0,0.0,0.0,0.0,0.0,0.0,0.0,0.0,0.0,0.0,0.0,0.0,0.0,0.0,0.0,0.0,0.0,0.0,0.0,0.0,0.0,0.0,0.0,0.0,0.0,0.0,0.0,0.0,0.0,0.0,0.0,0.0,0.0,0.0,0.0,0.0,0.0,0.0,0.0,0.0,0.0,0.0,0.0,0.0,0.0,0.0,0.0,0.0,0.0,0.0,0.0,0.0,0.0,0.0,0.0,0.0,0.0,0.0,0.0,0.0,0.0,0.0,0.0,0.0,0.0,0.0,0.0,0.0,0.0,0.0,0.0,0.0,-2.9518,-2.9199,-2.9092,-2.9587,-2.9636,-2.9646,-2.9636,-2.9636,-2.9934,0.0,0.0,0.0,0.0,0.0,0.0,0.0,0.0,0.0,0.0,0.0,0.0,0.0,0.0,0.0,0.0,0.0,0.0,0.0,0.0,0.0,0.0,0.0,0.0,0.0,0.0,0.0,0.0,0.0,0.0,0.0,0.0,0.0,0.0,0.0,0.0,0.0,0.0,0.0,0.0,0.0,0.0,0.0,0.0,0.0,0.0,0.0,0.0,0.0,0.0,0.0,0.0,0.0,0.0,0.0,0.0,0.0,0.0,0.0,0.0,0.0,0.0,0.0,0.0,0.0,0.0,0.0,0.0,0.0,0.0,0.0,0.0,0.0,0.0,0.0,0.0,0.0,0.0,0.0,0.0,0.0,0.0,0.0,0.0,0.0,0.0,0.0,0.0,0.0,0.0,0.0,0.0,0.0,0.0,0.0,0.0,0.0,0.0,0.0,0.0,0.0,0.0,0.0,-2.9941,-2.9902,-2.9863,-3.0,-3.0303,-3.0613,-3.0766,-3.048,-3.066,-3.1461,0.0,0.0,0.0,0.0,0.0,0.0,0.0,0.0,0.0,0.0,0.0,0.0,0.0,0.0,0.0,0.0,0.0,0.0,0.0,0.0,0.0,0.0,0.0,0.0,0.0,0.0,0.0,0.0,0.0,0.0,0.0,0.0,0.0,0.0,0.0,0.0,0.0,0.0,0.0,0.0,0.0,0.0,0.0,0.0,0.0,0.0,0.0,0.0,0.0,0.0,0.0,0.0,0.0,0.0,0.0,0.0,0.0,0.0,0.0,0.0,0.0,0.0,0.0,0.0,0.0,0.0,0.0,0.0,0.0,0.0,0.0,0.0,0.0,0.0,0.0,0.0,0.0,0.0,0.0,0.0,0.0,0.0,0.0,0.0,0.0,0.0,0.0,0.0,0.0,0.0,0.0,0.0,0.0,0.0,0.0,0.0,0.0,0.0,0.0,0.0,0.0,0.0,-3.0391,-3.0312,-3.0321,-3.0612,-3.0887,-3.117,-3.1441,-3.109,-3.1064,-3.1677,0.0,0.0,0.0,0.0,0.0,0.0,0.0,0.0,0.0,0.0,0.0,0.0,0.0,0.0,0.0,0.0,0.0,0.0,0.0,0.0,0.0,0.0,0.0,0.0,0.0,0.0,0.0,0.0,0.0,0.0,0.0,0.0,0.0,0.0,0.0,0.0,0.0,0.0,0.0,0.0,0.0,0.0,0.0,0.0,0.0,0.0,0.0,0.0,0.0,0.0,0.0,0.0,0.0,0.0,0.0,0.0,0.0,0.0,0.0,0.0,0.0,0.0,0.0,0.0,0.0,0.0,0.0,0.0,0.0,0.0,0.0,0.0,0.0,0.0,0.0,0.0,0.0,0.0,0.0,0.0,0.0,0.0,0.0,0.0,0.0,0.0,0.0,0.0,0.0,0.0,0.0,0.0,0.0,0.0,0.0,0.0,0.0,0.0,0.0,0.0,0.0,0.0,-3.0839,-3.0575,-3.0582,-3.1285,-3.1325,-3.1478,-3.1785,-3.1371,-3.1222,-3.1569,0.0,0.0,0.0,0.0,0.0,0.0,0.0,0.0,0.0,0.0,0.0,0.0,0.0,0.0,0.0,0.0,0.0,0.0,0.0,0.0,0.0,0.0,0.0,0.0,0.0,0.0,0.0,0.0,0.0,0.0,0.0,0.0,0.0,0.0,0.0,0.0,0.0,0.0,0.0,0.0,0.0,0.0,0.0,0.0,0.0,0.0,0.0,0.0,0.0,0.0,0.0,0.0,0.0,0.0,0.0,0.0,0.0,0.0,0.0,0.0,-2.0652,0.0,0.0,0.0,0.0,0.0,0.0,0.0,0.0,0.0,0.0,0.0,0.0,0.0,0.0,0.0,0.0,0.0,0.0,0.0,0.0,0.0,0.0,0.0,0.0,0.0,0.0,0.0,0.0,0.0,0.0,0.0,0.0,0.0,0.0,0.0,0.0,0.0,0.0,0.0,0.0,0.0,-3.1131,-3.1129,-3.1225,-3.1662,-3.1672,-3.1704,-3.1635,-3.1187,-3.1099,-3.1406,0.0,0.0,0.0,0.0,0.0,0.0,0.0,0.0,0.0,0.0,0.0,0.0,0.0,0.0,0.0,0.0,0.0,0.0,0.0,0.0,0.0,0.0,0.0,0.0,0.0,0.0,0.0,0.0,0.0,0.0,0.0,0.0,0.0,0.0,0.0,0.0,0.0,0.0,0.0,0.0,0.0,0.0,0.0,0.0,0.0,0.0,0.0,0.0,0.0,0.0,0.0,0.0,0.0,0.0,0.0,0.0,0.0,0.0,0.0,0.0,0.0,-2.1109,0.0,0.0,0.0,0.0,0.0,0.0,0.0,0.0,0.0,0.0,0.0,0.0,0.0,0.0,0.0,0.0,0.0,0.0,0.0,0.0,0.0,0.0,0.0,0.0,0.0,0.0,0.0,0.0,0.0,0.0,0.0,0.0,0.0,0.0,0.0,0.0,0.0,0.0,0.0,0.0,-3.1498,-3.1556,-3.1592,-3.1667,-3.1694,-3.1635,-3.1521,-3.1069,-3.0867,-3.105,-3.0822,0.0,0.0,0.0,0.0,0.0,0.0,0.0,0.0,0.0,0.0,0.0,0.0,0.0,0.0,0.0,0.0,0.0,0.0,0.0,0.0,0.0,0.0,0.0,0.0,0.0,0.0,0.0,0.0,0.0,0.0,0.0,0.0,0.0,0.0,0.0,0.0,0.0,0.0,0.0,0.0,0.0,0.0,0.0,0.0,0.0,0.0,0.0,0.0,0.0,0.0,0.0,0.0,0.0,0.0,-1.7361,-1.7753,-1.8844,-1.9361,-1.9425,-2.0589,-2.1109,-2.1109,0.0,0.0,0.0,0.0,0.0,0.0,0.0,0.0,0.0,0.0,0.0,0.0,0.0,0.0,0.0,0.0,0.0,0.0,0.0,0.0,0.0,0.0,0.0,0.0,0.0,-3.0889,-3.0781,0.0,0.0,0.0,0.0,0.0,0.0,0.0,0.0,0.0,0.0,0.0,0.0,-3.1744,-3.1792,-3.1734,-3.1559,-3.1574,-3.1511,-3.1288,-3.0905,-3.0657,-3.0574,-3.0563,-3.0398,0.0,0.0,0.0,0.0,0.0,0.0,0.0,0.0,0.0,0.0,0.0,0.0,0.0,0.0,0.0,0.0,0.0,0.0,0.0,0.0,0.0,0.0,0.0,0.0,0.0,0.0,0.0,0.0,0.0,0.0,0.0,0.0,-1.0697,-1.0717,0.0,0.0,0.0,0.0,0.0,0.0,0.0,0.0,0.0,0.0,0.0,0.0,0.0,0.0,-1.3325,-1.4446,-1.6133,-1.825,-1.8005,-1.8786,-2.0596,-2.0722,-2.0849,-2.0849,-2.1046,0.0,-2.1109,-2.1109,0.0,0.0,0.0,0.0,0.0,0.0,0.0,0.0,0.0,0.0,0.0,0.0,0.0,0.0,0.0,0.0,0.0,0.0,0.0,0.0,0.0,0.0,-3.0889,-3.0889,-3.0889,-3.0869,0.0,-3.0439,-3.0107,-3.0107,0.0,0.0,0.0,0.0,0.0,0.0,0.0,0.0,-3.1651,-3.16,-3.1549,-3.145,-3.1409,-3.1278,-3.0822,-3.0729,-3.0522,-3.0118,-3.0087,-3.0056,-2.9994,-3.0056,0.0,0.0,0.0,0.0,0.0,0.0,0.0,0.0,0.0,0.0,0.0,0.0,0.0,0.0,0.0,0.0,0.0,0.0,0.0,0.0,0.0,0.0,0.0,0.0,0.0,0.0,0.0,0.0,0.0,-1.0787,-1.0721,-1.0721,-1.0721,-1.0721,0.0,0.0,0.0,0.0,0.0,0.0,0.0,0.0,0.0,-1.0721,-1.2816,-1.4058,-1.418,-1.6592,-1.8343,-1.9374,-1.9623,-2.0202,-2.1109,-2.1109,-2.1109,-2.1109,-2.1109,-2.1109,-2.1109,-2.1109,-2.1109,-2.1109,0.0,0.0,0.0,0.0,0.0,-2.2174,-2.2856,0.0,0.0,0.0,0.0,0.0,0.0,0.0,0.0,0.0,0.0,0.0,0.0,0.0,0.0,-3.0889,-3.0889,-3.0889,-3.0889,-3.0839,-3.0807,0.0,-3.0453,-3.0409,-3.1197,0.0,0.0,0.0,0.0,0.0,-3.1861,-3.2035,-3.2071,-3.1795,-3.1754,-3.1464,-3.075,-3.0688,-3.0491,-3.0025,-2.9994,-2.9994,-2.9994,-2.9994,-2.9994,0.0,0.0,0.0,0.0,0.0,0.0,0.0,0.0,0.0,0.0,0.0,0.0,0.0,0.0,0.0,0.0,0.0,0.0,0.0,0.0,0.0,0.0,0.0,0.0,0.0,0.0,0.0,0.0,-1.0721,-1.0721,-1.0721,-1.0721,-1.0721,0.0,0.0,0.0,0.0,0.0,0.0,-1.0721,-1.1049,-1.1244,-1.1244,-1.3993,-1.5489,-1.5684,-1.8542,-2.01,-2.0361,-2.0799,-2.1046,-2.1109,-2.1109,-2.1109,-2.1109,-2.1109,-2.1109,-2.1109,-2.1109,-2.1109,-2.1109,-2.1109,-2.1172,0.0,-2.1859,-2.2174,-2.2299,-2.2918,-2.3106,-2.3106,-2.3106,0.0,-2.5867,-2.7495,0.0,0.0,0.0,0.0,-3.0889,-3.0889,0.0,-3.0889,-3.0889,-3.0947,-3.0995,-3.0995,-3.1228,-3.1383,0.0,-3.1067,-3.111,-3.1785,0.0,0.0,0.0,0.0,-3.2504,-3.2039,-3.2287,-3.2328,-3.1864,-3.1868,-3.1598,-3.0915,-3.0864,-3.0719,-3.0367,-3.0243,-3.017,-3.017,-3.0056,-2.9994,-2.9994,0.0,0.0,0.0,0.0,0.0,0.0,0.0,0.0,0.0,0.0,0.0,0.0,0.0,0.0,0.0,0.0,0.0,0.0,0.0,0.0,0.0,0.0,0.0,0.0,0.0,0.0,0.0,0.0,0.0,-1.0721,-1.0721,0.0,0.0,0.0,0.0,-1.0721,-1.0721,-1.0721,-1.0721,-1.1967,-1.2684,-1.2684,-1.5419,-1.7168,-1.7812,-1.9054,-2.0087,-2.1046,-2.0736,-2.0792,-2.1109,-2.1109,-2.1109,-2.1109,-2.1109,-2.1109,-2.1109,-2.1109,-2.1109,-2.1109,-2.1109,-2.1292,-2.1607,-2.1985,-2.2299,-2.2613,-2.2988,-2.3106,-2.3106,-2.3106,-2.4818,-2.7375,-2.9922,-3.0772,0.0,0.0,-3.0889,-3.0889,-3.0889,-3.0889,-3.0889,-3.0889,-3.1102,-3.1276,-3.1276,-3.1556,-3.1672,0.0,-3.1546,-3.1883,-3.219,0.0,-3.2332,-3.2638,-3.2659,-3.2504,-3.2039,-3.2008,-3.1899,-3.1454,-3.1412,-3.1391,-3.135,-3.134,-3.1329,-3.1309,-3.0895,-3.0646,-3.0646,-3.0232,-2.9994,-2.9994,-2.9994,0.0,0.0,0.0,0.0,0.0,0.0,0.0,0.0,0.0,0.0,0.0,0.0,0.0,0.0,0.0,0.0,0.0,0.0,0.0,0.0,0.0,0.0,0.0,0.0,0.0,0.0,0.0,0.0,-1.0721,-1.0721,0.0,0.0,-1.0721,-1.0721,-1.0721,-1.0721,-1.0721,-1.0721,-1.2029,-1.2816,-1.2816,-1.5744,-1.7437,-1.7695,-1.938,-2.0412,-2.0799,-2.0862,-2.0982,-2.1109,-2.1109,-2.1109,-2.1109,-2.1109,-2.1109,-2.1109,-2.1109,-2.1109,-2.1109,-2.1109,-2.1172,-2.1355,-2.1922,-2.2174,-2.2362,-2.2926,-2.3106,-2.3347,-2.504,-2.6208,-2.7495,-3.0108,-3.0889,-3.0889,-3.0889,-3.0889,-3.0889,-3.0889,-3.0889,-3.0889,-3.0889,-3.1112,-3.1325,-3.1325,-3.173,-3.2076,-3.196,-3.1785,-3.1854,-3.2446,-3.2308,-3.2112,-3.2235,-3.2483,-3.2504,-3.2039,-3.2246,-3.2426,-3.2261,-3.225,-3.2126,-3.1826,-3.1805,-3.1681,-3.1391,-3.1215,-3.0998,-3.0698,-3.0532,-3.0453,-3.0495,-3.0484,-3.095,0.0,0.0,0.0,0.0,0.0,0.0,0.0,0.0,0.0,0.0,0.0,0.0,0.0,0.0,0.0,0.0,0.0,0.0,0.0,0.0,0.0,0.0,0.0,0.0,0.0,0.0,-1.0721,-1.0721,-1.0721,-1.0721,-1.0721,-1.0721,-1.0721,-1.0721,-1.0721,-1.0916,-1.1376,-1.275,-1.3731,-1.418,-1.6721,-1.8197,-1.8477,-1.9906,-2.0734,-2.1088,-2.1275,-2.1403,-2.1403,-2.1403,-2.1349,-2.1256,-2.1256,-2.1203,-2.1109,-2.1109,-2.1109,-2.1109,-2.1109,-2.1172,-2.1362,-2.1922,-2.2174,-2.2362,-2.2926,-2.3417,-2.4147,-2.6321,-2.7297,-2.8035,-3.0225,-3.0889,-3.0889,-3.0889,-3.0889,-3.0889,-3.0889,-3.0889,-3.0889,-3.0889,-3.116,-3.1441,-3.1441,-3.1971,-3.243,-3.243,-3.2184,-3.2138,-3.2618,-3.2421,-3.2215,-3.2215,-3.2483,-3.2566,-3.2256,-3.2483,-3.2669,-3.2669,-3.2669,-3.2545,-3.2246,-3.2215,-3.2147,-3.1857,-3.1692,-3.1464,-3.1153,-3.0998,-3.0955,-3.1029,-3.1519,-3.1902,-3.2269,0.0,0.0,0.0,0.0,0.0,0.0,0.0,0.0,0.0,0.0,0.0,0.0,0.0,0.0,0.0,0.0,0.0,0.0,0.0,0.0,0.0,0.0,0.0,-1.0721,-1.0721,-1.0721,-1.0721,-1.0721,-1.0721,-1.0721,-1.0721,-1.0721,-1.0787,-1.0784,-1.1376,-1.2816,-1.4193,-1.5629,-1.699,-1.8372,-1.961,-2.0526,-2.0532,-2.0993,-2.1984,-2.1984,-2.1984,-2.1984,-2.1984,-2.183,-2.1635,-2.1635,-2.1403,-2.1136,-2.1136,-2.1129,-2.1122,-2.1109,-2.1299,-2.167,-2.1985,-2.2292,-2.2675,-2.2988,-2.3969,-2.5256,-2.6589,-2.7847,-2.9107,-3.046,-3.0889,-3.0889,-3.0889,-3.0889,-3.0889,-3.0889,-3.0889,-3.0889,-3.0889,-3.1344,-3.1787,-3.1787,-3.2258,-3.2669,-3.2669,-3.2669,-3.2669,-3.2669,-3.2669,-3.2669,-3.2669,-3.2669,0.0,-3.2669,-3.2669,-3.2669,-3.2669,-3.2669,-3.2669,-3.2669,-3.2669,-3.2669,-3.2669,-3.2256,-3.1998,-3.2043,-3.1629,-3.1479,-3.1561,-3.2921,-3.361,-3.3648,0.0,0.0,0.0,0.0,0.0,0.0,0.0,0.0,0.0,0.0,0.0,0.0,0.0,0.0,0.0,0.0,0.0,0.0,0.0,0.0,0.0,0.0,-1.0721,-1.0721,-1.0721,-1.0721,-1.0721,-1.0721,-1.0721,-1.0721,-1.0721,-1.1115,-1.2161,-1.2227,-1.2816,-1.4254,-1.5843,-1.692,-1.7249,-1.9083,-2.0282,-2.0819,-2.101,-2.1444,-2.1984,-2.1984,-2.1984,-2.1984,-2.1984,-2.1944,-2.1864,-2.1864,-2.1817,-2.1744,-2.1744,-2.1623,-2.141,-2.1196,-2.1299,-2.167,-2.1985,-2.248,-2.2988,-2.3043,-2.3355,-2.4023,-2.6261,-2.7237,-2.7915,-3.0216,-3.0889,-3.0889,-3.0889,-3.0889,-3.0889,-3.0889,-3.0889,-3.0947,-3.116,-3.1508,-3.1845,-3.2133,-3.243,-3.2669,-3.2669,-3.2669,-3.2669,-3.2669,-3.2669,-3.2669,-3.2669,0.0,0.0,-3.2669,-3.2669,-3.2669,-3.2669,-3.2669,-3.2669,-3.2669,-3.2669,-3.2669,0.0,-3.2556,-3.2554,-3.2656,-3.2519,-3.2555,-3.2737,-3.3498,-3.4281,0.0,0.0,0.0,0.0,0.0,0.0,0.0,0.0,0.0,0.0,0.0,0.0,0.0,0.0,0.0,0.0,0.0,0.0,0.0,0.0,0.0,0.0,-1.0721,-1.0721,-1.0721,-1.0721,-1.0721,-1.0721,-1.0721,-1.0721,-1.0721,-1.1244,-1.1637,-1.1897,-1.3013,-1.4094,-1.5035,-1.6546,-1.773,-1.8438,-1.9591,-2.0464,-2.1105,-2.1305,-2.1697,-2.2352,-2.2352,-2.2352,-2.2352,-2.2352,-2.2285,0.0,-2.2164,-2.2098,-2.1984,-2.1984,-2.1884,0.0,0.0,0.0,0.0,0.0,-2.2668,-2.3106,-2.3106,-2.3479,-2.4209,-2.5721,-2.6935,-2.8086,-2.9599,-3.046,-3.0889,-3.0889,-3.0889,-3.0889,-3.0889,-3.1005,-3.1112,-3.1276,-3.1672,-3.2076,-3.2258,-3.2487,-3.2669,-3.2669,0.0,0.0,-3.2669,-3.2669,-3.2669,-3.2669,-3.2669,-3.2669,0.0,-3.2669,-3.2669,-3.2669,-3.2669,-3.2669,-3.2669,-3.2669,0.0,0.0,0.0,-3.3216,-3.3544,-3.3616,0.0,0.0,0.0,-3.5014,0.0,0.0,0.0,0.0,-3.7396,-3.7717,0.0,0.0,0.0,0.0,0.0,0.0,0.0,0.0,0.0,0.0,0.0,0.0,0.0,0.0,0.0,0.0,-1.0721,-1.0721,-1.0721,-1.0721,-1.0721,-1.0721,-1.0721,-1.0787,-1.0916,-1.1901,-1.2235,-1.1534,-1.3634,-1.5228,-1.5771,0.0,0.0,0.0,0.0,-2.0484,-2.1465,-2.1503,-2.1978,-2.2919,-2.2946,-2.3035,-2.3035,-2.2933,-2.2772,-2.2519,-2.2485,-2.2325,-2.2084,-2.2084,-2.2064,-2.2004,-2.1847,-2.1737,-2.1789,-2.2474,-2.2892,0.0,0.0,0.0,0.0,-2.5194,-2.6814,-2.8742,-2.9048,-2.9962,-3.0889,-3.0889,-3.0889,-3.0889,-3.0947,-3.1102,-3.1325,-3.1383,-3.1845,-3.2315,-3.2373,-3.2545,-3.2669,-3.2669,-3.2669,-3.2669,-3.2669,-3.2669,-3.2669,-3.2669,-3.2669,0.0,-3.2669,-3.2669,-3.2669,-3.2669,0.0,0.0,-3.2669,-3.2669,-3.2669,-3.2669,-3.3342,-3.3942,-3.4591,-3.4734,-3.4749,-3.4693,-3.5457,-3.5698,-3.5451,-3.6811,-3.7286,-3.7053,-3.7616,-3.79,0.0,0.0,0.0,0.0,0.0,0.0,0.0,0.0,0.0,0.0,0.0,0.0,0.0,0.0,0.0,-1.0721,-1.0721,-1.0721,-1.0721,-1.0721,-1.0721,-1.0721,-1.0721,-1.1178,-1.2293,-1.1637,-1.248,-1.5876,-1.5555,-1.6313,-1.8846,-1.9464,0.0,-2.0201,-2.0406,-2.0952,-2.1683,-2.1906,-2.2471,-2.324,0.0,0.0,-2.3587,-2.3347,-2.3207,-2.314,-2.2886,-2.2746,-2.276,-2.276,-2.2552,-2.2372,-2.2603,-2.2626,-2.2482,-2.3183,-2.3269,-2.3106,-2.3106,-2.3293,-2.3845,-2.592,-2.6952,-2.7735,-2.9853,-3.0704,0.0,-3.0889,-3.0889,-3.0947,-3.116,-3.1276,-3.1441,-3.196,-3.2201,-3.2373,-3.2555,-3.2669,-3.2669,-3.2669,-3.2669,-3.2669,-3.2669,-3.2669,-3.2669,-3.2669,-3.2669,-3.2669,-3.2669,-3.2669,-3.2669,-3.2669,-3.2669,-3.2669,-3.2669,-3.2669,-3.2669,-3.2669,-3.3717,-3.4602,-3.5201,-3.5727,-3.5771,-3.5306,-3.5511,-3.5984,-3.6822,-3.7121,-3.7874,-3.9008,-3.8285,-3.79,0.0,0.0,0.0,0.0,0.0,0.0,0.0,0.0,0.0,0.0,0.0,-1.0514,0.0,0.0,-1.0721,-1.0721,-1.131,-1.1508,-1.0787,-1.131,-1.1508,-1.0787,-1.0721,-1.0982,-1.1703,-1.25,-1.3648,-1.5205,-1.6717,-1.8033,-1.9032,-1.9855,-2.04,-2.0659,-2.0798,-2.1346,-2.2192,-2.2332,-2.2756,-2.3554,-2.3701,-2.3774,-2.3768,-2.3614,-2.3547,-2.3534,-2.3227,-2.3093,-2.3086,-2.2926,-2.2772,-2.2693,-2.3285,-2.321,-2.2869,-2.358,-2.3735,-2.3574,-2.3413,-2.378,-2.4493,-2.5672,-2.6883,-2.8206,-2.9481,-3.0392,-3.0889,-3.0889,-3.0889,-3.0947,-3.1218,-3.1441,-3.1672,-3.219,-3.2373,-3.2555,-3.2669,-3.2669,-3.2669,-3.2669,-3.2669,-3.2669,-3.2669,-3.2669,-3.2669,-3.2669,-3.2669,-3.2669,-3.2669,-3.2669,-3.2669,-3.2669,-3.2669,-3.2669,-3.2669,-3.2955,-3.3285,-3.3604,-3.4424,-3.5201,-3.5829,-3.6157,-3.6151,-3.5898,-3.5898,-3.6273,-3.6988,-3.7384,-3.8054,-3.8981,-3.8821,-3.8593,0.0,0.0,0.0,0.0,0.0,0.0,0.0,0.0,-0.995,-0.9918,-1.0199,-1.046,-1.0292,-1.0488,-1.0721,-1.0982,-1.1703,-1.2095,-1.1571,-1.2227,-1.2359,-1.1244,-1.085,-1.1059,-1.1946,-1.3727,-1.478,-1.4589,-1.7663,-1.9314,-1.8729,-1.9839,-2.0623,-2.1116,-2.1183,-2.1672,-2.2618,-2.2675,-2.306,-2.3855,-2.3915,-2.3941,-2.3935,-2.3881,-2.3855,-2.3841,-2.3541,-2.338,-2.3307,-2.3053,-2.2919,-2.2996,-2.3686,-2.3651,-2.3269,-2.3934,-2.4137,-2.4049,-2.3779,-2.4568,-2.5628,-2.5587,-2.7168,-2.909,-2.9253,-3.003,-3.0889,-3.0889,-3.0889,-3.1005,-3.1334,-3.1614,-3.1903,-3.2315,-3.2555,-3.2669,-3.2669,-3.2669,-3.2669,-3.2669,-3.2669,-3.2669,-3.2669,-3.2669,-3.2669,-3.2669,-3.2669,-3.2669,-3.2669,-3.2669,-3.2669,-3.2669,-3.2669,-3.2727,-3.2841,-3.3296,-3.3896,-3.4647,-3.5146,-3.5653,-3.6277,-3.632,-3.632,-3.632,-3.6429,-3.6759,-3.718,-3.7947,-3.8541,-3.8996,-3.9505,-3.9455,-1.1776,-1.1587,-1.1212,-1.0849,-1.0547,-1.0183,0.0,0.0,-0.9764,-0.9653,-0.9999,-1.0152,-0.9695,-0.9961,-1.0651,-1.1897,-1.1174,-1.1439,-1.4058,-1.3473,-1.275,-1.2553,-1.1442,-1.2285,-1.6293,-1.4668,-1.5097,-1.9186,-1.8823,-1.8947,-2.0328,-2.0771,-2.1068,-2.1128,-2.1299,-2.1804,-2.2618,-2.2866,-2.3351,-2.4155,-2.4416,-2.4536,-2.4529,-2.4269,-2.4155,-2.4142,-2.3848,-2.3574,-2.3327,-2.3287,-2.3113,-2.2996,-2.3686,-2.3985,-2.3954,-2.4354,-2.4327,-2.4079,-2.4042,-2.4974,-2.6247,-2.6993,-2.8289,-2.9638,-3.0448,-3.0762,-3.0889,-3.0889,-3.0889,-3.1005,-3.1624,-3.1787,-3.196,-3.2498,-3.2669,-3.2669,-3.2669,-3.2669,-3.2669,-3.2669,-3.2669,-3.2669,-3.2669,-3.2669,-3.2669,-3.2669,-3.2669,-3.2669,-3.2669,-3.2669,-3.2669,-3.2669,-3.2669,-3.2898,-3.3455,-3.3568,-3.4065,-3.5212,-3.5367,-3.5653,-3.6277,-3.632,-3.632,-3.632,-3.7,-3.7755,-3.8601,-3.9443,-4.0249,-4.0952,-4.053,-4.003,-1.1345,-1.0974,-1.0668,0.0,-1.0122,-0.9943,-0.9819,-0.9822,-0.9778,-0.9719,-0.9857,-1.0159,-1.0732,-1.1008,-1.1567,0.0,-1.3403,-1.3792,-1.4516,-1.4842,-1.5038,-1.5224,-1.4152,-1.3794,-1.4872,-1.5634,-1.6947,-1.8936,-1.9433,-2.0051,-2.0883,-2.1074,-2.1203,-2.1595,-2.1643,-2.2141,-2.3095,-2.3216,-2.3641,-2.4456,-2.4576,-2.4636,-2.4636,-2.4509,-2.4362,-2.4195,-2.4075,-2.3855,-2.3587,-2.3587,-2.354,-2.3535,-2.4018,-2.425,-2.4353,-2.4764,-2.4766,-2.462,-2.443,-2.5781,-2.7635,-2.7764,-2.9321,-3.1124,-3.1199,-3.126,-3.1201,-3.0957,-3.1005,-3.1218,-3.1672,-3.196,-3.219,-3.2612,-3.2669,-3.2669,-3.2669,-3.2669,-3.2669,-3.2669,-3.2669,-3.2669,-3.2669,-3.2669,-3.2669,-3.2669,-3.2669,-3.2669,-3.2669,-3.2669,-3.2669,-3.2669,-3.3012,-3.3342,-3.3568,-3.4233,-3.488,-3.5378,-3.5708,-3.6048,-3.6266,-3.632,-3.632,-3.632,-3.6634,-3.7471,-3.8792,-3.9169,-4.0006,-4.1311,-4.105,-4.0814,-1.097,-1.0547,0.0,-1.0001,-0.9883,-0.9879,-1.0243,-1.0304,-1.0425,-1.066,-1.082,-1.1147,-1.2075,-1.2335,-1.2882,-1.425,-1.4973,-1.5424,-1.5559,-1.6078,-1.6623,-1.7077,-1.6765,-1.606,-1.4702,-1.6747,-1.8421,-1.8837,-2.0057,-2.0929,-2.1122,-2.1274,-2.1462,-2.186,-2.1939,-2.2436,-2.337,-2.337,-2.3816,-2.4636,-2.4636,-2.4636,-2.4636,-2.4636,-2.4523,-2.4322,-2.4322,-2.4155,-2.3888,-2.3888,-2.3921,-2.4044,-2.431,-2.4488,-2.4692,-2.5021,-2.5127,-2.509,-2.5241,-2.6845,-2.8794,-2.8789,-3.0438,-3.2266,-3.1826,-3.1699,-3.1611,-3.1182,-3.1289,-3.1541,-3.177,-3.2076,-3.2373,-3.2612,-3.2669,-3.2669,-3.2669,-3.2669,-3.2669,-3.2669,-3.2669,-3.2669,-3.2669,-3.2669,-3.2669,-3.2669,-3.2669,-3.2669,-3.2669,-3.2669,-3.2784,-3.2955,-3.3342,-3.3738,-3.4065,-3.488,-3.5488,-3.5653,-3.6048,-3.632,-3.632,-3.632,-3.632,-3.632,-3.6538,-3.7376,-3.8792,-3.9052,-3.9904,-4.1311,-4.1311,-4.1311,-1.091,0.0,-1.0304,-1.0304,-1.0061,-1.0122,-1.139,-1.1631,-1.1929,-1.2882,-1.3462,-1.366,-1.3345,-1.3613,-1.4332,-1.5644,-1.4768,-1.5033,-1.8045,-1.7324,-1.6686,-1.7313,-1.8766,-1.9288,0.0,-1.8109,-1.8843,-2.0491,-2.0895,-2.1122,-2.1128,-2.1559,-2.1854,-2.1873,-2.212,-2.2626,-2.337,-2.337,-2.3816,-2.4636,-2.4636,-2.4636,-2.4636,-2.4636,-2.4636,-2.4623,-2.4623,-2.4462,-2.4189,-2.4189,-2.4217,-2.4332,-2.4386,-2.4615,-2.4994,-2.5101,-2.5127,-2.5247,-2.6553,-2.7982,-2.9366,-3.0329,-3.1615,-3.2695,-3.2275,-3.2148,-3.206,-3.1621,-3.1732,-3.1929,-3.185,-3.2076,-3.2373,-3.2612,-3.2669,-3.2669,-3.2669,-3.2669,-3.2669,-3.2669,-3.2669,-3.2669,-3.2669,-3.2669,-3.2669,-3.2669,-3.2669,-3.2669,-3.2669,-3.2669,-3.2898,-3.3512,-3.3568,-3.4065,-3.5268,-3.5378,-3.5653,-3.6211,-3.6266,-3.632,-3.632,-3.632,-3.632,-3.632,-3.7042,-3.7885,-3.8792,-3.9647,-4.0491,-4.1311,-4.1311,-4.1311,-1.0789,0.0,-1.1209,-1.1209,-1.1808,-1.2526,-1.2946,-1.3006,-1.3126,-1.3485,-1.3681,-1.3989,-1.4883,-1.513,-1.5719,-1.7039,-1.6737,-1.6807,-1.8378,-1.798,-1.7801,-1.8709,-1.9447,0.0,0.0,0.0,0.0,-2.0659,-2.0983,-2.1213,-2.1329,-2.1673,-2.1873,-2.1873,-2.1957,-2.2282,-2.2825,-2.2898,-2.3357,-2.4349,-2.4543,-2.4636,-2.4636,-2.4636,-2.4636,-2.4636,-2.4636,-2.4583,-2.4489,-2.4489,-2.4673,-2.4927,-2.4763,-2.4938,-2.5262,-2.4927,-2.5322,-2.6133,-2.6874,-2.8649,-3.0651,-3.0966,-3.203,-3.3135,-3.2715,-3.2588,-3.25,-3.207,-3.2355,-3.2664,-3.2272,-3.2628,-3.2963,-3.2742,-3.2669,-3.2669,-3.2669,-3.2669,-3.2669,-3.2669,-3.2669,-3.2669,-3.2669,-3.2669,-3.2669,-3.2669,-3.2669,-3.2669,-3.2669,-3.2669,-3.2784,-3.2955,-3.3717,-3.4379,-3.4758,-3.5543,-3.6102,-3.6266,-3.632,-3.632,-3.632,-3.632,-3.632,-3.632,-3.658,-3.7418,-3.8792,-3.9104,-3.9955,-4.1311,-4.1311,-4.1311,-1.1808,-1.2109,-1.241,-1.241,-1.3066,-1.3844,-1.4262,-1.4381,-1.45,-1.4976,-1.5073,-1.5386,-1.6567,-1.6784,-1.7052,-1.8075,-1.7916,-1.7922,-1.8507,-1.8319,-1.8522,-1.9519,-1.9857,0.0,0.0,0.0,0.0,-2.0874,-2.1058,-2.1287,-2.1468,-2.1728,-2.183,-2.1734,-2.1728,-2.2006,-2.2624,-2.2618,-2.3066,-2.4055,-2.4342,-2.4482,-2.4482,-2.4589,-2.4636,-2.4636,-2.4636,-2.4636,-2.4636,-2.4784,-2.5103,-2.5464,-2.5299,-2.5347,-2.5469,-2.4942,-2.5758,-2.7141,-2.7564,-2.9163,-3.1194,-3.1853,-3.2629,-3.3369,-3.3105,-3.3018,-3.293,-3.251,-3.2871,-3.3236,-3.2783,-3.3023,-3.3306,-3.3027,-3.284,-3.2669,-3.2669,-3.2669,-3.2669,-3.2669,-3.2669,-3.2669,-3.2669,-3.2669,-3.2669,-3.2669,-3.2669,-3.2669,-3.2669,-3.2669,-3.2784,-3.3012,-3.3931,-3.4591,-3.4814,-3.5708,-3.632,-3.632,-3.632,-3.632,-3.632,-3.632,-3.632,-3.632,-3.632,-3.7108,-3.8792,-3.8792,-3.9686,-4.1311,-4.1311,-4.1311,-1.3784,-1.3784,-1.3784,-1.3784,-1.3844,-1.4202,-1.5397,-1.5693,-1.6048,-1.7244,-1.7491,-1.7666,0.0,0.0,-1.8362,-1.8617,-1.8302,-1.8168,-1.8571,-1.8522,-1.8771,0.0,0.0,0.0,0.0,0.0,0.0,-2.111,0.0,-2.1456,-2.1456,-2.171,-2.1728,-2.1468,-2.1456,-2.1804,-2.258,-2.2593,-2.3028,-2.3754,-2.4042,-2.4189,-2.4215,-2.4489,-2.4623,-2.4636,-2.4636,-2.4636,-2.4636,-2.5012,-2.5446,-2.5838,-2.5876,-2.5731,-2.5491,-2.52,-2.6414,-2.8152,-2.8647,-2.9669,-3.1088,-3.2792,-3.3389,-3.3389,-3.3418,-3.3418,-3.334,-3.2939,-3.3317,-3.3709,-3.3256,-3.3299,-3.3441,-3.3389,-3.3058,-3.2758,-3.2737,-3.2669,-3.2669,-3.2669,-3.2669,-3.2669,-3.2669,-3.2669,-3.2669,-3.2669,-3.2669,-3.2669,-3.2669,-3.2669,-3.2898,-3.3512,-3.4099,-3.4703,-3.5312,-3.5938,-3.632,-3.632,-3.632,-3.632,-3.632,-3.632,-3.632,-3.632,-3.632,-3.7173,-3.8792,-3.8844,-3.9686,-4.1311,-4.1311,-4.1311,-1.3963,-1.456,-1.5095,-1.5095,-1.5811,-1.6644,-1.6944,-1.7003,-1.712,-1.742,-1.7642,-1.7877,0.0,0.0,0.0,-1.896,-1.8425,0.0,-1.888,-1.8646,0.0,-1.9784,0.0,-2.0382,-2.0641,-2.0665,0.0,0.0,-2.1124,-2.1166,-2.1166,-2.1426,-2.145,-2.1172,-2.1166,-2.1494,-2.1989,-2.276,-2.3223,-2.3447,-2.3741,-2.3995,-2.4209,-2.4282,-2.4429,-2.4636,-2.4636,-2.4636,-2.4636,-2.5012,-2.5446,-2.5744,-2.5634,-2.5536,-2.5494,-2.5731,-2.6599,-2.783,-2.8994,-3.0479,-3.1944,-3.2688,-3.2949,-3.3008,-3.333,-3.3418,-3.3398,-3.3291,-3.3575,-3.3851,-3.3658,-3.3821,-3.3928,-3.3486,-3.3296,-3.313,-3.2799,-3.2669,-3.2669,-3.2669,-3.2669,-3.2669,-3.2669,-3.2669,-3.2669,-3.2669,-3.2669,-3.2669,-3.2669,-3.2669,-3.2784,-3.2898,-3.3885,-3.4536,-3.4703,-3.5708,-3.632,-3.632,-3.632,-3.632,-3.632,-3.632,-3.632,-3.632,-3.6893,-3.7737,-3.8792,-3.9428,-4.0275,-4.1311,-4.1311,-4.1311,-1.5924,-1.6397,-1.682,-1.6708,-1.7191,-1.7667,-1.7543,-1.7485,-1.7485,-1.7485,-1.7599,0.0,-1.8221,0.0,0.0,0.0,0.0,0.0,-1.8822,-1.8876,-1.9098,0.0,-2.0219,0.0,-2.0653,-2.0665,-2.0732,0.0,-2.1062,-2.1128,-2.1128,-2.1209,-2.1166,-2.0895,-2.0889,-2.1235,-2.1766,-2.2687,-2.312,-2.3126,-2.3427,-2.3661,-2.3828,-2.4088,-2.4295,-2.4449,0.0,-2.4636,-2.4636,-2.5219,-2.5503,-2.5627,-2.5791,-2.5553,-2.5172,-2.5913,-2.6673,-2.7496,-2.8838,-3.0345,-3.1709,-3.2324,-3.2519,-3.2598,-3.3018,-3.3144,-3.3184,-3.3369,-3.3733,-3.4113,-3.4059,-3.4289,-3.4388,-3.3855,-3.3524,-3.3254,-3.282,-3.2669,-3.2669,-3.2669,-3.2669,-3.2669,-3.2669,-3.2669,-3.2669,-3.2669,-3.2669,-3.2669,-3.2669,-3.2669,-3.2784,-3.3069,-3.3931,-3.4591,-3.4869,-3.5763,-3.632,-3.632,-3.632,-3.632,-3.632,-3.632,-3.632,-3.632,-3.7096,-3.7938,-3.8792,-3.9647,-4.0491,-4.1311,-4.1311,-4.1311,-1.8363,-1.8421,-1.8363,-1.8083,-1.8025,-1.7966,-1.7661,-1.7543,-1.7543,-1.7485,0.0,-1.7648,-1.8191,-1.8294,-1.8407,-1.8617,0.0,-1.8635,-1.8635,-1.9077,-1.9541,-1.9887,-2.0352,-2.0665,-2.0665,-2.0665,-2.0665,-2.0665,-2.0953,-2.108,-2.108,-2.108,-2.0971,-2.0747,-2.0804,-2.1151,-2.1766,-2.2516,-2.2928,-2.2934,-2.314,-2.3287,-2.3347,-2.3895,-2.4168,-2.4215,0.0,0.0,-2.4636,-2.5391,-2.5503,-2.5396,-2.6041,-2.5637,-2.476,-2.6197,-2.6816,-2.7194,-2.8692,-2.9903,-3.1025,-3.1826,-3.208,-3.2158,-3.2588,-3.2754,-3.2871,-3.3232,-3.3809,-3.436,-3.436,-3.4584,-3.4714,-3.4186,-3.3762,-3.3337,-3.284,-3.2669,-3.2669,-3.2669,-3.2669,-3.2669,-3.2669,-3.2669,-3.2669,-3.2669,-3.2669,-3.2669,-3.2669,-3.2784,-3.3012,-3.3512,-3.4211,-3.4814,-3.5378,-3.5927,-3.632,-3.632,-3.632,-3.632,-3.632,-3.632,-3.632,-3.632,-3.7203,-3.8043,-3.8792,-3.9801,-4.0643,-4.1311,-4.1311,-4.1311,-1.8363,-1.8421,-1.8363,-1.8363,-1.8305,-1.8252,-1.7966,-1.7908,0.0,0.0,-1.7485,-1.7648,-1.8191,-1.8294,-1.8463,-1.893,-1.8764,-1.8699,-1.895,0.0,-1.9541,0.0,0.0,0.0,0.0,0.0,0.0,0.0,0.0,0.0,-2.0738,-2.0738,-2.0783,-2.0665,-2.1283,-2.1697,-2.1766,-2.2516,-2.2928,-2.2928,-2.2919,-2.308,-2.334,-2.3688,-2.3975,-2.4215,0.0,0.0,-2.4616,-2.4873,-2.5091,-2.5282,-2.527,-2.4962,-2.4863,-2.6937,-2.745,-2.7349,-2.9726,-3.0704,-3.0976,-3.1465,-3.1631,-3.1709,-3.2148,-3.2519,-3.2812,-3.2881,-3.3404,-3.4047,-3.436,-3.4612,-3.4728,-3.4199,-3.4069,-3.372,-3.2913,-3.2669,-3.2669,-3.2669,-3.2669,-3.2669,-3.2669,-3.2669,-3.2669,-3.2669,-3.2669,-3.2669,-3.2669,-3.3126,-3.3455,-3.3568,-3.4613,-3.5268,-3.5378,-3.5927,-3.632,-3.632,-3.632,-3.632,-3.632,-3.632,-3.632,-3.632,-3.7791,-3.8635,-3.8792,-4.0313,-4.1161,-4.1311,-4.1311,-4.1311,-1.8887,-1.8894,-1.8894,-1.8706,-1.8648,-1.859,-1.8252,0.0,0.0,0.0,-1.7784,-1.7891,-1.8252,-1.8294,0.0,-1.8802,-1.8822,-1.8892,-1.8822,0.0,0.0,0.0,0.0,0.0,0.0,0.0,0.0,0.0,0.0,0.0,-2.0665,-2.0665,-2.0804,-2.0943,-2.149,-2.1904,-2.2035,-2.2585,-2.2928,-2.2928,-2.2928,-2.2939,-2.31,-2.3561,-2.3848,-2.4001,0.0,0.0,-2.4396,-2.4677,-2.4784,-2.4806,-2.4773,-2.4547,-2.4596,-2.6895,-2.7405,-2.7357,-2.9971,-3.0889,-3.0928,-3.1123,-3.1191,-3.1269,-3.1699,-3.1973,-3.2217,-3.2851,-3.3436,-3.3945,-3.4487,-3.4922,-3.5005,-3.4279,-3.371,-3.3254,-3.283,-3.2669,-3.2669,-3.2669,-3.2669,-3.2669,-3.2669,-3.2669,-3.2669,-3.2669,-3.2669,-3.2669,-3.2669,-3.3239,-3.3738,-3.4054,-3.488,-3.5543,-3.5817,-3.6157,-3.632,-3.632,-3.632,-3.632,-3.632,-3.632,-3.632,-3.632,-3.795,-3.8792,-3.8792,-4.0465,-4.1311,-4.1311,-4.1311,-4.1311,-1.9307,-1.9424,-1.9366,-1.9062,-1.8997,-1.8939,-1.859,-1.8538,0.0,0.0,-1.8025,-1.8074,-1.8313,-1.8355,-1.8407,0.0,-1.895,-1.9014,-1.8764,0.0,0.0,0.0,0.0,0.0,0.0,0.0,0.0,0.0,0.0,0.0,0.0,-2.0735,-2.0943,-2.1214,-2.1697,-2.2035,-2.231,-2.2722,-2.2928,-2.2928,-2.2928,-2.2928,-2.2954,-2.3494,-2.3774,-2.3801,0.0,0.0,0.0,-2.448,-2.446,-2.4281,-2.4388,-2.4407,-2.4641,-2.6732,-2.7443,-2.7735,-3.0098,-3.0889,-3.0889,-3.0889,-3.0889,-3.0957,-3.1289,-3.1445,-3.1739,-3.2747,-3.3402,-3.3931,-3.4623,-3.5036,-3.5045,-3.4134,-3.3306,-3.2669,-3.2669,-3.2669,-3.2638,-3.2545,-3.2525,-3.2494,-3.2457,-3.2437,-3.2468,-3.2514,-3.2525,-3.2566,-3.2659,-3.3342,-3.3942,-3.4424,-3.5035,-3.5653,-3.6266,-3.632,-3.632,-3.632,-3.632,-3.632,-3.632,-3.632,-3.632,-3.632,-3.795,-3.8792,-3.8792,-4.0465,-4.1311,-4.1311,-4.1311,-4.1311,-1.9366,-1.9424,-1.9366,-1.9366,-1.9366,-1.9243,-1.8939,0.0,-1.8765,-1.8421,-1.82,-1.8133,-1.8606,-1.8472,-1.8469,-1.8988,0.0,-1.9072,0.0,0.0,0.0,0.0,0.0,0.0,0.0,0.0,0.0,0.0,0.0,0.0,0.0,-2.1006,-2.1144,-2.1214,-2.1897,-2.2242,-2.231,-2.2722,-2.2928,-2.2928,-2.2928,-2.2928,-2.2954,-2.3494,-2.3774,-2.3788,0.0,0.0,0.0,-2.4031,-2.3949,-2.3959,-2.3987,-2.458,-2.5565,-2.6943,-2.8043,-2.8929,-3.0401,-3.0889,-3.0889,-3.0889,-3.0889,-3.0898,-3.0937,-3.1211,-3.1611,-3.215,-3.3051,-3.388,-3.4312,-3.4626,-3.465,-3.3658,-3.3078,-3.2669,-3.2669,-3.2669,-3.2545,-3.2132,-3.205,-3.1981,-3.1567,-3.1505,-3.164,-3.1988,-3.205,-3.2194,-3.2675,-3.3717,-3.4424,-3.4469,-3.5035,-3.5653,-3.6266,-3.632,-3.632,-3.632,-3.632,-3.632,-3.632,-3.632,-3.632,-3.632,-3.795,-3.8792,-3.8792,-4.0465,-4.1311,-4.1311,-4.1311,-4.1311,-1.9424,-1.9424,-1.9424,-1.9424,-1.9424,-1.9366,-1.9243,0.0,-1.9127,-1.8765,-1.848,-1.8304,-1.8666,-1.8465,-1.8469,0.0,0.0,0.0,-1.9078,0.0,0.0,0.0,0.0,0.0,0.0,0.0,0.0,0.0,0.0,0.0,0.0,-2.1006,-2.1283,-2.1559,-2.2035,-2.2448,-2.2654,-2.2797,-2.2928,-2.2928,-2.2928,-2.2928,-2.2879,-2.3307,-2.3507,-2.3521,0.0,0.0,0.0,-2.3644,-2.3625,-2.369,-2.4355,-2.4937,-2.5744,-2.7661,-2.8571,-2.9098,-3.046,-3.0889,-3.0889,-3.0889,-3.0889,-3.0889,-3.0889,-3.1006,-3.1348,-3.2214,-3.2954,-3.3609,-3.449,-3.4513,-3.4113,-3.3203,-3.2644,-3.2184,-3.1971,-3.1919,-3.1857,-3.1681,-3.164,-3.1588,-3.1412,-3.1381,-3.1433,-3.1609,-3.164,-3.1702,-3.1888,-3.2609,-3.3246,-3.3628,-3.5031,-3.6048,-3.6266,-3.632,-3.632,-3.632,-3.632,-3.632,-3.632,-3.632,-3.632,-3.632,-3.7418,-3.8255,-3.8792,-4.0006,-4.0846,-4.1311,-4.0945,-4.0775,-1.9424,-1.9424,-1.9424,-1.9424,-1.9424,-1.9424,0.0,0.0,-1.9307,-1.912,-1.8765,-1.8587,-1.8782,-1.8588,-1.8586,0.0,0.0,-1.9078,0.0,0.0,0.0,0.0,0.0,0.0,0.0,0.0,0.0,0.0,0.0,0.0,0.0,-2.1214,-2.149,-2.1766,-2.2242,-2.2585,-2.2928,-2.2928,-2.2928,-2.2928,-2.2928,-2.2928,-2.2941,-2.3187,-2.3327,0.0,0.0,0.0,0.0,-2.3352,-2.3326,-2.3372,-2.4637,-2.5454,-2.6203,-2.8175,-2.9166,-2.9658,-3.0587,-3.0889,-3.0889,-3.0889,-3.0889,-3.0889,-3.0889,-3.0889,-3.1133,-3.2345,-3.3105,-3.3649,-3.4299,-3.4068,-3.3441,-3.254,-3.2075,-3.1754,-3.1443,-3.1381,-3.134,-3.1205,-3.1174,-3.1133,-3.0998,-3.0967,-3.1008,-3.1153,-3.1174,-3.1215,-3.136,-3.1841,-3.2426,-3.3071,-3.4592,-3.5668,-3.5841,-3.5841,-3.5841,-3.5841,-3.5841,-3.5841,-3.5841,-3.5841,-3.5841,-3.5841,-3.665,-3.7469,-3.8312,-3.9208,-4.0029,-4.0801,-4.037,-4.0174,-1.9424,-1.9424,-1.9424,-1.9424,-1.9424,-1.9424,0.0,-1.9424,-1.9424,-1.9424,-1.912,-1.8933,-1.914,-1.8943,-1.876,-1.9051,0.0,0.0,0.0,0.0,0.0,0.0,0.0,0.0,0.0,0.0,0.0,0.0,0.0,0.0,0.0,0.0,-2.1766,-2.1766,-2.2516,-2.2928,-2.2928,-2.2928,-2.2928,-2.2928,-2.2928,-2.2928,-2.2941,-2.3187,0.0,0.0,0.0,0.0,0.0,-2.3354,-2.314,-2.2772,-2.4707,-2.6117,-2.7142,-2.8444,-2.9717,-3.0889,-3.0889,-3.0889,-3.0889,-3.0889,-3.0889,-3.0889,-3.0889,-3.0889,-3.1133,-3.2345,-3.3437,-3.4175,-3.3568,-3.3068,-3.252,-3.1609,-3.1391,-3.1381,-3.1381,-3.1381,-3.1236,-3.0781,-3.0698,-3.0553,-3.0087,-3.0005,-3.016,-3.0626,-3.0698,-3.0864,-3.1319,-3.1841,-3.2426,-3.3071,-3.3668,-3.4261,-3.4767,-3.4819,-3.4819,-3.4819,-3.4819,-3.4819,-3.4819,-3.4819,-3.4819,-3.4819,-3.5631,-3.6425,-3.7194,-3.8039,-3.8848,-3.9625,-3.9625,-3.9625,-1.9424,-1.9424,-1.9424,-1.9424,-1.9424,-1.9424,-1.9424,-1.9424,-1.9424,-1.9424,-1.9278,-1.9226,-1.9494,-1.929,-1.91,-1.9394,0.0,0.0,0.0,0.0,0.0,0.0,0.0,0.0,0.0,0.0,0.0,0.0,0.0,0.0,0.0,0.0,-2.1904,-2.2104,-2.2654,-2.2928,-2.2928,-2.2928,-2.2966,-2.318,-2.2966,-2.2973,-2.3166,-2.2853,0.0,0.0,0.0,0.0,0.0,-2.2731,-2.3321,-2.4045,-2.5813,-2.7228,-2.8444,-2.9785,-3.0518,-3.0889,-3.0889,-3.0889,-3.0889,-3.0889,-3.0889,-3.0889,-3.0889,-3.1094,-3.1495,-3.2286,-3.3154,-3.3583,-3.2664,-3.2308,-3.1977,-3.1122,-3.0905,-3.0822,-3.0501,-3.0429,-3.0387,-3.0243,-3.0212,-3.016,-3.0025,-2.9994,-3.0046,-3.0191,-3.0212,-3.0263,-3.0419,-3.0884,-3.1452,-3.2025,-3.2583,-3.344,-3.4687,-3.4796,-3.4796,-3.4796,-3.4796,-3.4796,-3.4796,-3.4796,-3.4796,-3.4796,-3.5568,-3.6362,-3.7181,-3.7977,-3.8582,-3.8998,-3.8998,-3.8802,-1.9424,-1.9424,-1.9424,-1.9424,-1.9424,0.0,-1.9424,-1.9424,-1.954,-1.9989,-1.9755,-1.9694,-2.0288,-1.9853,-1.9456,-1.9598,0.0,0.0,0.0,0.0,0.0,0.0,0.0,0.0,0.0,0.0,0.0,0.0,0.0,0.0,0.0,0.0,-2.199,-2.2358,-2.2669,-2.2928,-2.2928,-2.2752,-2.2792,-2.2979,-2.2679,-2.2632,-2.2806,0.0,0.0,0.0,0.0,0.0,0.0,-2.2399,-2.3317,-2.4547,-2.6308,-2.7787,-2.9048,-3.0401,-3.0889,-3.0889,-3.0889,-3.0889,-3.0889,-3.0889,-3.0771,-3.0664,-3.084,-3.1133,-3.1535,-3.1814,-3.2373,-3.2653,-3.1942,-3.1661,-3.134,-3.0605,-3.0429,-3.0346,-3.0056,-2.9994,-2.9994,-2.9994,-2.9994,-2.9994,-2.9994,-2.9994,-2.9994,-2.9994,-2.9994,-2.9994,-2.9994,-3.0287,-3.0795,-3.1516,-3.1924,-3.2689,-3.4114,-3.4234,-3.4234,-3.4234,-3.4234,-3.4234,-3.4234,-3.4234,-3.4365,-3.466,-3.5082,-3.5861,-3.7008,-3.7762,-3.8217,-3.841,-3.841,-3.8227,0.0,-1.9482,-1.9424,-1.9424,0.0,0.0,-1.9424,-1.9495,0.0,-2.0981,-2.0681,-2.0463,-2.1505,-2.0794,-1.9983,-1.9852,0.0,0.0,0.0,0.0,0.0,0.0,0.0,0.0,0.0,0.0,0.0,0.0,0.0,0.0,0.0,0.0,0.0,-2.2331,-2.2652,-2.2867,-2.2867,-2.2525,-2.2398,-2.2412,-2.2124,-2.1997,-2.2017,0.0,0.0,0.0,0.0,0.0,0.0,-2.2288,-2.3243,-2.444,-2.6277,-2.7847,-2.9166,-3.046,-3.0889,-3.0889,-3.0889,-3.0889,-3.0889,-3.085,-3.0527,-3.0225,-3.0635,-3.1023,-3.1321,-3.1091,-3.1299,-3.1533,-3.1337,-3.0967,-3.0532,-3.0098,-2.9994,-2.9994,-2.9994,-2.9994,-2.9994,-2.9994,-2.9994,-2.9994,-2.9994,-2.9994,-2.9994,-2.9994,-2.9994,-2.9994,-2.9994,-2.9994,-3.0401,-3.1476,-3.1618,-3.2037,-3.3181,-3.3281,-3.3281,-3.3281,-3.3281,-3.3281,-3.3281,-3.3281,-3.3607,-3.4288,-3.4434,-3.5259,-3.6815,-3.7551,-3.79,-3.79,-3.79,-3.79,-2.0558,0.0,-1.9424,-1.9424,-1.9424,-1.9424,0.0,-2.0336,-2.13,-2.1591,-2.263,-2.354,-2.3805,-2.3589,-2.3029,0.0,0.0,0.0,0.0,0.0,0.0,0.0,0.0,0.0,0.0,0.0,0.0,0.0,0.0,0.0,0.0,0.0,0.0,-2.2091,-2.2158,-2.2191,-2.2191,-2.2124,-2.2198,-2.2412,-2.2124,-2.2104,-2.2305,0.0,0.0,0.0,0.0,0.0,0.0,-2.1963,-2.3517,-2.5627,-2.6633,-2.8403,-3.046,-3.0762,-3.0889,-3.0889,-3.0889,-3.0889,-3.083,-3.0478,-3.0068,-2.9678,-2.9453,-3.0069,-3.0834,-3.062,-3.0822,-3.0925,-3.0469,-3.0243,-3.0129,-3.0025,-2.9994,-2.9994,-2.9994,-2.9994,-2.9994,-2.9994,-2.9994,-2.9994,-2.9994,-2.9994,-2.9994,-2.9994,-2.9994,-2.9994,-2.9994,-2.9994,-3.0401,-3.1476,-3.1618,-3.2037,-3.3181,-3.3281,-3.3281,-3.3281,-3.3281,-3.3281,-3.3281,-3.3281,-3.3381,-3.3568,-3.4702,-3.6096,-3.7611,-3.7808,-3.79,-3.79,-3.79,-3.79,-2.1737,-2.1117,-2.0385,-2.0895,-2.1169,-2.1336,-2.1336,-2.2152,-2.308,-2.3605,-2.4209,-2.4763,-2.531,-2.4915,0.0,0.0,0.0,0.0,0.0,0.0,0.0,0.0,0.0,0.0,0.0,0.0,0.0,0.0,0.0,0.0,0.0,0.0,0.0,0.0,-2.179,-2.185,-2.1984,-2.185,-2.1864,-2.2017,-2.1724,-2.1663,-2.1804,0.0,0.0,0.0,0.0,0.0,-2.2278,-2.2966,-2.4786,-2.7142,-2.7658,-2.9126,-3.0889,-3.0889,-3.0889,-3.0859,-3.0644,-3.0449,-3.0244,-2.999,-2.9619,-2.9228,-2.8994,-2.9221,-2.9599,-2.96,-2.9846,-3.0005,-2.9845,-2.9889,-2.9994,-2.9994,-2.9994,-2.9994,-2.9994,-2.9994,-2.9994,-2.9994,-2.9994,-2.9994,-2.9994,-2.9994,-2.9994,-2.9994,-2.9994,-2.9994,-2.9994,-2.9994,-3.0401,-3.1476,-3.1618,-3.2037,-3.3181,-3.3281,-3.3281,-3.3281,-3.3281,-3.3281,-3.3281,-3.3281,-3.3469,-3.3793,-3.5331,-3.6534,-3.7353,-3.7703,-3.79,-3.79,-3.79,-3.79,-2.3167,-2.2753,-2.2208,-2.29,-2.3365,-2.3677,-2.3677,-2.4124,-2.4843,-2.591,0.0,0.0,0.0,-2.5915,0.0,0.0,0.0,0.0,0.0,0.0,0.0,0.0,0.0,0.0,0.0,0.0,0.0,0.0,0.0,0.0,0.0,0.0,0.0,0.0,-2.1612,-2.1603,-2.185,-2.161,-2.1547,-2.1547,-2.1229,-2.1109,-2.1109,-2.1109,0.0,0.0,0.0,0.0,-2.3636,-2.4263,-2.6078,-2.8417,-2.8792,-2.9679,-3.0781,-3.0781,-3.0742,-3.0635,-3.0244,-2.9824,-2.9473,-2.9473,-2.918,-2.8818,-2.8818,-2.8574,-2.8344,-2.8621,-2.8877,-2.9185,-2.9501,-2.9774,-2.9994,-2.9994,-2.9994,-2.9994,-2.9994,-2.9994,-2.9994,-2.9994,-2.9994,-2.9994,-2.9994,-2.9994,-2.9994,-2.9994,-2.9994,-2.9994,-2.9994,-3.0047,-3.0505,-3.1465,-3.1669,-3.2139,-3.3231,-3.3281,-3.3281,-3.3281,-3.3281,-3.3281,-3.3281,-3.3281,-3.3656,-3.4385,-3.5798,-3.6568,-3.6709,-3.7505,-3.79,-3.79,-3.79,-3.79,-2.5119,-2.5682,-2.5609,-2.3934,-2.3781,-2.4095,-2.4095,-2.5201,-2.6253,0.0,0.0,0.0,0.0,-2.8444,-2.7933,0.0,0.0,0.0,0.0,0.0,0.0,0.0,0.0,0.0,0.0,0.0,0.0,0.0,0.0,0.0,0.0,0.0,0.0,0.0,0.0,-2.1196,-2.1243,-2.1203,-2.1176,-2.1176,-2.1129,-2.1109,-2.1109,-2.1109,-2.1109,0.0,0.0,0.0,-2.3636,-2.4008,-2.5826,-2.8417,-2.8792,-2.9491,-3.0303,-3.0303,-3.0078,-2.9766,-2.9744,-2.9385,-2.9023,-2.9023,-2.873,-2.8389,-2.8389,-2.834,-2.8344,-2.8621,-2.8877,-2.9185,-2.9501,-2.9774,-2.9994,-2.9994,-2.9994,-2.9994,-2.9994,-2.9994,-2.9994,-2.9994,-2.9994,-2.9994,-2.9994,-2.9994,-2.9994,-2.9994,-2.9994,-2.9994,-2.9994,-3.0391,-3.0899,-3.1516,-3.2026,-3.2533,-3.3231,-3.3281,-3.3281,-3.3281,-3.3281,-3.3281,-3.3281,-3.3281,-3.3656,-3.4385,-3.5319,-3.6096,-3.6709,-3.7505,-3.79,-3.79,-3.79,-3.79,-2.7051,-2.7746,-2.7937,-2.6942,-2.68,-2.6981,-2.6981,-2.7719,-2.8319,0.0,0.0,0.0,0.0,0.0,0.0,0.0,0.0,0.0,0.0,0.0,0.0,0.0,0.0,0.0,0.0,0.0,0.0,0.0,0.0,0.0,0.0,0.0,0.0,0.0,0.0,0.0,-2.1109,-2.1109,-2.1109,-2.1109,-2.1109,-2.1109,-2.1109,-2.1109,-2.1109,0.0,0.0,-2.2473,-2.3931,-2.4963,-2.65,-2.8396,-2.9008,-2.9508,-2.9863,-2.9863,-2.959,-2.9219,-2.9219,-2.8935,-2.8584,-2.8584,-2.8447,-2.8291,-2.8291,-2.8291,-2.8344,-2.8621,-2.8877,-2.9185,-2.9501,-2.9774,-2.9994,-2.9994,-2.9994,-2.9994,-2.9994,-2.9994,-2.9994,-2.9994,-2.9994,-2.9994,-2.9994,-2.9994,-2.9994,-2.9994,-2.9994,-2.9994,-2.9994,-3.0193,-3.0703,-3.1516,-3.1823,-3.2331,-3.3231,-3.3281,-3.3281,-3.3281,-3.3281,-3.3281,-3.3281,-3.3281,-3.3656,-3.4385,-3.5174,-3.5953,-3.6709,-3.7505,-3.79,-3.79,-3.79,-3.79,-2.8691,-2.9289,-2.9661,-2.9603,-2.9429,-2.9371,-2.9429,-2.9627,-2.9745,-2.9627,0.0,0.0,0.0,0.0,0.0,0.0,0.0,0.0,0.0,0.0,0.0,0.0,0.0,0.0,0.0,0.0,0.0,0.0,0.0,0.0,0.0,0.0,0.0,0.0,0.0,0.0,-2.1109,-2.1109,-2.1109,-2.1109,-2.1109,-2.1109,-2.1109,-2.1109,-2.1076,-2.1009,-2.1568,-2.2572,-2.3994,-2.5456,-2.688,-2.8275,-2.9238,-2.9502,-2.9404,-2.9307,-2.9062,-2.8769,-2.8769,-2.8564,-2.8291,-2.8291,-2.8291,-2.8291,-2.8291,-2.8291,-2.8344,-2.8727,-2.893,-2.9185,-2.9501,-2.9774,-2.9994,-2.9994,-2.9994,-2.9994,-2.9994,-2.9994,-2.9994,-2.9994,-2.9994,-2.9994,-2.9994,-2.9994,-2.9994,-2.9994,-2.9994,-2.9994,-2.9994,-3.0099,-3.0495,-3.1311,-3.1618,-3.219,-3.3231,-3.3281,-3.3281,-3.3281,-3.3281,-3.3281,-3.3281,-3.3281,-3.3656,-3.4385,-3.5174,-3.5953,-3.6709,-3.7505,-3.79,-3.79,-3.79,-3.79,-2.966,-3.0209,-3.0723,-3.0402,-2.9933,-2.958,-2.9816,-2.9658,-2.9558,-2.9804,0.0,0.0,0.0,0.0,0.0,0.0,0.0,0.0,0.0,0.0,0.0,0.0,0.0,0.0,0.0,0.0,0.0,0.0,0.0,0.0,0.0,0.0,0.0,0.0,0.0,0.0,-2.1109,-2.1109,-2.1109,-2.1109,-2.1109,-2.1109,-2.1109,-2.1109,-2.0962,-2.0708,-2.077,-2.1692,-2.3242,-2.4493,-2.6123,-2.7936,-2.9122,-2.9316,-2.8926,-2.8525,-2.8359,-2.834,-2.834,-2.831,-2.8291,-2.8291,-2.8291,-2.8291,-2.8291,-2.8291,-2.8398,-2.892,-2.9079,-2.9185,-2.9501,-2.9774,-2.9994,-2.9994,-2.9994,-2.9994,-2.9994,-2.9994,-2.9994,-2.9994,-2.9994,-2.9994,-2.9994,-2.9994,-2.9994,-2.9994,-2.9994,-2.9994,-2.9994,-3.0443,-3.0785,-3.0836,-3.175,-3.2583,-3.3231,-3.3281,-3.3281,-3.3281,-3.3281,-3.3281,-3.3281,-3.3281,-3.3656,-3.4385,-3.5174,-3.5953,-3.6709,-3.7505,-3.79,-3.79,-3.79,-3.79,-3.0324,-3.0704,-3.0889,-3.0762,-3.0392,-3.0157,-3.047,-3.047,-3.0343,-3.0216,-2.9981,0.0,0.0,0.0,0.0,0.0,0.0,0.0,0.0,0.0,0.0,0.0,0.0,0.0,0.0,0.0,0.0,0.0,0.0,0.0,0.0,0.0,0.0,0.0,0.0,0.0,0.0,-2.1798,-2.1285,-2.0568,-2.0748,-2.0842,-2.0835,-2.0648,-2.0501,-2.0401,-2.0584,-2.1171,-2.2051,-2.4043,-2.5383,-2.634,-2.8081,-2.8672,-2.8506,-2.835,-2.8291,-2.8291,-2.8291,-2.8291,-2.8291,-2.8291,-2.8291,-2.8291,-2.8291,-2.8408,-2.8621,-2.8973,-2.9237,-2.9501,-2.9774,-2.9942,-2.9994,-2.9994,-2.9994,-2.9994,-2.9994,-2.9994,-2.9994,-2.9994,-2.9994,-2.9994,-2.9994,-2.9994,-2.9994,-2.9994,-2.9994,-2.9994,-2.9994,-3.0193,-3.0547,-3.1208,-3.2291,-3.3069,-3.3281,-3.3281,-3.3281,-3.3281,-3.3281,-3.3281,-3.3281,-3.3281,-3.3904,-3.5126,-3.5475,-3.6203,-3.7459,-3.7749,-3.79,-3.79,-3.79,-3.79,-3.0644,-3.0889,-3.0889,-3.0889,-3.0704,-3.0635,-3.083,-3.083,-3.0704,-3.0577,-3.0274,-2.9922,-2.94,0.0,0.0,0.0,0.0,0.0,0.0,0.0,0.0,0.0,0.0,0.0,0.0,0.0,0.0,0.0,0.0,0.0,0.0,0.0,0.0,0.0,0.0,0.0,0.0,-2.2348,-2.1586,-2.0765,-2.0524,-2.0448,-2.0528,-2.0327,-2.012,-2.0094,-2.0748,-2.1163,-2.1634,-2.4032,-2.5513,-2.6331,-2.7733,-2.8291,-2.8291,-2.8291,-2.8291,-2.8291,-2.8291,-2.8291,-2.8291,-2.8291,-2.8291,-2.8291,-2.8291,-2.8408,-2.8674,-2.8973,-2.929,-2.9501,-2.9889,-2.9994,-2.9994,-2.9994,-2.9994,-2.9994,-2.9994,-2.9994,-2.9994,-2.9994,-2.9994,-2.9994,-2.9994,-2.9994,-2.9994,-2.9994,-2.9994,-2.9994,-2.9994,-3.0141,-3.0651,-3.1721,-3.2544,-3.3069,-3.3281,-3.3281,-3.3281,-3.3281,-3.3519,-3.3557,-3.3331,-3.3519,-3.4274,-3.5571,-3.581,-3.6581,-3.79,-3.79,-3.79,-3.79,-3.79,-3.79,-3.0644,-3.0889,-3.0889,-3.0889,0.0,0.0,-3.0889,-3.0635,-3.0509,-3.083,-3.0635,-3.0333,-2.9981,0.0,0.0,0.0,0.0,0.0,0.0,0.0,0.0,0.0,0.0,0.0,0.0,0.0,0.0,0.0,0.0,0.0,0.0,0.0,0.0,0.0,0.0,0.0,0.0,-2.2639,-2.1991,-2.1984,-2.0516,-1.9947,-2.0227,-2.0167,-2.0067,-1.9852,-2.1064,-2.1741,-2.2168,-2.4625,-2.6672,-2.8291,-2.8291,-2.8291,-2.8291,-2.8291,-2.8291,-2.8291,-2.8291,-2.8291,-2.8291,-2.8291,-2.8291,-2.8291,-2.8291,-2.8291,-2.8398,-2.8973,-2.9079,-2.9237,-2.9837,-2.9994,-2.9994,-2.9994,-2.9994,-2.9994,-2.9994,-2.9994,-2.9994,-2.9994,-2.9994,-2.9994,-2.9994,-2.9994,-2.9994,-2.9994,-2.9994,-2.9994,-2.9994,-3.0495,-3.1197,-3.2258,-3.2409,-3.2633,-3.3231,-3.3281,-3.3281,-3.3281,-3.3979,-3.4066,-3.3331,-3.4017,-3.4775,-3.5619,-3.6332,-3.7108,-3.79,-3.79,-3.79,-3.79,-3.79,-3.79,-3.0644,-3.0889,0.0,-3.0889,0.0,0.0,0.0,-3.083,0.0,0.0,-3.0645,-3.0587,-2.999,0.0,0.0,0.0,0.0,0.0,0.0,0.0,0.0,0.0,0.0,0.0,0.0,0.0,0.0,0.0,0.0,0.0,0.0,0.0,0.0,0.0,0.0,0.0,0.0,0.0,-2.2253,-2.1401,-2.0103,-1.9646,-1.992,-1.972,-1.9579,-1.9616,-2.0801,-2.1598,-2.2297,-2.5075,-2.7079,-2.8291,-2.8291,-2.8291,-2.8291,-2.8291,-2.8291,-2.8291,-2.8291,-2.8291,-2.8291,-2.8291,-2.8291,-2.8291,-2.8291,-2.8451,-2.8674,-2.8973,-2.929,-2.9554,-2.9889,-2.9994,-2.9994,-2.9994,-2.9994,-2.9994,-2.9994,-2.9994,-2.9994,-2.9994,-2.9994,-2.9994,-2.9994,-2.9994,-2.9994,-2.9994,-2.9994,-2.9994,-2.9994,-3.0806,-3.1465,-3.1823,-3.2544,-3.3119,-3.3281,-3.3281,-3.3281,-3.3281,-3.3519,-3.3744,-3.4066,-3.4836,-3.5607,-3.638,-3.6568,-3.7108,-3.79,-3.79,-3.79,-3.79,-3.79,-3.79,-3.0644,-3.0889,0.0,-3.0889,-3.0889,-3.0889,-3.0889,0.0,0.0,0.0,0.0,0.0,0.0,0.0,0.0,0.0,0.0,0.0,0.0,0.0,0.0,0.0,0.0,0.0,0.0,0.0,0.0,0.0,0.0,0.0,0.0,0.0,0.0,0.0,0.0,0.0,0.0,0.0,0.0,-2.1907,-2.0666,-1.9969,-1.9626,-1.9446,-1.9424,-1.954,-2.1388,-2.2789,-2.3855,-2.6245,-2.7628,-2.8291,-2.8291,-2.8291,-2.8291,-2.8291,-2.8291,-2.8291,-2.8291,-2.8291,-2.8291,-2.8291,-2.8291,-2.8291,-2.8291,-2.8398,-2.8621,-2.8973,-2.9237,-2.9501,-2.9889,-2.9994,-2.9994,-2.9994,-2.9994,-2.9994,-2.9994,-2.9994,-2.9994,-2.9994,-2.9994,-2.9994,-2.9994,-2.9994,-2.9994,-2.9994,-2.9994,-3.0141,-3.0557,-3.1219,-3.1783,-3.224,-3.2869,-3.3281,-3.3281,-3.3281,-3.3281,-3.3281,-3.3557,-3.393,-3.4385,-3.4884,-3.5463,-3.6238,-3.6568,-3.7108,-3.79,-3.79,-3.79,-3.79,-3.79,-3.79,-3.0644,-3.0889,0.0,-3.0889,-3.0889,0.0,-3.0889,-3.0889,-3.0889,-3.0889,0.0,0.0,0.0,0.0,0.0,0.0,0.0,0.0,0.0,0.0,0.0,0.0,0.0,0.0,0.0,0.0,0.0,0.0,0.0,0.0,0.0,0.0,0.0,0.0,0.0,0.0,0.0,0.0,0.0,0.0,-2.1964,-2.0723,-1.954,-1.9424,-1.954,-1.9931,-2.2605,-2.4727,-2.6364,-2.7736,-2.8291,-2.8291,-2.8291,-2.8291,-2.8291,-2.8291,-2.8291,-2.8291,-2.8291,-2.8291,-2.8291,-2.8291,-2.8291,-2.8291,-2.8291,-2.8291,-2.8451,-2.8973,-2.9132,-2.929,-2.9837,-2.9994,-2.9994,-2.9994,-2.9994,-2.9994,-2.9994,-2.9994,-2.9994,-2.9994,-2.9994,-2.9994,-2.9994,-2.9994,-2.9994,-2.9994,-2.9994,-3.0349,-3.1424,-3.1567,-3.2037,-3.3119,-3.3281,-3.3281,-3.3281,-3.3281,-3.3281,-3.3281,-3.393,-3.4337,-3.4385,-3.4532,-3.4969,-3.5667,-3.6427,-3.7168,-3.79,-3.79,-3.79,-3.79,-3.79,-3.79,-3.0644,-3.0889,0.0,0.0,-3.0889,-3.0889,-3.0889,-3.0889,-3.0889,0.0,0.0,0.0,0.0,0.0,0.0,0.0,0.0,0.0,0.0,0.0,0.0,0.0,0.0,0.0,0.0,0.0,0.0,0.0,0.0,0.0,0.0,0.0,0.0,0.0,0.0,0.0,-2.6591,-2.5404,-2.4667,0.0,-2.3207,-2.1964,-2.078,-1.9822,-2.0544,-2.2605,-2.3439,-2.5223,-2.7574,-2.8067,-2.8291,-2.8291,-2.8291,-2.8291,-2.8291,-2.8291,-2.8291,-2.8291,-2.8291,-2.8291,-2.8291,-2.8291,-2.8291,-2.8291,-2.8291,-2.8461,-2.8674,-2.9026,-2.929,-2.9554,-2.9889,-2.9994,-2.9994,-2.9994,-2.9994,-2.9994,-2.9994,-2.9994,-2.9994,-2.9994,-2.9994,-2.9994,-2.9994,-2.9994,-2.9994,-2.9994,-2.9994,-3.0245,-3.0899,-3.1362,-3.1874,-3.2521,-3.3019,-3.3281,-3.3281,-3.3281,-3.3281,-3.3281,-3.3469,-3.3793,-3.4385,-3.5547,-3.6285,-3.6474,-3.7261,-3.7703,-3.79,-3.79,-3.79,-3.79,-3.79,-3.79,-3.0644,0.0,0.0,-3.0889,0.0,-3.0889,-3.0889,-3.0889,0.0,0.0,0.0,0.0,0.0,0.0,0.0,0.0,0.0,0.0,0.0,0.0,0.0,0.0,0.0,0.0,0.0,0.0,0.0,0.0,0.0,0.0,0.0,0.0,0.0,0.0,0.0,0.0,-2.6591,-2.5971,-2.5348,-2.4778,-2.4158,-2.2918,-2.1174,-2.0558,-2.1167,-2.2838,-2.4108,-2.5617,-2.7295,-2.8014,-2.8291,-2.8291,-2.8291,-2.8291,-2.8291,-2.8291,-2.8291,-2.8291,-2.8291,-2.8291,-2.8291,-2.8291,-2.8291,-2.8291,-2.8291,-2.8408,-2.8621,-2.8973,-2.9237,-2.9448,-2.9889,-2.9994,-2.9994,-2.9994,-2.9994,-2.9994,-2.9994,-2.9994,-2.9994,-2.9994,-2.9994,-2.9994,-2.9994,-2.9994,-2.9994,-2.9994,-3.0193,-3.0599,-3.1105,-3.1659,-3.2229,-3.2796,-3.3119,-3.3281,-3.3281,-3.3281,-3.3469,-3.3782,-3.3843,-3.4164,-3.4933,-3.6096,-3.6709,-3.6709,-3.7108,-3.7505,-3.79,-3.79,-3.79,-3.79,-3.79,-3.79,-3.0644,0.0,-3.0889,-3.0889,-3.0889,0.0,-3.0889,0.0,0.0,0.0,0.0,0.0,0.0,0.0,0.0,0.0,0.0,0.0,0.0,0.0,0.0,0.0,0.0,0.0,0.0,0.0,0.0,0.0,0.0,0.0,0.0,0.0,0.0,0.0,0.0,-2.6636,-2.6591,-2.6591,-2.6081,-2.5119,-2.4667,-2.3536,-2.1794,-2.1631,-2.1851,-2.2515,-2.468,-2.6073,-2.6916,-2.7906,-2.8291,-2.8291,-2.8291,-2.8291,-2.8291,-2.8291,-2.8291,-2.8291,-2.8291,-2.8291,-2.8291,-2.8291,-2.8291,-2.8291,-2.8291,-2.8344,-2.8451,-2.893,-2.9132,-2.929,-2.9774,-2.9994,-2.9994,-2.9994,-2.9994,-2.9994,-2.9994,-2.9994,-2.9994,-2.9994,-2.9994,-2.9994,-2.9994,-2.9994,-2.9994,-2.9994,-3.0391,-3.0899,-3.1516,-3.1964,-3.2533,-3.3231,-3.3281,-3.3281,-3.3281,-3.3281,-3.3557,-3.4152,-3.4337,-3.4775,-3.5571,-3.6332,-3.6769,-3.6909,-3.6909,-3.7214,-3.79,-3.79,-3.79,-3.79,-3.79,-3.79,0.0,0.0,-3.0889,0.0,-3.0889,-3.0889,0.0,0.0,0.0,0.0,0.0,0.0,0.0,0.0,0.0,0.0,0.0,0.0,0.0,0.0,0.0,0.0,0.0,0.0,0.0,0.0,0.0,0.0,0.0,0.0,0.0,0.0,-2.726,-2.6989,-2.6999,0.0,-2.6591,-2.6591,-2.6537,-2.6309,-2.4214,-2.36,-2.427,-2.3255,-2.3071,-2.3663,-2.5012,-2.6518,-2.8067,-2.8237,-2.8291,-2.8291,-2.8291,-2.8291,-2.8291,-2.8291,-2.8291,-2.8291,-2.8291,-2.8291,-2.8291,-2.8291,-2.8291,-2.8291,-2.8291,-2.8461,-2.8674,-2.8727,-2.9142,-2.9554,-2.9606,-2.9827,-2.9994,-2.9994,-2.9994,-2.9994,-2.9994,-2.9994,-2.9994,-2.9994,-2.9994,-2.9994,-2.9994,-2.9994,-2.9994,-2.9994,-3.0047,-3.0453,-3.1476,-3.1669,-3.2139,-3.3181,-3.3281,-3.3281,-3.3281,-3.3281,-3.3331,-3.3419,-3.4066,-3.4775,-3.5571,-3.6332,-3.7015,-3.7703,-3.7749,-3.7808,-3.79,-3.79,-3.79,-3.79,-3.79,-3.79,-3.0644,-3.0889,-3.0889,0.0,0.0,0.0,0.0,0.0,0.0,0.0,0.0,0.0,0.0,0.0,0.0,0.0,0.0,0.0,0.0,0.0,0.0,0.0,0.0,0.0,0.0,0.0,0.0,0.0,0.0,0.0,0.0,-2.7745,-2.7638,-2.753,-2.7314,0.0,-2.7062,-2.7062,-2.6954,-2.6781,-2.4889,-2.4278,-2.4778,-2.427,-2.4309,-2.4893,-2.6073,-2.7241,-2.8291,-2.8291,-2.8291,-2.8291,-2.8291,-2.8291,-2.8291,-2.8291,-2.8291,-2.8291,-2.8291,-2.8291,-2.8291,-2.8291,-2.8291,-2.8291,-2.8291,-2.8398,-2.8514,-2.8674,-2.8983,-2.9343,-2.9554,-2.9774,-2.9994,-2.9994,-2.9994,-2.9994,-2.9994,-2.9994,-2.9994,-2.9994,-2.9994,-2.9994,-2.9994,-2.9994,-2.9994,-2.9994,-3.0505,-3.1064,-3.1516,-3.2139,-3.2768,-3.3231,-3.3281,-3.3281,-3.3281,-3.3706,-3.4127,-3.4568,-3.5271,-3.6036,-3.6841,-3.7214,-3.7551,-3.79,-3.79,-3.79,-3.79,-3.79,-3.79,-3.79,-3.79,-3.79,0.0,0.0,0.0,0.0,0.0,0.0,0.0,0.0,0.0,0.0,0.0,0.0,0.0,0.0,0.0,0.0,0.0,0.0,0.0,0.0,0.0,0.0,0.0,0.0,0.0,0.0,0.0,0.0,0.0,0.0,-2.8291,-2.8121,-2.796,-2.7906,-2.7647,-2.7485,-2.7377,-2.7377,-2.7269,-2.6989,-2.5551,-2.5055,-2.5229,-2.4953,-2.5267,-2.6127,-2.7034,-2.7755,-2.8291,-2.8291,-2.8291,-2.8291,-2.8291,-2.8291,-2.8291,-2.8291,-2.8291,-2.8291,-2.8291,-2.8291,-2.8291,-2.8291,-2.8291,-2.8291,-2.8291,-2.8291,-2.8344,-2.8514,-2.8824,-2.9185,-2.9396,-2.9722,-2.9994,-2.9994,-2.9994,-2.9994,-2.9994,-2.9994,-2.9994,-2.9994,-2.9994,-2.9994,-2.9994,-2.9994,-2.9994,-2.9994,-3.0806,-3.1465,-3.1567,-3.2443,-3.3119,-3.3281,-3.3281,-3.3381,-3.3557,-3.4066,-3.4727,-3.5571,-3.6285,-3.6968,-3.7564,-3.7808,-3.79,-3.79,-3.79,-3.79,-3.79,-3.79,-3.79,-3.79,-3.79,-3.79,0.0,-3.0557,0.0,0.0,0.0,0.0,0.0,0.0,0.0,0.0,0.0,0.0,0.0,0.0,0.0,0.0,0.0,0.0,0.0,0.0,0.0,0.0,0.0,0.0,0.0,0.0,0.0,0.0,0.0,0.0,-2.8291,-2.8291,-2.8184,-2.7906,-2.7906,-2.7691,-2.7377,-2.7377,-2.7269,-2.6989,-2.5744,-2.5652,-2.6473,-2.5348,-2.5716,-2.7314,-2.7368,-2.7755,-2.8291,-2.8291,-2.8291,-2.8291,-2.8291,-2.8291,-2.8291,-2.8291,-2.8291,-2.8291,-2.8291,-2.8291,-2.8291,-2.8291,-2.8291,-2.8291,-2.8291,-2.8291,-2.8291,-2.8291,-2.8708,-2.9079,-2.9132,-2.9564,-2.9994,-2.9994,-2.9994,-2.9994,-2.9994,-2.9994,-2.9994,-2.9994,-2.9994,-2.9994,-2.9994,-2.9994,-2.9994,-2.9994,-3.0495,-3.1054,-3.1516,-3.2117,-3.2684,-3.3231,-3.3281,-3.3557,-3.4299,-3.4385,-3.4727,-3.5571,-3.6285,-3.6722,-3.6756,-3.7505,-3.79,-3.79,-3.79,-3.79,-3.79,-3.79,-3.79,-3.79,-3.79,-3.79,0.0,0.0,0.0,0.0,0.0,0.0,0.0,0.0,0.0,0.0,0.0,0.0,0.0,0.0,0.0,0.0,0.0,0.0,0.0,0.0,0.0,0.0,0.0,0.0,0.0,0.0,0.0,0.0,0.0,0.0,-2.8291,-2.8291,-2.8237,-2.8184,-2.8184,-2.8077,-2.797,-2.7799,-2.7584,-2.726,-2.6645,-2.6436,-2.6582,-2.6336,-2.6663,-2.7431,-2.7638,-2.796,-2.8291,-2.8291,-2.8291,-2.8291,-2.8291,-2.8291,-2.8291,-2.8291,-2.8291,-2.8291,-2.8291,-2.8291,-2.8291,-2.8291,-2.8291,-2.8291,-2.8291,-2.8291,-2.8344,-2.8514,-2.8824,-2.9132,-2.9396,-2.9722,-2.9994,-2.9994,-2.9994,-2.9994,-2.9994,-2.9994,-2.9994,-2.9994,-2.9994,-2.9994,-2.9994,-2.9994,-2.9994,-2.9994,-3.0443,-3.0991,-3.1516,-3.2066,-3.2812,-3.3869,-3.4028,-3.4311,-3.5078,-3.5607,-3.5988,-3.6285,-3.7015,-3.7459,-3.7459,-3.7749,-3.79,-3.79,-3.79,-3.79,-3.79,-3.79,-3.79,-3.79,-3.79,-3.79,-2.9355,0.0,0.0,0.0,0.0,0.0,0.0,0.0,0.0,0.0,0.0,0.0,0.0,0.0,0.0,0.0,0.0,0.0,0.0,0.0,0.0,0.0,0.0,0.0,0.0,0.0,0.0,0.0,0.0,0.0,-2.8451,-2.8451,-2.8398,-2.8291,-2.8291,-2.8291,-2.8291,-2.813,-2.7853,-2.7584,-2.726,-2.7053,-2.6854,-2.6944,-2.7206,-2.7584,-2.7799,-2.8067,-2.8291,-2.8291,-2.8291,-2.8291,-2.8291,-2.8291,-2.8291,-2.8291,-2.8291,-2.8291,-2.8291,-2.8291,-2.8291,-2.8291,-2.8291,-2.8291,-2.8291,-2.8344,-2.8461,-2.8631,-2.8983,-2.9343,-2.9554,-2.9774,-2.9994,-2.9994,-2.9994,-2.9994,-2.9994,-2.9994,-2.9994,-2.9994,-2.9994,-2.9994,-2.9994,-2.9994,-2.9994,-2.9994,-3.0599,-3.1208,-3.1567,-3.2229,-3.3035,-3.3918,-3.4017,-3.436,-3.5126,-3.5893,-3.6427,-3.6662,-3.7459,-3.79,-3.79,-3.7704,-3.7599,-3.7599,-3.7403,-3.7299,-3.7299,-3.7495,-3.7599,-3.7599,-3.739,-3.7299,0.0,0.0,0.0,0.0,0.0,0.0,0.0,0.0,0.0,0.0,0.0,0.0,0.0,0.0,0.0,0.0,0.0,0.0,0.0,0.0,0.0,0.0,0.0,0.0,0.0,0.0,0.0,0.0,0.0,-2.8727,-2.8727,-2.8684,-2.8568,-2.8291,-2.8291,-2.8291,-2.8291,-2.8291,-2.8184,-2.7906,-2.7593,-2.7431,-2.7377,-2.7152,-2.7368,-2.7906,-2.7906,-2.8067,-2.8291,-2.8291,-2.8291,-2.8291,-2.8291,-2.8291,-2.8291,-2.8291,-2.8291,-2.8291,-2.8291,-2.8291,-2.8291,-2.8291,-2.8291,-2.8291,-2.8291,-2.8514,-2.8684,-2.8727,-2.9142,-2.9606,-2.9606,-2.9774,-2.9994,-2.9994,-2.9994,-2.9994,-2.9994,-2.9994,-2.9994,-2.9994,-2.9994,-2.9994,-2.9994,-2.9994,-2.9994,-2.9994,-3.0909,-3.1567,-3.1618,-3.2606,-3.3281,-3.3331,-3.3331,-3.3656,-3.4385,-3.5223,-3.5953,-3.6637,-3.7433,-3.7874,-3.7848,-3.7286,-3.6972,-3.6972,-3.6397,-3.6109,-3.6109,-3.6684,-3.6972,-3.6959,-3.6371,-3.6096,-2.8467,0.0,0.0,0.0,0.0,0.0,0.0,0.0,0.0,0.0,0.0,0.0,0.0,0.0,0.0,0.0,0.0,0.0,0.0,0.0,0.0,0.0,0.0,0.0,0.0,0.0,0.0,0.0,0.0,-2.8983,-2.8983,-2.8834,-2.8568,-2.8291,-2.8291,-2.8291,-2.8291,-2.8291,-2.8184,-2.7906,-2.7799,-2.7638,-2.7431,-2.7584,-2.7745,-2.7906,-2.813,-2.8237,-2.8291,-2.8291,-2.8291,-2.8291,-2.8291,-2.8291,-2.8291,-2.8291,-2.8291,-2.8291,-2.8291,-2.8291,-2.8291,-2.8291,-2.8291,-2.8291,-2.8291,-2.8514,-2.8727,-2.893,-2.929,-2.9659,-2.9827,-2.9942,-2.9994,-2.9994,-2.9994,-2.9994,-2.9994,-2.9994,-2.9994,-2.9994,-2.9994,-2.9994,-2.9994,-2.9994,-2.9994,-2.9994,-3.0599,-3.1146,-3.1567,-3.2229,-3.3024,-3.4017,-3.4605,-3.5283,-3.5988,-3.6815,-3.7186,-3.6942,-3.7111,-3.705,-3.6619,-3.6449,-3.6358,-3.6358,-3.6188,-3.6109,-3.6109,-3.6279,-3.6358,-3.6345,-3.6188,-3.6061,-2.8291,-2.8467,-2.8662,0.0,0.0,0.0,0.0,-2.9297,0.0,0.0,0.0,0.0,0.0,0.0,0.0,0.0,0.0,0.0,0.0,0.0,0.0,0.0,0.0,0.0,0.0,0.0,0.0,0.0,-2.9396,-2.9237,-2.9132,-2.8834,-2.8568,-2.8291,-2.8291,-2.8291,-2.8291,-2.8291,-2.8237,-2.8077,-2.796,-2.7853,-2.7755,-2.7853,-2.796,-2.8067,-2.8237,-2.8291,-2.8291,-2.8291,-2.8291,-2.8291,-2.8291,-2.8291,-2.8291,-2.8291,-2.8291,-2.8291,-2.8291,-2.8291,-2.8291,-2.8291,-2.8291,-2.8291,-2.8451,-2.8664,-2.893,-2.9237,-2.9501,-2.9774,-2.9942,-2.9994,-2.9994,-2.9994,-2.9994,-2.9994,-2.9994,-2.9994,-2.9994,-2.9994,-2.9994,-2.9994,-2.9994,-2.9994,-2.9994,-2.9994,-3.0651,-3.1259,-3.1578,-3.2342,-3.3198,-3.3979,-3.4544,-3.5024,-3.5444,-3.622,-3.6561,-3.6212,-3.6454,-3.6475,-3.6123,-3.5887,-3.577,-3.577,-3.5521,-3.5391,-3.5391,-3.5639,-3.5639,-3.5391,-3.5391,-3.5349,-2.8291,-2.8291,-2.8291,-2.8291,0.0,0.0,-2.8824,-2.8902,0.0,0.0,0.0,0.0,0.0,0.0,0.0,0.0,0.0,0.0,0.0,0.0,0.0,0.0,0.0,0.0,0.0,0.0,0.0,-2.9942,-2.9774,-2.9501,-2.9185,-2.894,-2.8674,-2.8344,-2.8344,-2.8344,-2.8291,-2.8291,-2.8291,-2.8291,-2.8067,-2.8077,-2.8291,-2.8067,-2.8067,-2.8291,-2.8291,-2.8291,-2.8291,-2.8291,-2.8291,-2.8291,-2.8291,-2.8291,-2.8291,-2.8291,-2.8291,-2.8291,-2.8291,-2.8291,-2.8291,-2.8291,-2.8291,-2.8408,-2.8631,-2.893,-2.9237,-2.9554,-2.9827,-2.9994,-2.9994,-2.9994,-2.9994,-2.9994,-2.9953,-2.9922,-2.9922,-2.988,-2.9839,-2.9839,-2.9922,-2.9973,-2.9922,-2.9922,-2.9901,-2.9953,-3.0811,-3.1465,-3.1516,-3.2623,-3.3422,-3.3517,-3.3675,-3.3833,-3.3937,-3.4675,-3.5124,-3.506,-3.5668,-3.5979,-3.5913,-3.5443,-3.5195,-3.5195,-3.4672,-3.4397,-3.4397,-3.4933,-3.492,-3.4397,-3.4397,-3.4439,0.0,0.0,0.0,0.0,0.0,0.0,-2.873,-2.89,0.0,0.0,0.0,0.0,0.0,0.0,0.0,0.0,0.0,0.0,0.0,0.0,0.0,0.0,0.0,0.0,0.0,0.0,-2.9889,-2.9994,-2.9942,-2.9774,-2.9501,-2.9448,-2.9195,-2.8621,-2.8621,-2.8514,-2.8291,-2.8291,-2.8291,-2.8291,-2.8237,-2.8237,-2.8291,-2.8237,-2.8237,-2.8291,-2.8291,-2.8291,-2.8291,-2.8291,-2.8291,-2.8291,-2.8291,-2.8291,-2.8291,-2.8291,-2.8291,-2.8291,-2.8291,-2.8291,-2.8291,-2.8291,-2.8461,-2.8621,-2.8684,-2.9099,-2.9554,-2.9827,-2.9942,-2.9994,-2.9994,-2.9994,-2.9994,-2.9994,-2.9715,-2.9435,-2.9435,-2.9145,-2.8887,-2.8887,-2.9487,-2.988,-2.9508,-2.9435,-2.9464,-2.9492,-3.0037,-3.063,-3.0974,-3.1672,-3.238,-3.2889,-3.3504,-3.4107,-3.4733,-3.5436,-3.5695,-3.5267,-3.537,-3.5234,-3.475,-3.4633,-3.458,-3.458,-3.4463,-3.4397,-3.4397,-3.4515,-3.4515,-3.4397,-3.4397,-3.4605,0.0,0.0,0.0,-2.8514,0.0,0.0,0.0,-2.8973,0.0,0.0,0.0,0.0,0.0,0.0,0.0,0.0,0.0,0.0,0.0,0.0,0.0,0.0,0.0,0.0,0.0,0.0,-2.9994,-2.9994,-2.9994,-2.9879,-2.9606,-2.9606,-2.9396,-2.893,-2.8781,-2.8621,-2.8514,-2.8354,-2.8291,-2.8291,-2.8291,-2.8291,-2.8291,-2.8291,-2.8291,-2.8291,-2.8291,-2.8291,-2.8291,-2.8291,-2.8291,-2.8291,-2.8291,-2.8291,-2.8291,-2.8291,-2.8291,-2.8291,-2.8291,-2.8291,-2.8291,-2.8461,-2.8568,-2.8781,-2.9036,-2.9459,-2.9827,-2.9942,-2.9829,-2.9653,-2.9653,-2.9477,-2.9301,-2.9301,-2.9125,-2.8959,-2.8959,-2.8783,-2.8618,-2.8618,-2.899,-2.9239,-2.9001,-2.8959,-2.9027,-2.9345,-3.0128,-3.0893,-3.1374,-3.2335,-3.3089,-3.3407,-3.3865,-3.4285,-3.4658,-3.5046,-3.5142,-3.4868,-3.4842,-3.4711,-3.441,-3.4397,-3.4397,-3.4397,-3.4397,-3.4397,-3.4397,-3.4397,-3.4397,-3.4397,-3.4647,-3.4867,0.0,0.0,0.0,0.0,0.0,-2.9185,0.0,0.0,0.0,0.0,0.0,0.0,0.0,0.0,0.0,0.0,0.0,0.0,0.0,0.0,0.0,0.0,0.0,0.0,0.0,0.0,-2.9994,-2.9994,-2.9994,-2.9889,-2.9669,-2.9659,-2.9501,-2.9185,-2.893,-2.8727,-2.8684,-2.8451,-2.8291,-2.8291,-2.8291,-2.8291,-2.8291,-2.8291,-2.8291,-2.8291,-2.8291,-2.8291,-2.8291,-2.8291,-2.8242,-2.8174,-2.8262,-2.8291,-2.8291,-2.8291,-2.8291,-2.8291,-2.8291,-2.8291,-2.8335,-2.8522,-2.8602,-2.869,-2.9246,-2.9559,-2.9735,-2.9735,-2.9466,-2.9177,-2.9177,-2.8897,-2.8618,-2.8618,-2.8545,-2.8483,-2.8483,-2.8411,-2.8359,-2.8359,-2.8497,-2.8567,-2.8462,-2.8632,-2.8936,-2.938,-3.0437,-3.1422,-3.1996,-3.3044,-3.3802,-3.3946,-3.4109,-3.4272,-3.4397,-3.4397,-3.4397,-3.4397,-3.4397,-3.4397,-3.4397,-3.4397,-3.4397,-3.4397,-3.4397,-3.4397,-3.4397,-3.4397,-3.4439,-3.4522,-3.4908,-3.5208,0.0,0.0,0.0,0.0,-2.929,0.0,0.0,0.0,0.0,0.0,0.0,0.0,0.0,0.0,0.0,0.0,0.0,0.0,0.0,0.0,0.0,0.0,0.0,0.0,0.0,0.0,0.0,-2.9994,-2.9994,-2.9994,-2.9942,-2.9942,-2.9827,-2.9554,-2.9237,-2.893,-2.8684,-2.8451,-2.8291,-2.8291,-2.8291,-2.8291,-2.8291,-2.8291,-2.8291,-2.8291,-2.8291,-2.8291,-2.8291,-2.8291,-2.8066,-2.7826,-2.8144,-2.8291,-2.8291,-2.8291,-2.8291,-2.8291,-2.8291,-2.8291,-2.8286,-2.8114,-2.8143,-2.833,-2.8622,-2.8712,-2.8773,-2.8773,-2.8731,-2.869,-2.869,-2.8649,-2.8618,-2.8618,-2.8297,-2.7997,-2.7997,-2.7686,-2.7465,-2.7465,-2.8099,-2.8559,-2.807,-2.8715,-2.9427,-2.9733,-3.0592,-3.1446,-3.2179,-3.2393,-3.276,-3.3389,-3.3509,-3.3768,-3.4356,-3.4397,-3.4397,-3.4397,-3.4397,-3.4397,-3.4397,-3.4397,-3.4397,-3.4397,-3.4397,-3.4397,-3.4397,-3.4397,-3.4605,-3.5031,-3.5086,-3.5494,0.0,0.0,0.0,0.0,0.0,0.0,-2.9827,0.0,-2.9994,0.0,0.0,0.0,0.0,0.0,0.0,0.0,0.0,0.0,0.0,0.0,0.0,0.0,0.0,0.0,0.0,0.0,0.0,0.0,0.0,-2.9197,-2.9197,-2.9446,-2.9539,-2.9425,-2.9211,-2.9026,-2.893,-2.8504,-2.8291,-2.8291,-2.8291,-2.8291,-2.8281,-2.8047,-2.793,-2.792,-2.7656,-2.7549,-2.7549,-2.7549,-2.7451,-2.7305,-2.748,-2.7549,-2.7549,-2.7549,-2.7549,-2.7549,-2.7549,-2.7653,-2.7821,-2.8054,-2.8279,-2.8468,-2.8568,-2.8618,-2.8618,-2.8618,-2.8421,-2.8214,-2.8214,-2.8017,-2.7831,-2.7831,-2.7686,-2.7541,-2.7541,-2.7852,-2.8128,-2.8128,-2.8899,-2.9554,-2.942,-2.9778,-3.0171,-3.0543,-3.1388,-3.2246,-3.2846,-3.3275,-3.3615,-3.3937,-3.3979,-3.4105,-3.4397,-3.4397,-3.4397,-3.4397,-3.4397,-3.4397,-3.4397,-3.4397,-3.4397,-3.4397,-3.4397,-3.4397,-3.4397,-3.4397,-3.4647,-3.5086,-3.5086,-3.529,-2.894,0.0,0.0,0.0,0.0,0.0,0.0,0.0,0.0,0.0,0.0,0.0,0.0,0.0,0.0,-2.8276,0.0,0.0,0.0,0.0,0.0,0.0,0.0,0.0,0.0,0.0,0.0,0.0,-2.8618,0.0,-2.8618,-2.8928,-2.9114,-2.9114,-2.8858,-2.8717,-2.8717,-2.8203,-2.7939,-2.7939,-2.7939,-2.7939,-2.793,-2.7627,-2.749,-2.7471,-2.7148,-2.7012,-2.7012,-2.7012,-2.6943,-2.6846,-2.6846,-2.6768,-2.6699,-2.6924,-2.7012,-2.7012,-2.7012,-2.7127,-2.7372,-2.7843,-2.8111,-2.8245,-2.8245,-2.8245,-2.8245,-2.8245,-2.7997,-2.7738,-2.7738,-2.75,-2.7309,-2.7309,-2.7309,-2.7309,-2.7309,-2.7857,-2.8398,-2.8631,-2.9486,-3.0351,-3.0732,-3.0866,-3.1045,-3.1533,-3.2407,-3.3177,-3.3598,-3.4105,-3.4397,-3.4397,-3.4397,-3.4397,-3.4397,-3.4397,-3.4397,-3.4397,-3.4397,-3.4397,-3.4397,-3.4397,-3.4397,-3.4397,-3.4397,-3.4397,-3.4397,-3.4397,-3.4564,-3.4908,-3.5031,-3.5249,0.0,0.0,0.0,-2.9994,0.0,0.0,0.0,0.0,-2.9197,0.0,0.0,0.0,0.0,-2.8628,-2.8328,-2.7496,-2.8038,0.0,0.0,0.0,0.0,0.0,0.0,0.0,0.0,0.0,0.0,0.0,-2.8618,0.0,-2.8618,-2.8628,-2.8638,-2.8638,-2.8097,-2.7854,-2.7854,-2.7306,-2.7051,-2.7051,-2.7051,-2.7051,-2.7051,-2.7041,-2.7041,-2.7031,-2.7021,-2.7012,-2.7012,-2.7012,-2.6777,-2.6406,-2.6406,-2.6152,-2.583,-2.6709,-2.7012,-2.7012,-2.7012,-2.7041,-2.717,-2.7427,-2.7424,-2.7351,-2.7351,-2.7351,-2.7351,-2.7351,-2.734,-2.733,-2.733,-2.732,-2.7309,-2.7309,-2.7309,-2.7309,-2.7309,-2.7299,-2.7631,-2.8538,-2.9486,-3.0486,-3.1403,-3.1757,-3.2108,-3.2506,-3.3403,-3.4118,-3.4356,-3.4397,-3.4397,-3.4397,-3.4397,-3.4397,-3.4397,-3.4397,-3.4397,-3.4397,-3.4397,-3.4397,-3.4397,-3.4397,-3.4397,-3.4397,-3.4397,-3.4397,-3.4397,-3.4397,-3.4397,-3.4439,-3.4908,-3.5534,0.0,0.0,-2.9922,-2.9611,0.0,0.0,0.0,0.0,0.0,0.0,0.0,0.0,0.0,-2.7914,-2.7614,-2.7361,-2.7569,-2.7662,0.0,0.0,0.0,0.0,0.0,0.0,0.0,0.0,0.0,-2.7717,-2.7717,-2.7717,0.0,-2.7997,-2.8152,-2.8152,-2.8114,-2.7975,-2.7814,-2.745,-2.7155,-2.7012,-2.7012,-2.7012,-2.7002,-2.6728,-2.6602,-2.6582,-2.6249,-2.6122,-2.6122,-2.6122,-2.6035,-2.5957,-2.5957,-2.582,-2.5723,-2.6015,-2.6122,-2.6172,-2.6556,-2.68,-2.7018,-2.7297,-2.7338,-2.7309,-2.7309,-2.7309,-2.7309,-2.7309,-2.7309,-2.7309,-2.7309,-2.7309,-2.7309,-2.7309,-2.7309,-2.7489,-2.8081,-2.876,-2.9486,-3.0453,-3.1436,-3.2283,-3.2889,-3.3061,-3.3147,-3.3305,-3.3882,-3.4314,-3.4397,-3.4397,-3.4397,-3.4397,-3.4397,-3.4397,-3.4397,-3.4397,-3.4397,-3.4397,-3.4397,-3.4397,-3.4397,-3.4397,-3.4397,-3.4397,-3.4397,-3.4397,-3.4397,-3.4031,-3.3862,-3.3849,-3.3618,-3.3993,-2.9464,-2.9632,0.0,0.0,-2.9063,0.0,-2.8473,0.0,0.0,0.0,0.0,0.0,0.0,0.0,-2.7309,-2.7309,-2.7309,-2.7309,0.0,-2.7309,0.0,0.0,0.0,0.0,0.0,0.0,-2.7309,-2.7309,-2.7309,-2.7309,0.0,0.0,-2.7686,-2.7686,-2.7693,-2.7609,-2.7351,-2.7083,-2.6793,-2.6562,-2.6562,-2.6562,-2.6553,-2.6279,-2.6162,-2.6143,-2.581,-2.5693,-2.5693,-2.5693,-2.5693,-2.5693,-2.5693,-2.5693,-2.5693,-2.5693,-2.5781,-2.5927,-2.6352,-2.6699,-2.6948,-2.7214,-2.7309,-2.7309,-2.7309,-2.7309,-2.7278,-2.7102,-2.7185,-2.7268,-2.7102,-2.7411,-2.7809,-2.7809,-2.8081,-2.8491,-2.9084,-2.9715,-3.0486,-3.1403,-3.222,-3.2884,-3.3471,-3.3725,-3.3852,-3.3937,-3.423,-3.4397,-3.4397,-3.4397,-3.4397,-3.4397,-3.4397,-3.4397,-3.4397,-3.4397,-3.4397,-3.4397,-3.4397,-3.4397,-3.4397,-3.4397,-3.4306,-3.411,-3.411,-3.4005,-3.3783,-3.3443,-3.3273,-3.326,-3.2868,-3.2975]}]]